GFSCGP_850_spd_000.txt.gz
Wind_Speed
7 8 4 3 4 4 4 4 3 2 4 8 5 6 9 16 17 16 17 17 16 13 12 8 7 6 7 8 12 12 11 6 3 4 13 6 4 9 10 9 14 16 18 21
7 4 2 3 4 6 6 6 3 3 4 9 10 10 7 14 7 13 23 25 28 27 23 18 16 13 11 12 12 14 11 11 7 7 1 5 8 8 9 13 15 17 18 18
6 2 2 1 5 6 4 4 3 5 10 6 7 6 7 6 11 15 22 26 23 21 22 20 19 17 17 17 16 16 14 12 10 9 7 9 9 9 12 15 16 18 19 17
5 3 3 5 6 4 3 1 5 7 4 4 2 2 2 2 2 3 12 17 18 21 21 22 19 19 17 17 14 11 10 7 4 5 7 10 11 11 13 15 17 17 16 16
3 2 5 7 1 3 3 6 6 3 5 5 4 5 3 3 4 5 9 14 18 20 20 22 18 15 15 14 11 8 6 4 5 8 9 13 14 13 14 15 16 15 19 25
3 3 4 1 3 2 4 6 6 4 3 2 4 5 4 7 7 5 9 16 18 18 19 20 16 12 9 9 7 4 1 4 7 9 10 11 11 11 12 14 16 21 23 23
6 4 4 2 3 3 6 5 3 3 3 4 1 3 6 11 7 11 17 20 18 18 20 19 16 12 9 7 3 2 1 3 3 6 8 7 9 12 14 15 18 22 23 24
4 5 3 4 2 4 2 5 5 6 3 3 3 3 4 7 20 26 25 19 18 17 18 15 14 12 9 8 7 3 1 5 8 7 7 9 12 16 19 21 24 27 27 26
4 1 3 2 1 3 2 2 3 7 3 3 3 4 4 4 5 16 21 16 17 16 17 17 15 13 11 8 4 2 7 9 7 9 11 15 20 23 25 28 31 32 31 26
5 4 2 3 2 7 2 5 3 3 3 2 3 4 4 5 9 8 9 17 18 19 20 19 16 13 9 4 3 8 9 9 9 12 17 22 26 28 30 33 33 31 27 19
3 4 4 1 3 2 2 2 6 5 3 4 1 5 4 9 11 9 14 20 23 25 23 19 14 10 5 1 4 11 7 6 11 17 21 24 26 30 30 32 32 29 19 15
1 5 2 2 2 2 1 3 4 5 3 1 3 5 4 8 13 17 18 21 24 24 20 15 10 6 4 2 3 4 4 10 15 20 22 23 26 29 31 32 29 24 16 15
5 1 3 6 5 4 2 3 4 5 3 4 4 5 4 7 11 14 23 24 23 21 17 12 9 8 6 2 1 5 9 13 16 20 21 23 27 30 31 31 28 22 13 13
4 3 5 6 4 2 3 4 4 5 3 3 6 4 3 4 7 14 22 24 21 17 13 11 11 11 6 2 13 8 11 14 17 19 20 22 26 30 32 30 26 21 17 18
4 4 2 2 4 2 1 4 6 6 5 6 5 7 6 11 10 21 26 22 19 16 14 12 11 9 6 12 7 10 13 15 17 19 20 22 27 31 30 28 26 20 16 13
4 3 0 0 4 5 3 5 6 4 3 7 2 7 5 8 17 21 26 23 20 17 13 13 12 9 11 10 10 13 14 16 19 21 22 22 28 28 28 29 23 14 10 12
3 5 3 3 3 5 6 8 8 5 4 6 6 8 8 5 17 26 26 23 21 17 14 15 14 9 10 13 12 13 16 18 21 23 20 24 27 26 29 24 18 13 11 13
4 4 3 2 3 2 6 2 4 5 4 6 3 5 14 11 19 23 24 23 20 16 14 15 13 12 14 13 13 15 18 21 23 21 22 25 23 27 28 22 16 15 14 17
5 4 3 4 3 5 5 5 7 8 7 9 7 4 8 10 12 18 23 22 18 14 13 12 10 12 13 13 14 17 21 22 19 22 24 23 22 27 25 20 16 16 17 18
5 6 4 3 4 6 6 3 5 4 5 13 16 14 15 15 3 9 20 26 21 15 14 13 13 15 15 13 15 19 21 20 24 21 22 22 23 25 23 17 15 13 16 15
3 3 4 2 3 8 7 3 5 5 7 12 23 25 25 8 17 7 5 14 18 15 15 13 15 14 12 14 18 20 22 22 21 22 23 23 23 24 20 17 15 16 17 14
7 6 4 3 2 8 8 4 7 6 5 13 24 25 30 27 19 8 6 16 16 15 14 14 12 10 12 16 19 22 23 22 23 25 27 25 24 22 19 18 17 17 14 13
2 6 4 8 6 5 15 8 15 6 7 12 21 20 27 29 22 14 15 16 16 16 13 9 8 11 15 17 20 23 22 24 26 27 26 26 22 19 18 16 16 15 13 11
4 6 2 2 4 13 17 21 27 21 22 22 18 20 23 27 21 16 17 17 14 9 6 9 11 15 17 19 20 21 23 26 28 27 24 23 18 15 17 13 14 12 10 13
4 7 4 5 12 17 19 19 20 22 21 21 21 18 20 20 18 18 19 14 10 6 9 10 13 16 18 20 21 22 25 28 27 25 23 18 16 17 20 14 10 10 12 17
9 7 4 6 20 11 16 19 14 16 21 22 19 16 18 17 16 18 12 10 5 8 9 12 14 17 19 21 23 25 26 23 24 25 20 18 16 16 19 12 12 11 14 19

GFSCGP_850_spd_003.txt.gz
Wind_Speed
1 4 4 3 3 3 5 3 6 3 3 7 8 8 9 8 10 9 10 13 14 13 11 10 10 9 9 9 9 7 7 8 3 4 4 4 5 8 11 8 11 13 16 18
6 5 2 5 5 6 5 6 4 5 4 6 8 11 8 9 5 5 11 14 17 19 17 15 15 17 14 14 11 12 13 10 8 7 3 6 5 2 6 11 14 16 17 19
6 2 3 5 4 7 4 7 4 5 7 8 7 5 4 6 8 10 12 16 19 24 27 26 24 24 25 23 20 17 14 12 9 8 5 1 4 6 10 13 15 16 18 17
6 2 4 4 3 1 4 4 11 11 2 3 3 3 1 2 5 7 10 13 19 25 27 27 28 29 28 24 21 19 18 14 10 5 2 4 6 8 11 13 14 15 16 18
0 3 3 5 2 1 4 6 7 3 4 3 2 2 3 5 7 9 11 10 17 23 26 27 27 26 26 24 20 17 12 8 5 4 4 5 6 7 8 9 11 15 19 21
3 3 2 3 2 4 10 6 6 3 2 0 1 2 5 10 14 13 12 12 18 24 25 25 24 25 23 20 17 14 10 9 6 4 4 6 7 9 12 15 18 20 23 26
4 2 1 1 5 3 5 4 2 1 1 3 1 2 5 15 12 18 21 20 23 24 24 22 22 21 20 18 15 12 9 5 2 3 7 9 11 13 16 20 23 25 28 29
4 0 2 4 2 4 2 4 4 5 4 2 1 5 3 3 15 22 24 21 23 24 23 20 18 18 18 18 15 12 7 2 3 6 9 9 11 16 20 24 26 27 27 27
3 1 2 3 1 1 3 2 2 6 2 1 2 3 6 1 10 15 18 21 22 23 22 19 17 18 19 17 13 7 1 5 3 5 8 13 18 23 26 28 29 29 27 25
5 3 1 1 2 7 1 6 3 2 4 3 2 5 5 6 14 12 16 20 21 21 21 20 21 20 17 13 10 5 2 4 7 8 13 18 22 26 28 29 29 29 27 22
3 3 2 1 0 4 3 2 5 4 1 3 2 4 4 8 13 16 22 20 23 23 24 25 22 18 14 11 6 3 9 8 7 11 16 19 23 26 26 28 27 25 21 15
1 4 3 1 0 1 1 3 4 3 4 1 0 5 1 6 10 12 12 19 21 24 26 23 19 16 13 8 3 5 6 8 10 13 17 19 22 22 26 27 26 23 20 13
5 1 3 3 2 1 2 2 4 5 2 5 3 3 0 3 5 12 16 18 20 26 25 23 19 16 11 6 3 9 9 8 10 14 16 18 18 22 27 28 26 24 22 18
3 3 4 7 3 1 4 4 4 3 3 4 6 4 4 5 7 9 14 18 22 27 25 22 19 15 11 6 9 12 4 7 11 15 17 17 18 23 28 27 27 25 21 18
2 4 2 1 1 1 2 4 8 7 4 6 4 8 6 9 12 15 14 20 25 27 25 21 18 16 13 7 8 5 7 9 13 16 18 19 19 24 28 26 27 23 17 13
2 4 2 4 1 3 3 5 7 6 3 10 4 11 8 3 9 15 21 26 27 28 25 21 19 16 19 9 8 8 8 12 16 18 21 20 21 26 26 27 26 20 14 12
2 6 3 3 2 2 5 9 10 5 5 7 8 8 6 6 14 21 23 27 28 27 25 22 19 18 15 11 12 10 11 14 18 21 22 21 23 26 24 26 24 19 16 15
5 4 2 2 1 1 4 2 2 9 6 12 4 4 7 4 11 16 24 29 30 27 24 21 18 17 13 14 14 12 14 17 21 22 21 21 24 24 24 24 21 18 16 17
4 4 3 3 3 5 4 3 5 6 5 10 12 6 4 4 3 11 21 27 27 24 21 16 13 12 13 15 15 16 16 19 22 23 23 23 23 23 22 23 19 17 15 15
4 5 3 3 2 4 4 2 4 3 4 2 11 7 9 11 4 6 11 25 26 22 18 15 15 14 15 17 16 15 17 21 23 24 23 22 22 22 22 23 20 17 16 18
2 3 3 2 3 7 6 1 4 3 4 2 12 14 18 8 13 7 8 13 23 22 17 16 12 17 15 15 13 15 19 22 23 22 21 23 24 25 25 25 20 18 17 17
5 5 3 3 1 6 6 4 5 4 4 6 10 14 24 20 17 14 10 10 17 22 18 15 18 15 12 10 13 17 20 21 21 21 24 27 28 26 27 23 19 17 16 16
3 4 3 7 4 4 13 9 11 10 9 11 11 16 20 22 24 18 13 14 18 20 16 16 11 8 9 12 14 17 18 19 20 24 28 29 27 26 21 17 17 14 15 13
3 5 3 1 2 10 15 17 23 25 26 27 27 23 20 24 24 18 16 18 18 16 17 8 7 9 10 11 14 16 17 19 23 28 29 28 26 20 14 13 13 14 13 10
3 8 4 4 11 15 12 13 11 13 15 18 17 18 19 18 20 22 21 21 21 18 6 7 10 10 9 12 14 14 17 21 24 24 25 24 18 16 14 15 17 14 10 11
10 6 4 5 17 8 14 15 15 17 17 19 19 19 16 13 17 21 23 24 18 11 9 11 9 8 10 12 13 15 19 22 19 21 21 18 18 16 13 15 16 14 13 15

GFSCGP_850_spd_006.txt.gz
Wind_Speed
6 6 9 13 5 3 7 8 13 9 5 6 6 7 5 6 9 11 13 14 14 13 11 13 15 15 18 19 17 12 8 6 5 6 6 5 2 5 8 5 6 9 11 12
6 5 4 5 5 6 6 10 9 6 4 3 8 7 6 4 5 8 12 13 14 13 13 13 14 16 18 17 15 13 10 8 9 7 5 4 4 5 5 8 11 13 15 14
7 7 5 7 8 9 6 6 10 7 7 4 10 7 7 5 7 8 8 10 12 14 16 16 17 18 18 18 16 14 14 13 10 9 5 5 3 4 3 5 6 11 15 16
6 4 6 8 6 2 7 3 9 13 12 8 7 5 8 8 8 10 12 13 15 17 18 19 20 19 18 17 16 17 16 13 13 11 8 6 1 2 7 8 8 11 16 21
4 7 7 6 3 1 3 11 10 8 7 6 10 8 10 9 12 13 15 16 17 18 19 19 19 20 19 21 19 19 19 17 14 10 4 2 1 4 6 8 13 15 17 18
6 3 2 3 5 2 13 11 7 3 3 7 3 7 7 11 16 16 19 18 19 19 19 20 19 19 18 17 21 20 17 15 11 6 4 3 8 10 10 13 15 16 18 19
7 4 5 6 11 8 7 11 5 6 6 8 1 6 12 7 8 20 22 22 22 22 22 22 21 20 18 18 19 16 14 11 8 3 3 8 11 11 10 14 14 19 18 19
10 6 6 3 2 6 9 7 4 5 6 6 3 7 3 1 11 19 24 24 24 23 22 21 21 19 18 19 17 16 13 8 4 1 5 8 8 10 11 16 19 16 17 18
5 4 4 2 2 3 5 7 3 2 0 4 6 6 9 6 10 18 25 24 25 25 24 22 20 19 19 19 18 15 12 6 3 3 8 6 9 15 18 19 19 18 18 18
4 4 2 5 3 7 3 7 3 3 3 5 4 7 7 9 14 18 23 26 26 25 23 21 19 18 19 19 19 15 9 6 4 7 4 6 10 15 19 21 20 20 20 18
5 2 5 3 6 6 4 4 1 0 2 3 3 1 3 1 11 19 26 27 27 26 24 22 20 19 20 19 18 12 9 3 3 3 3 6 11 17 20 18 19 19 20 16
3 2 4 7 3 2 2 3 6 4 4 0 2 4 3 1 4 15 23 25 24 24 23 23 22 22 21 21 18 12 7 5 7 4 4 9 15 18 16 15 17 18 18 16
6 4 4 5 5 4 7 6 3 5 1 5 3 2 3 3 6 13 17 20 22 23 23 23 23 23 22 21 17 9 9 8 5 4 7 12 14 15 12 15 17 17 16 15
4 3 5 7 0 1 6 11 10 8 3 4 8 10 7 7 8 10 16 20 23 25 25 24 24 24 22 20 14 13 10 6 6 7 9 10 14 13 14 16 16 17 16 14
3 5 4 1 1 3 4 8 13 15 12 7 7 11 7 6 8 10 11 17 21 23 25 27 26 24 23 21 17 11 10 8 8 9 9 10 15 14 13 15 17 19 16 13
1 3 3 4 2 2 6 10 11 15 14 15 16 19 13 9 6 10 14 18 22 23 25 26 25 24 23 22 16 14 11 9 9 11 12 14 15 16 15 15 17 17 15 14
3 6 4 3 1 2 5 15 17 11 11 12 12 11 4 6 10 12 15 19 22 23 25 26 26 24 22 22 17 14 12 11 11 12 15 18 18 16 15 16 16 17 15 14
5 4 1 1 2 3 1 1 2 12 15 13 16 9 8 6 5 6 12 17 20 23 25 24 22 21 21 20 16 14 14 13 13 15 18 17 14 15 16 16 16 16 15 15
1 4 3 3 4 6 9 4 4 5 5 4 12 10 5 3 4 12 14 17 19 21 21 21 19 17 18 20 17 17 17 14 15 17 14 14 14 15 17 17 17 17 16 14
4 3 1 3 3 4 3 3 1 2 6 6 2 2 6 6 4 6 7 13 17 18 19 20 18 19 21 20 15 21 15 14 16 15 15 14 13 15 17 18 18 18 17 15
2 1 4 4 4 5 1 2 3 3 3 3 2 4 9 8 12 6 8 11 15 18 19 20 22 22 19 16 20 19 15 15 16 18 16 14 15 17 18 18 18 18 16 14
4 5 3 2 3 4 6 5 3 3 4 4 5 6 11 15 10 10 12 12 12 16 17 18 18 20 18 15 14 11 11 13 17 16 16 16 18 18 18 17 18 15 12 11
3 3 1 6 1 3 10 7 4 6 10 11 11 13 13 14 17 14 11 10 10 13 15 17 20 14 12 11 13 11 12 16 16 16 17 18 17 17 16 14 11 12 11 10
4 5 3 2 3 10 11 12 14 13 14 14 14 16 14 17 16 15 12 10 12 13 14 15 16 12 7 8 16 14 14 14 15 17 18 15 16 19 12 10 10 11 11 11
1 8 4 5 12 10 9 9 7 8 10 13 13 14 14 13 13 10 10 11 13 18 19 13 11 4 6 13 13 14 12 14 17 17 16 15 15 14 13 9 11 12 12 12
8 5 4 5 10 6 10 7 8 12 13 12 13 12 10 10 4 6 10 11 14 14 11 7 5 5 11 13 12 13 15 16 15 16 15 12 12 12 11 10 11 13 14 16

GFSCGP_850_spd_009.txt.gz
Wind_Speed
8 6 11 8 10 7 13 9 13 15 6 9 10 14 14 14 16 17 17 18 18 17 15 15 16 17 17 17 17 15 12 9 6 5 5 6 4 4 4 2 1 5 6 6
8 13 19 7 10 9 4 5 12 9 9 9 10 10 11 13 15 17 18 18 18 17 15 15 16 17 18 17 16 15 12 9 9 7 7 6 4 4 4 1 9 6 7 7
8 12 6 8 10 11 8 10 11 13 11 13 12 13 13 11 11 11 15 17 16 17 17 16 17 18 18 17 16 14 12 13 12 10 5 4 3 2 1 3 4 7 9 10
3 6 11 13 7 5 8 4 11 4 11 13 16 10 11 15 14 13 14 14 16 18 17 17 17 18 19 18 16 15 15 13 9 9 8 7 4 1 1 3 6 9 11 13
8 9 9 9 5 5 17 10 7 7 11 12 17 9 9 18 15 16 15 16 17 17 19 20 21 20 19 18 17 17 15 11 11 10 8 5 4 3 2 4 8 10 12 14
7 3 4 7 3 2 5 4 6 6 10 7 16 12 17 15 15 16 18 18 19 21 21 21 21 22 20 19 18 17 15 13 11 10 9 7 2 2 2 6 8 10 12 13
7 7 4 6 7 7 9 9 8 9 8 10 5 7 11 10 7 14 19 22 21 21 22 24 24 22 21 19 18 17 15 13 12 10 8 4 4 4 5 7 8 10 11 12
10 9 12 8 10 5 10 13 9 7 7 11 6 7 4 8 2 9 22 23 23 24 24 25 24 22 20 19 18 17 16 15 13 11 8 1 1 4 3 7 8 9 11 13
10 5 6 2 3 8 9 8 7 7 3 7 13 18 10 5 6 12 21 23 25 25 26 26 23 22 20 19 20 19 18 16 14 11 5 9 3 5 5 5 8 9 11 13
1 2 4 5 5 6 8 2 5 6 6 11 10 7 6 8 8 12 18 24 25 26 25 25 24 22 21 21 21 20 20 17 14 5 5 5 3 1 3 6 9 10 11 12
6 8 7 4 10 11 7 10 7 5 3 5 4 3 8 4 3 12 18 24 25 27 26 25 24 23 23 22 23 22 20 18 11 7 9 6 5 4 5 6 8 10 12 12
6 5 5 13 5 5 10 8 11 5 6 3 3 8 2 3 3 9 14 20 22 25 26 25 24 24 24 25 24 24 21 16 12 12 8 8 7 6 7 8 9 11 12 13
7 7 7 7 6 7 9 10 9 4 1 7 3 4 6 6 4 8 13 19 23 25 26 26 26 26 26 26 26 25 20 16 15 11 10 9 9 8 9 9 10 11 12 13
0 12 10 10 5 1 12 12 12 13 7 9 10 13 7 9 7 8 11 16 23 26 26 27 27 27 27 27 27 24 19 17 16 14 12 11 11 10 11 11 11 12 13 13
5 8 12 12 5 5 8 9 13 16 15 13 11 11 8 6 6 7 10 13 20 22 25 28 27 27 27 27 27 23 19 18 17 14 12 11 11 11 12 13 13 13 13 12
5 5 2 5 8 8 11 12 13 14 16 16 16 15 12 11 3 9 8 12 16 20 24 26 27 27 28 28 28 23 20 19 17 14 12 11 11 12 14 14 14 14 14 13
5 5 4 5 3 4 6 15 16 15 16 12 15 15 9 3 6 9 10 11 15 17 21 25 27 28 28 28 26 23 21 18 17 13 11 11 11 12 14 14 16 15 15 14
5 4 2 1 1 1 4 1 4 8 14 16 14 13 11 6 8 8 9 11 14 15 18 22 24 25 25 25 25 22 20 18 15 12 10 11 12 13 15 16 17 17 17 16
3 4 2 3 6 8 9 5 1 3 6 6 7 7 5 3 7 14 16 12 11 12 15 18 20 21 23 25 24 22 19 16 12 12 12 11 12 14 16 17 17 18 17 17
4 1 4 3 3 4 4 4 1 1 6 7 6 5 4 2 6 9 3 5 9 12 14 17 18 20 22 23 24 22 21 15 11 12 11 13 13 15 16 17 18 18 18 18
3 1 5 6 3 5 3 3 2 4 3 5 8 10 7 7 10 10 9 10 12 14 14 14 17 19 19 19 20 17 12 9 9 9 14 12 13 16 17 18 17 18 18 17
6 6 3 2 2 5 7 6 1 4 6 7 9 10 9 13 15 17 15 14 13 13 13 11 12 10 11 12 12 10 8 6 11 15 11 12 14 15 15 16 17 18 17 14
3 3 1 5 1 5 7 4 4 6 9 11 12 14 14 16 17 18 18 14 11 8 6 6 10 14 14 9 7 5 3 8 15 18 13 13 14 15 15 16 14 14 13 12
3 3 3 1 3 5 7 10 9 8 8 10 12 14 14 15 16 17 15 8 5 3 4 8 11 14 11 9 3 2 7 14 18 15 14 15 16 16 21 13 11 14 13 12
2 7 5 6 11 8 6 6 4 7 9 11 11 11 12 12 14 13 5 1 4 8 9 10 10 9 7 6 2 7 13 15 15 17 16 15 16 14 14 14 13 14 13 14
6 3 3 3 7 6 8 8 8 9 7 6 7 8 7 9 5 3 8 8 10 11 11 9 8 8 6 3 7 13 15 16 15 15 14 14 14 14 14 15 17 15 15 16

GFSCGP_850_spd_012.txt.gz
Wind_Speed
8 5 5 7 7 2 8 16 16 14 10 10 13 14 16 18 26 23 19 22 20 18 16 18 19 20 21 20 20 17 17 15 12 8 9 11 11 8 5 3 3 2 4 7
4 7 7 11 8 15 14 13 9 10 7 10 10 13 16 14 15 16 20 25 24 22 22 19 19 22 22 22 20 18 16 10 10 12 15 14 12 12 4 6 7 7 9 8
3 11 9 13 16 18 14 3 7 7 8 7 8 1 13 15 14 16 19 19 22 25 23 19 20 20 21 24 23 18 17 13 15 17 15 15 9 3 9 8 2 3 9 9
5 19 17 15 15 14 7 13 6 8 6 10 13 6 10 16 14 13 19 21 21 24 22 21 20 21 23 22 20 19 18 21 19 12 14 13 12 16 11 6 6 7 7 11
4 13 14 10 6 5 7 15 9 12 11 2 13 6 6 14 13 15 14 18 20 21 22 24 23 24 24 22 22 21 23 18 16 17 17 16 11 9 6 7 7 7 11 11
5 17 10 6 5 2 8 8 15 10 9 2 8 10 7 12 23 4 16 14 15 20 22 22 25 22 24 24 23 25 21 17 17 20 20 19 16 12 8 6 7 11 9 12
7 17 4 10 7 5 8 9 7 3 5 7 13 9 8 20 14 15 24 24 20 19 22 25 27 28 29 27 27 25 20 20 19 20 19 17 11 4 5 6 10 11 10 11
11 14 11 9 9 6 14 10 4 6 4 10 5 4 4 16 33 44 39 24 22 22 21 22 25 25 24 25 24 22 23 20 19 19 17 11 6 6 8 10 11 9 10 11
4 4 11 2 6 3 5 9 8 4 16 6 4 14 15 8 10 7 23 23 22 20 21 24 26 25 26 24 24 25 24 22 21 19 16 10 6 7 9 8 8 8 11 11
11 7 20 6 4 5 6 9 3 3 3 5 8 9 3 4 5 2 13 19 21 21 22 23 25 25 25 24 24 25 24 25 22 21 15 11 8 7 7 7 8 10 11 12
7 19 7 7 8 10 7 8 8 7 4 1 4 2 7 7 5 5 7 20 21 23 23 25 26 26 24 25 25 27 26 26 25 24 15 11 8 10 8 7 9 10 12 11
8 3 3 8 5 4 9 9 12 3 5 2 0 6 4 4 3 2 6 14 24 26 26 27 27 26 27 25 26 26 27 26 26 20 16 14 14 10 9 8 9 11 13 11
2 3 4 8 8 7 8 12 9 4 3 4 3 4 4 3 1 3 5 9 18 24 25 27 28 29 26 25 26 27 28 27 23 17 20 16 15 12 10 11 11 12 11 14
4 5 8 7 11 7 13 12 12 11 3 3 8 14 8 11 9 9 7 9 11 19 21 25 27 29 27 25 27 27 26 26 20 22 18 16 15 12 10 12 14 13 13 14
2 7 11 14 16 2 12 7 11 13 10 10 10 14 11 9 5 3 3 11 10 15 22 24 25 25 26 26 26 27 27 26 24 21 17 15 15 14 14 12 15 15 15 17
4 2 4 3 10 14 12 14 13 14 12 13 14 13 9 11 11 9 7 7 6 12 16 15 17 18 22 23 27 27 27 25 25 21 19 15 12 11 10 15 20 17 16 14
7 3 2 2 5 7 5 8 15 15 14 10 10 9 7 2 1 8 7 9 7 12 14 14 14 18 20 23 26 28 28 25 23 21 18 14 12 10 19 15 15 15 17 18
4 3 2 1 1 1 9 1 5 5 9 11 12 9 6 14 12 8 11 11 11 6 8 10 13 17 21 22 23 26 24 24 20 18 15 14 11 12 11 15 16 17 18 18
6 4 1 2 4 7 11 2 2 1 3 11 9 11 13 12 10 8 15 8 7 7 7 10 12 16 18 20 22 24 24 20 17 16 13 11 9 10 18 16 15 17 20 20
3 4 1 3 2 4 1 4 3 1 3 9 10 9 9 8 3 4 12 10 10 12 15 15 14 14 17 17 19 20 19 13 15 10 9 6 13 15 16 18 18 18 19 19
3 1 4 3 2 5 2 4 2 2 3 6 6 9 10 5 8 14 14 14 12 14 15 15 10 8 10 12 15 12 13 14 12 9 9 10 10 18 16 19 19 20 20 18
5 5 3 1 2 6 5 5 3 5 4 9 8 8 9 10 11 14 14 15 10 10 14 6 4 4 6 10 13 17 13 10 10 8 6 8 16 15 16 20 21 17 17 14
2 4 2 7 3 5 7 4 3 2 4 6 7 8 10 11 13 13 14 15 7 7 4 2 5 8 11 12 11 14 12 7 3 5 9 17 19 20 18 19 20 13 11 12
4 4 1 2 3 7 10 5 7 1 3 6 9 11 9 10 10 13 13 6 4 7 9 9 7 6 7 7 7 5 5 2 4 12 17 18 19 16 17 16 18 13 12 12
1 9 7 6 9 9 1 10 9 6 6 6 7 9 9 9 9 8 7 12 13 10 11 10 7 4 4 2 3 1 1 6 14 16 17 16 15 15 15 14 17 23 17 18
8 4 3 3 8 4 8 9 7 8 10 9 8 9 13 11 11 6 14 11 6 4 1 2 0 3 3 2 3 4 10 13 15 15 15 15 15 17 17 16 15 19 25 21

GFSCGP_850_spd_015.txt.gz
Wind_Speed
7 2 5 9 2 6 4 2 7 8 10 6 8 10 11 15 22 24 11 3 15 27 28 25 26 27 22 23 29 25 25 25 24 13 9 16 16 12 8 6 8 4 3 5
0 4 7 1 8 7 9 7 10 9 6 5 2 7 12 14 13 28 27 36 31 30 31 28 31 30 29 28 26 22 21 23 20 14 12 15 14 10 8 7 6 5 2 5
3 4 6 4 13 6 4 6 3 5 3 3 5 5 3 3 13 20 36 37 36 35 36 31 33 33 30 30 29 22 19 19 22 22 21 23 18 13 13 11 8 5 7 10
5 6 6 8 11 8 3 4 6 3 5 2 5 1 5 5 9 6 33 38 38 36 35 33 30 33 32 29 26 22 20 24 20 29 24 27 24 21 19 17 13 10 11 14
6 2 6 10 13 6 6 7 2 2 4 7 4 4 5 1 12 13 8 18 36 38 40 35 31 27 25 29 28 25 26 27 28 25 25 26 24 25 25 20 14 9 11 14
7 7 3 4 6 6 2 2 3 3 3 3 7 6 4 10 18 9 3 13 13 36 35 31 30 27 23 25 26 28 31 31 29 26 25 27 29 29 24 17 11 10 15 14
4 5 5 7 3 3 1 3 3 4 5 3 13 4 10 12 15 12 15 22 13 29 30 33 30 30 29 30 27 31 33 34 31 30 29 28 26 23 19 12 10 13 13 12
4 5 6 3 5 6 3 6 5 5 1 5 4 4 6 15 27 27 31 24 22 22 27 26 28 27 33 32 34 31 34 33 31 29 28 26 24 19 14 10 11 12 10 11
4 1 7 14 10 4 3 1 5 6 4 2 4 9 6 9 7 11 20 19 18 22 22 24 28 30 33 35 34 34 32 30 29 28 27 25 22 16 11 10 9 8 9 11
6 3 1 13 17 9 4 3 5 3 5 4 3 4 1 4 7 11 8 16 26 24 24 24 27 34 35 36 33 26 25 28 27 25 23 20 16 13 11 10 8 9 13 11
6 5 5 6 9 9 1 3 3 3 5 4 1 5 3 5 3 11 17 30 33 31 29 28 31 33 32 30 29 26 26 26 26 26 23 21 15 12 10 8 11 10 12 12
7 5 3 11 14 7 6 4 6 5 4 2 4 5 3 6 3 6 14 31 36 36 34 32 33 34 33 33 32 29 31 29 29 28 23 19 15 13 11 10 11 14 13 15
2 1 2 6 5 6 4 5 4 4 3 5 5 5 2 5 4 2 5 6 31 35 34 34 35 35 36 36 34 32 32 32 31 30 26 21 18 16 12 11 15 14 17 18
5 2 6 6 7 3 3 5 6 5 4 3 5 5 11 6 8 9 7 5 9 32 34 35 38 40 39 39 38 35 33 34 31 29 25 21 18 16 15 16 14 15 19 19
5 4 1 3 5 5 1 5 7 5 6 7 7 6 10 1 3 5 14 8 5 6 9 23 35 39 37 37 33 30 30 33 31 28 22 20 13 14 17 15 12 16 21 20
1 2 2 2 5 7 4 8 7 6 3 2 5 6 3 11 15 13 12 13 5 2 6 11 10 29 34 35 32 29 29 30 32 29 24 17 15 23 16 13 10 13 15 20
5 5 3 3 4 6 6 7 5 6 5 3 5 7 5 8 11 15 13 11 12 5 3 7 7 4 19 28 26 27 30 31 32 29 23 22 23 21 17 13 14 14 16 18
5 4 3 2 3 2 8 4 3 4 3 7 9 10 11 11 22 27 23 19 17 12 9 8 7 7 7 13 18 23 28 30 28 25 25 24 22 18 13 11 12 13 18 22
3 4 2 4 4 5 8 3 3 3 4 5 8 7 11 10 14 17 15 13 12 11 12 13 10 10 12 18 19 21 26 27 27 26 25 19 15 12 8 4 13 17 26 20
6 5 4 2 4 6 6 2 4 4 2 6 13 9 10 10 4 3 12 13 15 13 11 11 12 9 8 13 15 19 24 24 23 21 14 10 8 4 4 9 21 22 20 23
3 3 5 2 2 7 6 6 2 6 6 7 9 10 12 4 2 7 12 11 5 4 6 9 11 7 1 9 18 26 27 25 22 14 15 12 5 6 7 16 21 22 24 26
6 5 3 3 2 5 7 4 6 6 11 10 9 8 8 7 8 11 13 10 4 3 3 2 3 4 11 14 16 22 22 18 18 14 5 3 8 7 15 19 22 22 21 17
1 6 5 6 5 8 6 12 12 10 9 6 7 9 7 10 11 12 10 6 7 5 4 2 2 3 7 8 8 12 10 6 5 8 14 9 7 16 19 19 18 17 16 14
2 4 4 5 2 6 13 7 12 16 15 10 11 8 7 11 8 9 7 7 6 5 4 4 5 7 6 5 5 6 9 13 16 8 6 11 17 16 15 16 14 16 18 20
5 5 5 2 4 19 18 18 16 16 13 12 10 7 10 5 11 6 7 7 6 6 7 7 8 8 6 6 6 4 3 3 5 10 13 14 15 15 15 16 17 17 18 20
5 6 4 4 3 17 10 15 10 12 13 12 9 9 10 8 10 6 8 8 7 7 8 9 10 8 5 4 5 9 12 14 15 15 15 15 15 16 17 19 19 15 18 20

GFSCGP_850_spd_018.txt.gz
Wind_Speed
2 4 3 6 8 4 5 2 5 5 4 4 8 10 9 19 26 20 25 31 31 39 35 35 35 30 25 30 37 38 34 32 31 30 20 13 13 14 14 13 12 10 8 5
3 4 6 7 1 5 4 6 8 7 9 4 7 9 3 6 22 29 29 30 38 39 40 41 38 35 32 30 34 32 30 30 31 28 16 13 17 16 13 13 12 11 8 4
6 6 1 4 5 3 5 3 4 5 4 6 8 4 3 5 5 12 23 33 37 39 46 44 45 42 36 33 31 30 30 32 29 23 18 19 18 18 18 18 17 14 10 7
4 2 5 2 4 3 6 12 6 2 4 4 2 3 5 5 7 14 28 29 31 37 42 45 43 42 39 35 29 29 31 32 31 26 25 25 25 25 22 21 17 15 8 8
6 4 4 4 6 4 10 7 2 1 5 4 0 5 7 0 8 12 19 37 37 39 42 46 47 44 42 37 33 28 28 28 32 31 29 30 28 26 25 23 18 13 10 11
4 2 5 7 7 8 3 2 5 5 4 3 7 5 5 5 14 9 14 32 43 43 33 41 43 43 42 35 31 33 30 28 31 33 30 35 34 32 31 26 19 16 15 15
1 4 3 2 0 3 4 5 3 3 4 4 4 2 8 8 11 14 12 20 36 41 38 42 41 40 40 35 33 34 31 32 31 29 31 33 37 34 30 23 19 17 13 10
4 4 3 4 4 3 5 7 5 4 3 4 3 5 6 7 16 26 20 12 19 40 43 41 36 36 37 33 34 37 35 34 34 33 31 29 30 27 23 19 17 14 11 9
5 4 5 5 3 5 3 2 3 6 3 1 3 5 8 7 7 2 7 13 16 26 36 38 38 35 32 35 38 35 31 37 35 33 29 27 27 25 22 20 16 11 7 9
6 3 2 4 4 1 3 3 3 3 4 2 4 5 4 2 3 5 5 12 16 22 32 36 36 36 35 36 35 31 30 33 36 30 27 25 26 24 21 16 11 8 10 10
5 3 5 3 4 9 4 3 1 4 4 4 1 5 5 5 7 8 15 23 22 28 34 35 34 34 32 33 33 33 36 36 34 33 30 28 27 25 21 17 14 13 8 12
8 5 4 9 7 7 2 6 5 5 4 0 4 5 4 8 5 11 15 22 25 32 37 34 31 31 31 33 37 40 40 38 37 36 33 30 27 25 23 19 16 10 9 11
7 2 2 6 3 3 6 6 4 5 4 6 5 5 4 5 6 8 13 22 28 33 37 36 34 35 37 39 41 42 42 41 38 34 32 30 28 26 25 20 17 11 11 10
10 4 7 7 7 4 3 3 5 5 4 4 6 5 7 7 9 10 9 8 24 34 36 35 36 39 41 43 45 46 43 40 34 32 32 32 30 27 23 20 16 14 11 9
4 5 4 4 2 2 0 2 1 5 5 6 9 8 9 6 5 9 12 6 6 12 24 29 28 34 42 45 47 45 42 36 33 33 35 34 29 23 19 17 17 17 8 8
2 3 1 4 3 1 3 5 4 4 3 5 5 6 1 10 13 17 14 13 13 12 9 6 3 6 28 41 42 42 38 35 36 36 36 32 26 21 24 25 24 15 10 2
4 6 3 5 4 5 5 7 6 5 3 5 5 4 4 7 10 10 13 14 12 12 13 11 10 7 5 14 30 34 34 34 36 36 33 29 28 29 31 28 23 17 12 16
6 4 3 3 3 2 7 4 5 8 4 7 8 6 12 15 20 20 18 19 18 14 9 7 6 7 7 7 13 23 27 33 35 33 31 31 30 32 29 22 13 7 17 12
2 5 2 4 3 4 6 3 6 5 1 3 7 6 15 20 19 13 11 11 9 6 5 6 7 7 9 11 16 23 31 33 35 36 33 32 34 29 21 13 9 14 11 20
7 5 4 2 4 6 7 4 4 7 2 6 10 5 7 7 3 3 5 3 3 3 6 7 9 11 13 12 15 25 26 30 32 29 30 25 15 7 4 13 19 11 17 21
3 3 5 2 2 7 8 6 3 6 6 10 16 14 9 4 5 8 12 11 7 5 6 6 8 11 9 8 12 20 25 28 26 21 15 13 9 9 18 17 6 16 19 21
6 6 3 3 3 6 8 4 7 7 13 17 13 13 18 18 15 12 10 9 7 5 5 5 5 7 6 4 11 18 21 18 15 12 10 11 17 17 8 9 15 18 20 21
1 6 6 8 6 6 8 6 22 21 18 13 16 14 15 13 11 10 10 9 8 9 10 11 11 12 12 11 7 7 6 2 8 16 19 21 10 6 12 17 17 16 17 19
2 6 4 4 3 2 7 14 18 20 20 20 17 17 12 15 13 12 10 10 10 10 10 10 9 9 9 7 4 1 2 5 8 8 7 8 12 14 16 16 16 17 18 20
6 8 6 3 2 18 14 21 24 24 22 20 18 15 16 15 15 13 13 11 10 9 8 7 8 8 8 8 9 9 8 8 9 11 12 14 15 16 16 17 18 19 20 21
7 7 5 5 17 10 9 17 21 22 19 16 15 17 16 13 15 12 12 10 9 11 11 10 10 9 10 8 8 9 9 11 13 15 15 15 17 18 20 22 24 21 23 23

GFSCGP_850_spd_021.txt.gz
Wind_Speed
1 4 4 6 6 3 5 1 2 4 6 3 7 7 13 20 19 21 27 31 32 33 31 31 30 28 29 28 27 28 29 28 30 31 29 25 18 16 17 18 15 15 14 10
3 3 8 5 1 3 1 4 5 5 3 5 7 3 1 9 14 25 31 33 37 37 35 36 35 32 31 29 31 32 31 31 32 30 28 24 17 18 19 18 17 15 13 10
5 5 3 2 3 4 4 1 3 4 3 5 7 4 3 3 4 16 27 36 37 39 41 40 39 38 36 38 33 36 38 35 34 32 29 22 18 21 22 21 20 17 15 13
5 5 3 1 1 4 5 2 4 3 1 3 3 3 6 6 10 7 21 25 37 40 39 40 42 42 39 40 33 33 36 38 37 34 32 27 25 26 26 23 22 19 15 13
8 3 4 4 7 4 8 5 4 1 3 5 1 4 6 6 11 15 21 31 37 41 43 43 46 45 42 40 38 36 37 38 36 34 32 30 30 28 26 25 23 20 19 17
6 3 6 8 3 5 2 2 7 5 3 2 3 5 4 6 19 21 24 29 39 40 43 43 45 44 44 42 40 40 39 37 35 35 35 36 35 30 30 28 26 24 21 18
2 2 3 4 1 1 3 5 2 2 3 4 2 2 8 8 10 13 16 32 36 38 43 38 42 45 46 46 44 42 39 38 36 39 39 36 36 33 33 31 30 26 21 17
5 4 3 2 3 5 3 6 5 3 3 3 3 4 6 5 12 18 20 23 28 30 38 40 43 44 48 44 45 43 41 37 36 37 39 39 37 39 36 33 28 24 21 17
5 5 0 2 4 5 1 2 3 6 3 3 3 6 10 7 2 3 8 12 17 22 28 38 40 42 45 44 46 44 39 41 36 38 36 36 34 38 38 33 29 26 22 16
7 1 1 4 2 2 4 5 2 3 2 3 4 4 5 7 6 6 5 13 15 15 22 31 38 39 41 42 43 45 36 33 29 34 35 35 33 33 36 34 33 27 22 20
6 4 4 2 5 8 0 2 4 4 4 4 1 5 7 7 4 7 7 12 16 18 21 27 31 35 39 36 39 42 42 40 35 34 37 38 36 34 35 32 28 24 20 15
7 6 4 8 3 2 4 5 5 4 4 2 3 6 5 8 5 8 12 12 9 20 23 25 32 38 37 37 38 39 38 34 37 37 36 37 33 31 33 31 29 27 21 15
8 1 2 7 5 1 2 4 5 4 3 6 5 6 1 5 7 10 11 14 16 12 21 28 32 36 38 38 38 37 37 34 39 40 38 34 30 31 33 30 30 26 21 15
13 4 8 9 8 4 3 5 5 5 3 4 6 6 6 7 8 9 13 12 11 13 19 26 32 35 36 36 39 37 39 41 38 42 37 33 32 30 30 30 28 25 22 15
4 6 5 3 4 4 4 5 6 7 6 6 8 8 8 4 7 10 11 5 2 5 11 19 27 29 31 34 35 36 39 41 42 38 38 35 30 30 31 28 26 20 18 13
2 3 4 3 2 3 4 7 7 5 3 7 4 6 5 2 8 13 8 11 14 13 10 4 4 11 17 25 33 38 39 40 40 36 34 34 33 31 30 27 22 22 16 13
5 7 4 4 2 2 6 8 8 6 5 6 6 8 5 4 6 13 20 18 16 13 10 7 5 4 2 4 8 15 24 33 34 31 34 36 35 32 29 28 28 23 18 14
6 5 3 3 3 2 7 2 4 5 3 4 4 6 5 10 17 18 17 19 16 13 11 8 7 8 8 8 8 11 17 24 29 33 34 32 30 30 31 30 26 21 15 13
3 5 3 4 4 4 5 4 7 6 4 2 8 8 13 18 19 13 9 8 7 6 5 6 8 9 11 12 13 15 18 23 27 27 27 28 30 28 23 13 9 11 16 25
6 6 4 3 4 8 8 4 5 6 2 4 7 9 11 4 3 3 4 5 3 2 2 3 5 7 10 12 12 13 14 18 20 22 22 21 23 23 23 22 16 20 27 23
3 3 5 3 3 7 7 5 10 5 7 17 18 18 14 4 5 10 11 10 7 4 1 1 3 5 6 7 8 7 7 10 13 16 18 17 15 19 17 20 26 27 15 18
7 7 4 3 2 6 8 6 8 7 11 24 19 17 14 16 18 18 15 11 8 6 5 5 4 5 5 6 4 4 7 11 10 10 10 16 16 19 23 19 12 12 20 24
2 6 6 8 6 4 8 2 8 25 29 22 22 21 20 25 23 19 16 14 12 10 9 10 9 11 13 12 10 11 10 5 1 5 12 12 10 6 9 14 18 20 21 22
3 5 4 4 2 3 6 12 25 24 25 23 22 25 26 26 23 21 18 16 14 12 11 9 8 9 11 9 7 7 5 4 4 5 7 9 11 13 15 17 19 20 21 22
5 10 6 1 1 5 7 17 22 22 21 23 23 24 23 22 22 20 19 16 13 11 10 9 9 10 11 10 8 6 4 4 5 7 9 10 11 14 16 17 19 21 24 25
7 7 5 6 17 7 11 19 21 25 23 22 23 23 19 17 21 19 18 14 13 13 12 11 12 11 9 5 4 5 6 9 11 13 14 16 18 20 22 25 29 26 28 28

GFSCGP_850_spd_027.txt.gz
Wind_Speed
2 2 6 9 6 3 2 1 1 1 1 3 7 5 14 19 16 14 15 17 21 26 22 23 25 25 24 26 25 24 23 21 24 27 27 27 25 24 23 21 20 17 17 16
2 5 5 2 2 5 3 1 0 2 4 4 2 4 5 15 19 20 18 18 23 26 25 26 26 29 31 30 29 28 26 26 27 28 26 25 25 26 24 22 20 19 19 18
4 4 5 5 2 5 4 3 3 2 2 3 3 2 5 8 14 13 19 20 22 25 27 28 30 31 33 33 31 31 31 30 30 30 28 26 25 26 28 24 22 21 21 21
5 1 4 4 4 4 3 8 2 4 2 2 1 3 4 7 10 13 20 23 28 29 31 29 31 34 35 34 33 33 33 34 34 32 32 31 31 31 30 25 22 23 23 24
5 6 4 3 6 7 5 4 2 3 3 1 1 1 3 1 10 17 25 26 29 31 33 33 35 35 35 33 33 34 34 35 35 34 33 31 32 31 25 26 26 26 26 26
4 2 5 5 2 5 6 2 6 3 2 1 2 3 3 4 10 10 21 25 34 35 38 37 35 35 38 35 34 34 35 35 35 34 33 32 33 31 30 30 31 29 28 29
1 3 1 3 2 1 3 3 2 1 1 3 2 2 7 7 6 9 13 21 33 40 40 41 41 39 38 38 37 36 35 36 35 34 34 32 35 34 34 36 33 31 31 28
6 3 6 4 5 6 3 5 4 3 3 2 1 4 4 4 7 13 14 16 18 28 37 44 44 42 42 40 38 38 38 38 37 36 33 34 36 36 37 37 37 35 33 29
5 4 2 2 2 2 4 3 1 6 2 1 2 4 9 2 3 5 6 5 7 14 24 30 35 43 42 41 38 38 38 39 38 37 35 31 36 38 36 35 37 37 35 32
7 2 1 0 3 5 2 7 3 1 4 3 2 3 3 5 5 3 6 8 6 5 9 17 23 29 34 40 35 35 35 36 37 38 38 37 34 36 31 32 35 39 38 33
4 3 1 2 4 8 3 2 3 4 2 3 3 4 6 6 4 5 7 7 6 4 6 8 13 17 19 24 27 27 29 32 34 37 35 36 34 30 29 30 35 38 37 35
6 5 4 6 1 1 3 4 4 3 4 1 1 5 3 9 6 8 10 5 2 2 5 4 6 9 10 11 14 20 23 24 25 28 32 31 31 33 30 30 32 30 30 34
7 1 2 2 1 2 3 4 4 4 3 6 4 5 1 5 7 8 13 8 7 5 5 6 7 9 11 13 16 17 17 17 19 22 26 30 31 30 29 28 27 28 29 31
15 4 6 10 6 5 4 6 6 5 3 4 6 6 8 8 7 12 10 10 8 6 3 4 6 7 8 8 9 11 13 15 18 21 23 27 28 29 29 23 21 24 28 30
5 7 6 5 5 6 6 5 10 10 7 7 8 9 9 7 6 6 8 4 2 5 6 7 6 4 3 1 1 3 5 8 11 13 15 18 20 21 20 20 22 25 27 27
1 5 5 3 3 6 5 7 10 10 2 8 7 8 10 5 4 1 2 9 16 18 20 19 19 16 13 10 7 5 2 4 6 8 9 11 13 15 17 20 23 25 24 25
4 7 4 4 2 3 5 7 10 5 5 5 8 11 5 5 5 8 12 15 19 20 21 20 18 15 12 10 8 5 4 6 8 10 11 11 11 12 15 19 22 21 22 27
6 4 2 3 2 5 3 2 3 11 5 9 5 5 5 4 8 12 15 21 20 18 18 17 16 13 11 10 8 8 7 8 8 8 8 8 7 8 12 15 16 17 22 23
3 5 3 5 5 3 2 5 7 7 14 10 13 6 8 17 14 8 14 16 18 17 15 14 12 10 9 8 10 10 10 8 6 5 5 4 2 2 4 7 9 14 23 26
4 3 4 3 5 9 5 4 8 4 12 8 12 11 20 16 7 6 15 15 16 15 14 12 11 9 8 8 7 6 8 7 9 9 8 7 6 3 2 2 6 11 14 17
3 2 6 3 3 6 6 5 12 6 14 13 22 23 27 10 4 23 20 17 15 14 14 12 11 8 8 8 6 7 10 13 15 14 13 11 7 3 1 4 9 12 15 16
7 7 4 3 2 8 12 8 10 8 5 15 20 28 24 15 20 27 22 19 17 15 14 12 10 12 13 12 9 14 16 15 13 10 7 4 1 3 6 6 5 7 11 15
4 6 6 9 7 2 25 8 23 7 8 11 25 32 32 25 28 26 24 21 19 17 17 17 15 17 16 14 12 13 14 9 6 4 3 3 3 4 6 7 9 11 14 18
3 4 3 3 5 7 14 23 11 16 13 11 27 37 30 28 29 28 26 24 22 20 19 17 16 16 16 12 10 10 10 7 5 4 3 4 6 8 10 12 14 15 18 20
3 8 6 3 5 3 16 20 21 16 15 15 24 31 30 28 30 29 28 26 24 22 19 17 15 15 14 12 10 10 8 5 3 4 6 7 9 11 13 15 16 18 18 20
7 6 5 6 17 10 12 28 22 19 18 21 28 28 27 28 31 30 28 26 24 22 20 18 16 14 15 11 9 7 4 3 4 6 8 11 13 15 17 18 19 20 21 22

GFSCGP_850_spd_030.txt.gz
Wind_Speed
10 10 11 12 7 2 3 4 5 1 4 5 6 5 10 14 15 14 15 17 17 18 16 17 19 21 22 25 24 23 23 21 19 18 19 19 21 19 21 20 22 21 18 16
6 12 6 4 6 8 8 6 4 4 2 5 6 8 6 15 16 16 16 16 18 18 19 20 20 22 22 23 24 24 24 22 22 20 20 20 20 20 21 26 24 23 22 21
13 4 5 7 7 9 8 8 4 3 2 4 5 8 11 12 15 15 17 17 18 20 21 22 23 24 25 26 26 25 24 22 22 22 21 19 20 24 26 28 27 25 24 24
11 4 7 7 7 9 10 9 3 4 5 4 4 4 7 10 15 15 19 21 21 22 23 24 26 27 28 28 27 26 26 25 24 24 23 24 24 21 26 31 26 27 24 25
9 10 10 9 8 9 5 8 4 4 3 4 6 6 7 5 12 17 23 24 25 24 25 26 27 27 26 27 28 27 27 26 26 27 28 25 25 21 19 26 23 27 26 27
10 3 5 6 3 8 8 7 4 3 2 6 4 6 5 7 8 6 14 25 28 28 30 29 28 26 27 27 28 28 29 28 28 29 32 32 27 24 26 29 29 30 31 30
16 13 6 6 7 6 13 10 9 7 6 7 3 5 9 4 4 7 7 10 22 29 29 30 30 31 30 31 30 29 30 31 30 32 35 37 36 35 34 35 34 32 32 33
15 15 13 10 12 9 17 16 8 6 6 4 4 6 3 0 2 9 11 11 12 17 26 32 33 33 31 31 31 31 32 32 30 33 36 36 36 36 35 36 37 35 34 35
16 17 5 5 4 7 7 11 3 3 1 4 5 5 10 5 3 3 3 3 5 9 16 22 25 29 29 29 31 32 32 32 31 32 32 33 35 36 40 35 36 32 32 35
9 12 7 7 6 4 7 11 6 5 6 7 6 5 4 4 1 1 3 3 2 2 4 9 14 18 21 24 25 26 27 29 29 26 28 28 31 32 30 26 32 33 34 35
13 11 7 7 11 13 5 6 3 3 3 6 5 5 2 5 4 4 2 3 5 4 1 1 5 8 12 16 19 20 23 25 23 23 22 23 26 31 27 29 35 35 33 34
20 11 12 12 3 6 9 12 13 7 8 1 3 7 5 8 6 6 7 4 4 5 2 1 3 7 9 10 12 14 15 16 17 16 17 19 24 26 28 28 30 30 31 31
14 12 12 14 7 4 9 11 11 4 0 9 6 5 4 4 7 8 8 6 7 5 3 4 5 6 9 10 10 10 11 11 12 16 16 17 19 23 25 26 28 26 25 27
25 15 19 13 15 12 12 13 14 14 9 11 11 14 7 10 11 12 7 6 7 4 4 6 7 6 7 7 7 7 8 9 10 10 10 13 14 16 17 19 20 20 20 22
13 19 16 18 17 18 19 16 18 18 16 15 14 15 11 11 12 6 2 3 4 5 5 7 8 9 8 8 8 7 7 6 5 4 5 7 8 9 10 11 12 15 15 17
7 10 12 16 16 13 16 18 19 19 20 14 16 15 12 14 8 8 4 7 9 10 11 11 12 12 12 12 10 9 8 6 4 3 4 5 6 5 6 7 8 10 11 13
7 8 7 14 7 7 6 17 17 18 17 16 16 16 13 9 12 10 8 11 15 16 16 15 15 15 16 15 13 10 7 4 2 0 1 1 2 2 3 4 5 8 10 13
6 8 5 5 5 7 9 2 17 19 18 16 15 13 11 10 4 7 9 14 17 17 16 16 16 16 15 13 11 9 7 5 4 3 3 3 3 2 1 2 3 4 6 10
10 7 4 5 9 11 4 6 8 12 16 17 19 16 8 9 12 8 12 14 15 16 16 16 16 15 14 12 10 8 7 7 7 7 8 8 9 9 10 10 9 6 1 7
6 6 7 4 8 9 10 13 13 5 13 13 12 14 13 18 9 7 18 17 17 15 15 16 16 14 12 11 10 10 11 10 11 11 12 13 13 12 10 7 4 2 2 5
5 4 11 10 6 7 4 9 14 9 13 1 9 12 19 15 8 24 23 19 17 17 18 16 15 14 13 13 11 12 13 13 13 14 13 12 11 8 6 1 3 5 7 9
9 10 5 7 6 10 14 11 11 13 4 5 9 14 21 13 19 26 24 22 20 20 18 16 16 16 15 14 12 14 13 13 12 10 8 6 5 4 4 3 2 3 5 7
5 6 4 9 7 4 28 19 22 9 8 7 11 14 21 22 25 27 26 23 21 20 18 17 17 17 16 14 12 13 13 11 9 8 7 6 5 3 2 2 4 4 6 8
8 5 4 2 11 11 14 20 10 14 10 8 10 19 26 28 29 28 26 24 23 21 20 20 19 17 16 14 13 12 12 11 9 7 6 4 2 1 2 4 6 6 9 10
6 10 10 10 9 3 13 20 21 14 12 11 14 22 28 29 29 29 27 26 24 23 22 20 19 18 17 15 14 14 13 11 8 6 4 2 1 2 4 6 7 8 11 13
9 7 7 7 12 11 16 11 20 20 21 17 21 24 25 28 31 29 27 26 26 25 22 21 20 19 18 17 16 15 12 10 7 4 2 0 2 4 4 5 5 13 11 12

GFSCGP_850_spd_033.txt.gz
Wind_Speed
17 13 14 18 15 16 10 8 12 10 14 8 8 14 5 15 12 12 14 16 15 15 16 19 19 21 21 23 24 24 24 23 20 19 19 19 19 19 21 20 17 17 16 16
13 14 16 17 8 8 11 12 13 5 4 5 9 11 15 13 13 16 16 18 18 17 19 20 22 23 24 24 23 24 23 22 22 19 19 20 20 20 20 19 18 20 18 18
16 8 11 7 12 13 13 16 3 7 4 10 11 12 10 10 14 15 16 17 19 21 23 23 25 26 26 27 28 27 25 24 23 22 20 19 19 20 20 19 18 20 23 22
16 12 9 12 16 15 15 12 5 4 8 5 10 1 12 14 14 15 18 17 19 22 24 25 27 28 29 28 27 27 26 26 25 25 23 24 23 23 22 21 22 24 27 25
17 16 14 15 15 12 8 10 7 12 12 7 8 8 6 9 12 16 19 22 22 23 25 27 29 30 30 30 30 29 28 28 27 27 27 25 25 23 19 20 21 24 21 25
19 18 17 16 14 7 6 6 9 13 12 9 10 13 7 10 12 11 21 25 25 26 27 27 28 27 29 29 30 30 29 30 29 28 28 29 27 25 23 24 21 20 25 26
22 15 14 12 10 12 11 12 10 8 9 10 6 5 9 9 4 3 2 11 26 28 29 28 29 29 29 30 30 30 31 31 31 31 31 31 30 26 25 24 25 23 27 29
18 20 22 15 19 15 18 17 12 5 9 9 4 7 11 4 6 1 7 9 11 21 30 31 31 31 31 31 31 31 31 31 31 33 35 32 30 30 30 31 31 33 31 28
19 22 23 18 18 17 12 16 21 19 7 6 10 8 5 10 6 6 5 3 8 13 16 27 31 32 32 32 32 34 32 30 30 32 30 32 34 34 29 32 34 34 31 26
16 16 14 13 10 11 12 5 13 10 12 11 14 13 4 8 8 5 6 5 1 3 5 12 20 26 30 31 31 32 31 30 29 31 31 30 27 25 29 32 34 33 35 32
20 11 16 13 16 18 10 12 9 8 13 10 10 10 2 4 3 4 5 4 3 1 2 4 7 14 20 23 26 27 28 28 27 26 25 26 26 27 29 34 31 28 31 32
26 13 14 17 17 21 17 17 18 10 13 12 10 11 5 5 8 1 7 7 3 2 2 4 6 9 13 17 20 22 23 23 23 21 21 23 23 28 30 30 25 27 28 24
20 18 12 18 15 10 12 16 15 12 13 6 10 9 6 4 6 9 9 9 9 6 5 6 7 9 11 13 15 16 17 16 16 17 17 17 21 24 26 22 18 20 22 23
24 17 21 16 17 15 18 18 18 16 10 12 15 15 12 10 11 11 11 13 10 8 7 9 9 10 12 11 12 13 13 13 13 13 12 13 12 12 13 14 17 17 18 20
15 21 17 24 20 20 22 24 22 20 18 18 17 18 16 13 8 9 8 4 6 9 9 9 11 11 11 12 12 12 12 12 11 10 9 9 7 8 7 7 7 7 10 11
16 15 20 22 22 21 19 18 20 22 23 21 21 21 16 17 9 6 9 6 9 9 9 10 12 12 11 12 12 12 12 11 10 11 10 8 7 6 6 7 10 11 11 11
14 12 13 17 20 19 19 17 19 19 21 17 18 20 16 17 12 12 14 11 11 11 14 14 14 14 15 15 14 13 13 12 12 10 8 6 6 5 4 5 4 4 3 3
8 12 8 10 4 14 10 16 22 22 20 19 19 18 16 13 13 7 7 13 14 16 17 17 17 17 16 16 16 15 13 12 11 9 8 7 7 6 7 6 5 4 4 3
11 8 6 9 11 13 18 13 12 15 17 17 17 16 17 11 4 6 9 14 18 19 19 19 18 17 17 16 15 15 14 13 12 12 11 11 11 12 11 12 10 9 8 7
12 9 8 7 15 18 12 16 15 14 14 13 14 13 8 7 8 10 20 21 21 20 20 20 18 17 17 16 15 15 15 14 14 14 14 14 13 13 11 10 10 9 6 5
5 5 11 13 9 9 11 13 15 13 12 6 5 6 10 10 15 9 25 23 23 22 21 20 18 17 16 16 16 16 16 15 15 15 15 14 12 11 8 5 4 3 1 2
7 8 6 10 12 14 8 10 14 15 17 7 9 11 12 11 12 24 26 27 27 25 22 20 19 18 17 16 16 16 16 15 13 12 11 10 7 6 7 7 5 4 2 1
9 9 6 8 6 9 19 20 23 22 13 10 13 12 12 20 23 26 28 28 27 25 22 20 20 20 18 17 16 17 16 14 13 12 11 10 9 7 6 5 3 2 1 0
8 8 7 9 9 13 11 20 17 15 17 14 12 12 17 25 26 28 29 28 27 25 24 22 21 20 19 17 16 16 15 14 13 13 11 10 8 6 5 3 2 1 2 4
7 7 10 17 19 20 15 15 22 17 13 13 11 14 20 24 28 31 31 29 28 26 24 23 22 21 19 18 16 15 15 14 14 12 10 9 7 6 4 4 3 3 8 8
12 14 9 9 15 13 16 16 18 18 20 15 16 16 21 25 29 30 30 29 28 27 26 24 22 21 20 18 17 15 14 13 12 11 10 9 7 6 3 2 6 7 9 9

GFSCGP_850_spd_036.txt.gz
Wind_Speed
20 12 15 18 18 19 16 8 16 7 4 6 17 22 15 12 15 17 18 17 15 16 27 23 23 18 21 30 29 29 31 32 37 31 25 25 25 23 25 24 30 22 21 22
17 18 18 18 18 18 16 12 18 9 12 8 11 17 23 22 22 19 17 21 19 21 24 28 28 27 22 28 27 26 30 34 34 32 28 26 23 24 24 24 24 21 25 24
20 18 19 16 19 15 12 16 14 9 6 11 12 12 22 20 22 23 18 22 19 23 29 29 30 32 31 27 28 30 29 25 25 23 20 25 25 23 22 30 24 25 20 24
19 21 15 10 13 13 15 15 5 12 10 8 5 9 8 14 14 14 19 22 26 27 29 31 31 33 34 34 29 30 30 29 28 30 30 29 29 30 29 29 25 24 27 26
20 19 18 14 16 17 14 2 13 12 13 13 7 9 9 12 12 16 16 21 23 28 30 34 35 36 37 35 36 31 35 33 32 29 29 30 29 29 28 26 24 20 24 27
22 24 19 16 16 17 13 9 10 12 11 9 13 10 5 6 8 8 19 19 23 26 30 32 34 35 35 35 37 38 37 37 35 35 31 30 30 30 28 29 29 33 30 27
22 24 18 16 18 17 10 9 8 10 9 7 11 9 11 10 5 7 11 21 30 28 28 30 35 39 38 39 39 38 38 38 36 36 35 35 33 28 33 27 33 33 28 25
17 17 23 15 19 18 15 16 8 7 4 7 12 7 7 14 14 5 10 32 40 31 33 31 33 40 41 41 42 41 41 40 39 38 37 36 32 33 25 29 31 28 35 31
18 22 20 17 17 18 15 16 16 18 5 3 5 21 9 8 12 8 8 7 5 10 34 36 33 34 37 43 44 44 42 38 38 38 40 42 38 33 28 36 35 35 37 34
19 13 21 21 20 19 17 12 11 11 10 7 12 16 7 3 8 8 4 9 5 5 3 12 32 33 34 36 41 44 44 40 36 37 38 42 38 39 21 27 35 37 38 32
20 14 11 17 21 18 13 12 7 16 10 6 5 5 10 5 8 5 7 7 4 5 8 6 9 13 19 33 37 41 41 38 32 33 37 38 42 44 30 26 37 35 32 29
25 11 13 17 14 17 17 16 17 10 9 6 3 8 10 14 7 6 4 4 9 8 8 8 7 8 12 16 14 19 30 29 28 30 33 29 28 31 25 27 29 31 28 22
20 18 10 17 16 19 19 18 13 15 10 12 4 7 9 9 8 8 7 11 17 12 9 10 9 9 10 12 14 15 18 21 22 24 26 19 24 27 23 24 27 26 25 19
11 13 21 15 14 9 14 20 17 18 9 11 8 9 14 12 4 8 14 16 18 21 14 11 14 11 12 13 14 14 14 14 13 16 17 20 22 17 15 18 20 18 17 17
6 16 18 21 20 20 17 20 20 20 21 17 13 20 20 19 15 6 11 6 10 7 10 11 14 15 16 16 16 15 17 18 19 18 15 15 16 13 12 12 13 14 15 17
5 12 15 23 21 19 22 22 20 21 22 20 17 17 15 18 12 10 10 12 8 10 11 12 11 17 15 16 18 20 22 20 16 17 17 15 10 9 7 8 10 9 9 9
11 10 17 19 19 13 21 21 19 16 18 17 17 16 14 13 12 12 21 15 16 11 12 13 16 18 17 20 20 20 18 18 19 18 14 15 16 16 15 15 13 13 12 8
12 12 11 7 2 20 10 14 16 16 16 15 16 16 12 13 17 7 4 7 15 16 15 16 18 20 20 20 19 20 20 20 19 18 16 14 13 11 11 11 11 9 8 8
12 10 7 9 13 13 18 13 14 13 18 18 20 17 16 20 21 7 3 7 17 21 22 21 21 22 23 23 24 23 21 20 18 17 15 13 13 13 11 10 10 9 8 7
18 14 8 5 15 18 5 11 15 17 13 12 14 13 10 10 4 3 14 12 19 24 22 23 23 23 23 23 23 22 21 19 18 17 16 15 14 14 16 14 12 9 10 11
2 8 11 10 6 7 7 13 23 17 8 8 14 17 13 4 0 10 14 20 23 25 26 25 24 24 23 23 23 22 20 19 18 17 18 19 19 15 12 12 11 10 8 8
7 3 4 7 8 12 7 13 17 10 12 9 14 9 3 3 4 11 23 27 28 28 27 27 26 25 24 23 22 21 20 21 23 21 19 16 13 10 9 9 10 10 8 7
3 8 3 5 2 5 17 22 20 14 11 14 11 14 9 10 15 25 29 28 28 28 28 27 26 25 23 21 21 23 22 19 17 16 15 13 13 13 12 12 12 10 8 11
12 10 6 2 9 16 4 17 27 20 17 20 13 14 11 15 21 25 26 28 30 29 28 26 26 26 24 22 20 20 20 18 18 17 16 16 15 13 11 10 11 12 12 9
7 15 16 11 12 18 39 22 17 15 19 11 8 8 12 18 26 27 27 29 29 28 27 26 25 23 22 21 21 19 18 18 19 18 17 16 16 12 14 11 8 8 6 7
10 12 7 6 7 4 15 20 19 14 19 21 12 14 13 19 26 27 28 29 28 28 26 24 22 22 20 19 19 17 17 18 18 17 16 15 15 12 7 6 6 7 8 9

GFSCGP_850_spd_042.txt.gz
Wind_Speed
5 4 8 11 10 8 5 7 10 14 10 6 8 5 11 17 16 16 23 24 23 23 17 11 15 18 20 22 26 35 39 41 42 44 45 46 48 42 36 39 40 21 19 20
3 14 10 9 8 8 9 10 17 10 4 5 6 8 3 8 11 22 24 29 28 25 22 17 17 20 23 25 28 34 38 39 42 42 40 43 40 39 36 44 39 26 21 25
12 8 14 10 11 10 13 10 13 9 3 3 7 5 5 6 12 12 25 32 31 35 31 26 24 24 24 28 29 31 35 36 37 38 38 33 33 36 32 44 41 32 28 27
8 13 12 8 11 11 11 13 10 7 3 4 5 5 5 7 6 9 17 29 35 39 36 33 31 28 28 29 29 32 35 35 33 37 39 37 39 42 44 40 35 35 35 31
9 7 12 16 19 11 14 15 9 5 4 2 5 2 7 4 8 9 12 29 39 45 44 42 38 34 32 30 32 34 37 38 35 36 39 39 45 45 42 39 40 36 37 38
9 14 6 8 10 10 10 3 3 3 2 1 5 5 4 5 12 9 12 30 40 45 50 46 41 36 35 36 36 39 41 42 41 38 40 46 48 46 42 40 39 36 37 37
12 20 15 9 7 13 5 5 2 3 2 6 5 3 7 4 8 16 18 31 37 47 47 49 45 44 41 43 43 43 48 47 45 45 45 46 46 44 42 41 39 37 35 36
12 6 17 12 17 6 8 9 6 6 4 5 3 5 6 7 4 16 24 33 42 37 46 49 50 47 45 45 45 46 46 47 47 47 46 45 44 44 45 44 43 41 40 37
6 8 8 15 11 8 6 5 8 5 2 2 4 6 7 8 8 10 20 31 39 38 45 50 50 49 47 46 47 48 48 47 47 49 48 46 45 47 47 45 46 44 41 34
5 6 6 16 6 12 13 5 2 1 6 4 3 4 5 8 9 2 2 19 31 40 42 49 49 50 49 47 45 47 49 50 51 51 50 49 48 47 46 46 45 40 39 40
9 10 8 5 5 15 2 4 1 5 5 6 2 5 8 11 7 4 5 23 36 34 40 45 46 49 50 48 47 48 49 51 52 51 49 50 50 50 49 49 46 43 43 39
5 7 12 23 17 10 7 11 11 6 4 3 5 9 6 7 9 6 10 21 26 33 31 36 42 43 47 49 51 49 50 51 53 52 45 42 39 39 41 42 46 44 31 26
6 4 4 7 9 5 8 5 10 5 4 9 7 5 5 5 6 14 5 10 20 26 21 21 23 32 38 38 41 47 50 54 55 47 43 40 33 31 44 40 41 36 39 38
8 5 5 11 7 5 5 11 10 11 6 5 7 7 5 5 7 5 7 12 17 25 24 26 26 26 25 25 23 26 33 38 46 49 50 48 37 34 38 37 39 43 39 38
4 6 12 17 14 18 19 9 9 14 7 9 7 9 10 10 11 15 17 12 9 22 27 29 28 24 22 20 20 21 22 27 43 45 43 46 45 34 31 36 35 32 38 33
2 2 10 10 13 16 20 20 16 15 10 7 8 8 8 19 22 14 20 26 23 19 26 30 30 26 25 22 21 21 18 22 33 40 38 36 34 34 30 28 27 26 27 26
5 3 5 6 16 13 11 27 19 6 7 6 8 8 8 9 10 17 28 33 34 31 31 30 34 33 30 27 28 25 22 21 25 26 30 27 29 28 28 29 26 25 23 22
6 6 4 7 14 8 18 4 16 16 9 7 5 6 10 18 28 29 26 33 37 33 33 29 34 34 32 31 29 24 22 23 26 26 28 31 31 30 27 25 23 22 22 19
4 5 3 4 7 16 5 12 3 7 14 8 8 11 9 19 16 11 17 29 27 35 34 34 35 34 37 34 31 27 24 23 22 24 25 25 24 22 21 21 21 19 18 17
7 3 4 3 4 6 9 7 19 2 8 9 15 12 9 9 2 5 18 29 39 35 33 39 35 33 35 33 31 29 25 24 23 21 20 19 19 17 18 17 18 17 16 16
3 0 7 4 4 8 11 23 15 11 7 19 6 14 15 6 11 18 15 26 28 28 32 28 29 33 34 33 31 28 25 23 21 22 22 21 19 17 16 16 16 16 17 17
8 8 5 5 4 10 2 13 5 6 9 21 26 10 9 13 9 10 22 24 26 29 30 30 32 32 33 32 29 26 24 24 24 23 21 20 18 17 17 17 18 18 18 17
4 7 5 9 7 4 3 1 10 5 9 13 23 23 26 14 13 22 24 25 25 25 29 29 31 32 30 28 25 25 25 25 24 22 20 18 16 15 14 15 17 17 17 18
4 5 4 3 8 11 7 9 19 12 9 15 23 24 22 15 18 24 29 32 31 35 33 31 32 30 28 26 24 22 24 23 21 19 18 18 18 18 18 18 17 17 18 18
5 7 6 5 6 5 18 9 12 10 5 11 14 19 20 14 13 21 25 32 34 34 31 31 31 30 28 26 24 23 22 22 20 20 21 20 19 19 20 18 17 18 15 12
6 3 4 6 11 7 15 14 8 10 6 10 13 15 14 18 17 17 24 29 31 31 31 29 28 28 27 25 24 22 22 22 23 22 20 20 19 19 18 19 19 16 13 12

GFSCGP_850_spd_045.txt.gz
Wind_Speed
7 4 9 12 8 3 3 2 4 7 9 4 10 8 7 13 14 15 21 22 20 17 11 11 9 15 17 17 20 24 30 33 35 39 41 41 45 37 34 30 25 25 20 18
1 16 6 8 5 5 4 5 8 11 12 8 6 8 7 8 16 22 24 26 25 22 19 16 13 16 18 19 21 25 31 30 37 42 44 44 46 37 38 31 35 30 27 26
7 5 14 11 6 6 7 6 8 8 6 1 3 5 4 6 9 18 26 28 29 28 25 22 19 18 18 20 23 24 29 33 35 34 40 44 47 42 41 39 40 37 29 24
6 16 5 5 10 8 6 9 12 8 1 5 6 4 4 6 9 9 21 29 34 33 29 26 23 23 20 20 23 26 28 32 34 35 39 41 45 47 46 44 39 39 36 31
9 6 9 10 16 7 9 4 9 11 6 3 3 3 7 5 7 12 15 27 35 37 36 33 30 25 21 21 23 25 28 32 36 39 40 42 43 43 43 47 47 51 45 43
10 3 6 9 7 10 8 4 5 1 3 3 6 6 5 5 7 6 14 28 35 35 38 37 34 31 27 26 26 27 30 33 36 38 41 41 41 40 41 44 44 44 48 48
4 10 3 1 2 2 4 3 3 3 1 6 5 2 7 7 8 9 11 28 36 37 38 40 41 39 33 32 32 32 32 33 36 39 40 43 45 43 42 45 47 51 50 46
10 6 11 6 14 6 7 9 5 6 3 5 2 5 5 10 13 13 19 29 32 36 37 41 44 44 40 36 35 36 37 39 40 41 41 40 43 45 47 48 49 46 44 40
5 6 4 6 9 11 5 5 7 3 3 2 4 6 7 8 9 8 17 18 26 35 38 41 45 46 46 43 41 41 41 41 42 42 41 42 42 44 47 50 46 47 45 43
4 3 5 5 6 6 8 4 2 2 4 5 3 4 5 4 9 5 8 14 25 32 37 40 42 46 46 47 46 45 46 45 44 46 46 45 45 46 48 51 51 50 48 46
6 5 4 5 4 6 2 3 3 3 4 8 8 6 8 10 8 7 8 20 24 25 36 41 42 43 46 47 49 50 48 50 52 51 53 53 52 51 49 48 47 49 49 46
1 1 5 17 14 5 1 5 6 7 7 4 4 11 5 8 8 7 12 19 16 20 29 38 42 41 44 47 47 50 51 51 52 54 53 53 51 49 44 40 45 48 48 39
3 3 4 7 6 2 6 7 8 2 2 16 7 9 4 7 5 10 10 15 14 15 18 32 37 38 42 44 45 46 46 47 51 53 55 55 53 50 51 47 37 42 53 49
7 2 3 2 5 8 7 15 8 12 7 3 13 7 5 7 8 8 9 18 20 17 21 23 28 32 38 41 42 44 43 41 47 48 50 51 51 51 48 49 43 40 44 41
2 3 2 5 6 10 15 16 18 16 12 13 7 11 10 10 10 14 22 13 14 13 23 24 28 26 26 30 33 35 33 36 41 44 45 47 45 45 47 48 41 39 40 40
3 5 1 4 6 2 13 20 18 19 14 8 6 7 8 15 19 9 18 24 21 20 19 29 32 29 28 29 29 27 28 27 29 34 38 40 42 41 39 42 39 35 37 37
5 4 2 5 2 6 8 5 13 17 17 9 12 9 7 7 9 16 27 30 30 31 27 26 33 33 34 33 32 29 27 22 23 26 29 35 39 41 43 46 44 40 31 29
6 6 3 4 1 3 9 3 14 18 20 15 8 5 9 9 19 21 28 34 35 35 37 35 33 32 35 37 34 30 28 24 22 25 27 30 34 38 40 42 36 27 27 24
5 5 2 2 2 7 9 6 2 8 24 23 15 9 8 19 15 18 27 24 28 29 33 34 32 38 35 40 36 33 29 25 24 25 25 27 28 28 27 26 26 28 25 26
5 3 3 3 2 6 18 5 16 12 20 5 7 9 12 9 8 6 27 26 25 21 24 27 37 39 34 37 37 32 29 26 26 26 24 22 20 18 22 24 25 24 23 23
3 1 7 4 4 8 8 1 7 1 7 22 16 16 14 5 17 31 34 30 28 28 33 33 26 29 33 34 33 33 27 25 24 23 21 21 21 23 24 24 23 23 22 21
7 8 4 4 4 8 7 4 7 5 36 27 22 19 18 22 19 18 28 28 24 29 29 27 21 28 28 30 30 28 26 25 22 20 21 23 23 22 22 23 24 24 23 23
4 6 5 9 7 7 7 5 12 6 12 32 25 22 18 18 17 14 11 19 23 18 14 15 20 26 26 28 28 27 25 22 20 20 20 22 22 22 21 22 23 23 22 22
4 5 4 2 7 11 20 26 22 16 8 33 31 19 14 14 14 11 12 13 15 18 19 23 25 25 26 26 23 19 17 18 19 21 22 22 21 21 20 19 19 19 19 19
6 5 6 8 10 10 23 25 25 23 21 17 24 19 10 11 14 17 12 6 11 12 14 19 22 23 23 22 20 19 17 19 21 21 22 21 20 20 21 20 19 18 18 15
2 2 3 4 6 5 12 20 16 19 21 12 19 16 15 11 10 13 11 9 7 11 15 15 17 20 21 20 19 19 19 19 18 20 21 20 19 20 19 20 20 17 14 14

GFSCGP_850_spd_048.txt.gz
Wind_Speed
8 5 12 10 7 4 5 2 3 5 3 3 8 10 15 13 16 16 21 21 22 20 13 10 9 13 15 16 17 21 32 31 35 40 33 38 39 40 40 35 29 27 29 26
3 16 7 8 7 6 3 3 6 9 3 4 7 11 7 7 9 19 22 25 24 20 18 16 15 14 19 19 18 19 31 34 36 41 39 40 41 39 39 38 30 30 26 26
8 3 12 8 6 7 5 6 5 8 5 4 2 7 5 3 8 12 24 26 24 25 23 21 20 17 20 22 23 23 24 28 33 39 36 40 38 36 40 38 33 36 33 31
7 5 4 4 10 8 8 9 8 5 2 3 3 5 7 5 7 7 17 25 30 28 27 25 22 21 21 20 20 20 24 27 30 35 41 42 43 46 49 43 35 32 31 36
8 6 11 5 5 8 7 7 9 5 5 1 2 1 7 5 6 9 10 29 32 32 31 31 28 23 18 20 21 21 23 27 30 35 38 43 44 48 50 46 41 37 41 38
8 4 8 11 7 11 4 4 4 1 3 3 7 7 5 5 8 6 6 23 32 32 31 31 30 26 22 21 23 25 27 28 33 36 36 39 43 48 50 50 47 45 44 46
1 5 2 3 5 2 3 4 1 2 1 5 4 5 8 7 11 10 10 18 23 31 32 32 32 32 29 25 25 25 27 30 34 36 39 41 40 42 46 50 48 50 50 51
9 5 11 5 7 5 5 7 5 6 4 4 3 5 6 9 13 15 16 21 17 21 31 33 33 32 31 29 27 28 29 30 32 35 36 37 40 42 46 45 46 47 50 51
5 5 1 4 7 11 5 4 6 3 1 2 4 6 8 6 8 7 16 22 25 21 26 33 34 32 32 33 32 30 31 31 33 34 34 37 39 43 44 42 41 42 42 43
3 1 2 0 5 3 7 5 3 2 4 5 4 3 5 3 9 9 9 15 22 19 21 28 32 32 32 32 33 33 33 33 34 36 37 38 38 39 40 40 40 41 39 40
4 3 4 2 3 5 3 3 0 4 5 4 2 5 8 11 8 7 9 17 15 20 23 22 28 31 31 33 35 36 37 37 37 38 39 41 40 37 34 33 33 35 37 43
3 3 4 10 7 5 1 2 6 4 5 4 2 6 4 9 7 8 12 16 19 18 21 25 23 28 31 32 35 38 40 42 42 41 42 42 39 42 41 43 39 31 41 45
1 2 2 1 1 6 5 3 6 4 3 7 4 4 3 5 8 13 12 15 14 14 18 22 21 25 27 30 33 34 36 40 44 45 45 44 46 46 46 48 41 45 45 39
2 3 4 2 2 3 3 6 5 1 3 4 9 5 8 8 9 10 15 18 19 18 16 22 20 22 25 28 33 33 33 34 36 41 46 48 50 51 52 49 46 50 54 49
1 4 3 3 5 4 8 9 6 5 6 7 8 12 9 9 12 17 28 23 19 21 22 20 21 21 23 28 31 31 29 32 32 32 36 38 43 47 47 47 49 52 52 51
4 1 3 4 9 10 11 7 8 6 5 8 11 14 9 20 18 17 24 22 23 22 22 24 25 25 27 25 25 29 27 28 30 32 32 32 35 39 40 39 41 44 49 50
3 3 2 2 2 3 7 7 12 7 5 5 5 10 15 12 11 12 26 25 26 26 29 27 23 26 29 29 26 28 30 29 30 33 33 33 32 34 34 33 37 39 42 42
2 3 2 1 0 3 6 3 5 8 9 8 7 6 13 23 28 28 30 22 24 30 27 32 34 32 29 32 36 32 33 30 28 31 31 29 27 28 31 33 35 37 38 35
6 4 2 3 3 7 10 6 6 8 17 5 8 7 10 25 26 27 28 30 28 25 25 24 31 35 36 35 36 35 34 33 30 30 27 25 24 25 28 30 32 35 36 34
6 3 3 3 2 5 4 3 5 3 9 3 5 6 8 19 8 10 28 30 34 30 25 28 29 30 29 34 37 35 36 35 31 29 24 22 20 19 20 20 22 23 24 25
5 1 8 3 3 7 6 6 1 2 6 13 10 10 12 6 11 33 42 39 37 35 35 30 30 28 24 26 27 30 34 33 29 24 20 18 13 10 10 11 17 22 25 26
6 6 4 4 4 8 7 2 6 7 11 11 19 17 16 28 42 43 33 27 26 29 29 28 25 26 24 21 22 28 30 28 22 18 16 13 10 13 17 20 24 23 22 20
3 6 6 8 7 4 7 10 11 16 18 19 19 22 29 31 39 38 31 18 13 12 15 17 15 17 16 17 20 25 24 20 18 15 15 14 16 16 17 18 18 17 16 16
3 6 4 2 5 12 21 21 20 18 23 27 17 14 28 31 36 32 26 14 11 8 4 4 7 10 12 14 14 14 15 15 15 16 16 18 18 19 16 14 12 12 13 14
6 5 4 10 7 13 24 10 25 26 21 24 25 17 23 30 31 28 20 14 9 5 3 3 5 11 11 12 15 16 13 12 15 17 17 18 17 16 16 15 12 10 9 8
0 2 3 4 5 3 12 17 21 16 18 17 17 16 16 26 27 17 11 4 7 7 6 6 11 14 14 13 15 14 13 14 14 16 18 17 17 17 15 14 16 16 14 13

GFSCGP_850_spd_051.txt.gz
Wind_Speed
6 7 14 17 14 5 6 5 5 3 5 3 4 12 13 10 16 15 17 18 18 18 13 11 9 12 14 13 16 19 30 27 33 36 36 41 40 40 42 44 35 37 36 31
4 15 11 8 8 9 6 6 7 5 3 7 6 13 11 7 9 19 20 20 20 19 19 16 14 14 17 17 17 22 23 31 33 37 36 40 42 41 41 35 35 38 36 32
16 4 14 11 8 10 10 12 6 8 5 3 3 5 7 3 7 9 16 21 20 24 25 23 20 16 15 20 22 22 24 30 36 35 37 38 36 37 40 40 39 36 35 32
11 6 10 9 15 12 12 10 7 6 3 4 2 5 7 6 8 7 12 20 22 25 27 25 23 21 20 18 21 23 24 30 34 40 37 45 43 43 45 45 43 37 33 31
9 8 12 9 11 13 10 8 12 9 7 3 3 5 4 4 7 11 9 18 22 28 31 31 28 23 19 20 22 25 27 28 32 32 40 39 44 44 43 46 50 44 40 39
8 3 8 11 5 16 5 5 3 3 2 7 9 7 5 8 11 5 6 10 13 21 30 31 28 25 23 21 23 25 27 30 32 35 41 41 49 48 45 45 49 48 40 46
5 7 2 4 8 5 7 6 2 4 5 8 2 8 12 8 12 12 13 16 7 10 22 29 32 32 29 27 25 26 28 31 36 37 40 44 45 48 52 52 47 49 48 43
10 5 12 5 5 6 13 10 5 7 5 3 4 6 5 9 16 15 14 14 10 11 14 26 32 34 32 29 29 28 29 30 33 37 41 42 43 46 49 47 51 55 54 48
6 7 4 6 5 9 6 8 5 0 1 2 3 4 9 6 9 7 12 9 14 14 15 22 29 34 34 33 32 31 30 30 32 32 35 39 42 44 46 47 50 52 56 54
4 3 2 4 4 1 8 8 3 1 5 8 3 3 6 3 11 12 8 11 17 15 12 17 24 31 34 34 35 34 32 31 30 31 33 35 37 40 43 44 45 47 49 51
3 2 2 3 4 9 4 7 2 2 3 4 3 4 8 12 7 7 8 11 11 12 11 15 18 25 30 32 34 36 37 36 36 35 35 37 38 39 40 39 38 38 39 40
3 3 4 6 1 2 2 1 3 7 6 1 0 5 4 8 8 9 13 18 18 14 12 12 17 19 25 31 32 35 38 40 39 38 39 39 39 39 39 39 41 42 44 39
5 2 3 2 2 4 6 3 2 2 1 5 4 4 4 8 10 14 16 25 27 16 11 10 12 18 22 27 30 30 33 36 40 42 42 42 42 40 41 42 41 41 37 36
2 2 2 3 3 3 1 3 3 1 2 1 5 8 8 14 13 17 24 27 31 26 18 14 16 21 22 25 29 28 28 31 35 38 41 44 44 44 45 44 42 42 40 40
2 2 2 2 4 5 5 7 7 5 8 6 6 11 11 14 15 17 24 28 28 32 32 23 22 21 22 22 26 26 25 26 28 30 33 34 38 42 44 46 45 45 44 44
8 2 2 3 9 8 7 8 10 13 14 13 14 12 15 20 18 17 23 25 22 26 30 29 25 23 24 23 23 25 23 25 27 27 27 30 31 33 36 37 40 41 43 46
4 2 3 2 2 1 6 8 14 8 9 6 10 12 3 8 13 18 19 27 25 29 27 28 27 29 26 26 25 27 25 27 29 28 29 30 30 28 28 31 33 33 35 35
2 2 2 2 1 5 2 4 4 7 12 14 14 12 13 17 19 29 27 23 33 32 24 20 27 31 34 32 27 27 31 30 29 31 31 31 29 27 27 29 28 29 30 31
10 3 2 2 4 8 10 6 4 6 10 3 3 7 12 16 19 17 16 20 23 28 32 35 35 25 27 34 35 33 33 36 33 32 34 34 31 28 27 26 26 24 22 23
9 4 4 3 3 5 3 1 1 2 6 4 4 8 11 15 10 10 33 37 37 31 32 35 32 32 27 24 29 34 37 36 36 34 34 33 29 27 22 20 18 19 21 25
6 3 10 4 4 7 10 8 3 2 2 2 4 13 11 7 10 24 39 41 38 30 29 33 38 36 31 24 21 24 29 30 32 32 29 27 25 23 18 14 17 18 20 23
8 8 5 6 5 8 4 5 4 2 14 13 13 15 14 17 25 28 32 34 40 32 29 25 29 33 27 20 18 19 23 28 27 25 23 21 19 16 15 15 17 18 19 22
5 6 5 8 6 1 4 3 12 16 14 15 19 21 21 18 20 29 34 36 34 27 24 19 17 17 17 15 14 17 19 20 20 21 22 19 19 16 14 17 20 18 19 20
3 5 4 2 5 14 16 8 9 16 15 19 22 19 15 16 24 26 37 30 25 19 15 11 5 2 5 7 8 11 15 18 20 20 21 20 18 17 17 16 16 16 16 15
5 6 5 8 9 13 8 10 17 20 17 18 18 10 11 17 31 29 28 27 18 12 7 4 4 6 12 11 15 17 18 19 21 21 22 20 19 19 20 19 16 13 13 9
3 4 4 5 2 4 8 18 17 18 18 18 18 15 11 14 25 22 18 19 11 8 4 8 10 9 9 9 15 16 17 18 19 20 21 21 20 19 17 16 18 16 13 12

GFSCGP_850_spd_054.txt.gz
Wind_Speed
22 14 20 25 22 20 11 12 14 7 4 7 13 15 12 6 13 15 15 17 18 17 13 13 11 11 15 15 18 22 24 24 23 26 38 36 34 48 49 44 44 29 35 34
10 20 21 17 18 20 18 15 13 6 6 10 14 14 14 4 9 13 15 18 19 18 17 16 14 14 16 17 19 21 25 27 28 30 34 36 37 46 48 47 48 32 33 33
21 9 18 14 16 19 21 19 14 12 3 11 10 15 17 12 9 9 15 16 18 22 23 20 19 17 16 19 20 23 28 29 30 33 39 39 37 44 44 54 41 37 32 32
16 22 5 19 22 19 19 17 16 12 9 11 7 14 15 11 15 12 14 17 18 22 24 22 22 20 19 19 20 22 28 31 30 31 39 42 44 43 44 49 48 32 30 34
12 12 20 17 18 18 16 7 13 14 13 13 14 9 13 9 14 15 14 16 18 20 25 26 25 22 20 20 22 23 27 29 32 37 40 38 42 44 43 46 48 36 35 36
15 5 13 19 13 12 4 8 7 6 7 12 15 11 11 12 13 10 9 10 12 16 23 25 23 22 21 20 21 23 25 30 34 39 41 40 44 44 44 47 49 43 38 39
13 14 5 10 16 13 15 12 7 9 9 10 5 10 16 6 10 11 9 9 7 12 19 24 27 27 25 25 25 25 27 29 34 39 42 44 42 48 44 47 51 49 46 43
14 9 15 13 14 9 21 17 6 6 9 9 8 8 11 7 8 12 11 12 6 12 16 22 28 29 29 29 28 28 28 28 31 37 42 38 40 47 47 43 50 51 51 52
12 13 10 14 9 13 13 19 16 10 2 4 7 5 10 9 8 6 10 7 9 11 15 17 25 31 30 31 33 33 31 30 30 33 37 42 40 41 47 44 48 50 51 50
6 6 9 16 18 17 11 11 8 10 10 13 10 9 6 3 7 8 7 8 6 8 11 16 23 29 30 30 30 33 33 31 31 32 34 36 40 42 41 43 48 55 55 57
8 5 6 10 14 17 14 12 8 6 10 8 8 5 4 6 11 11 11 4 7 11 9 11 19 24 28 28 30 34 34 32 33 34 35 35 39 41 43 47 49 51 56 59
6 3 7 10 4 5 12 17 18 10 11 6 5 6 5 6 8 11 10 14 16 15 13 8 14 19 25 29 30 33 35 36 36 34 35 38 35 37 41 49 50 51 54 50
5 7 9 10 6 5 4 3 4 3 2 10 8 3 2 12 12 14 17 16 17 17 14 8 8 16 21 26 30 33 36 39 37 36 37 37 40 41 44 45 45 45 45 43
10 3 6 10 3 2 7 5 3 5 6 8 10 9 7 12 15 16 19 20 21 20 20 15 11 13 18 23 28 31 34 36 37 36 38 40 43 44 43 42 43 43 43 42
2 3 2 1 1 1 4 7 7 6 6 6 8 9 8 9 12 16 18 22 25 26 23 18 16 15 16 21 25 27 30 33 36 36 37 44 45 45 42 43 42 42 43 44
6 4 4 5 5 6 8 9 9 10 11 11 15 17 12 13 14 16 20 22 23 26 28 24 20 18 18 20 24 24 28 32 33 36 39 37 37 38 41 41 41 39 41 41
4 3 5 9 3 5 8 15 16 13 12 9 11 8 11 12 13 19 24 24 26 30 29 29 28 21 18 18 23 27 28 26 32 34 33 34 34 35 35 34 35 36 36 32
5 4 3 3 3 7 1 3 0 6 9 8 8 8 7 9 12 17 22 20 22 27 31 31 30 27 20 19 18 23 22 26 31 32 31 31 33 33 30 29 29 28 28 28
12 6 3 4 11 9 12 6 8 7 4 0 3 6 10 11 13 10 10 19 25 27 30 33 31 30 30 24 18 21 21 25 28 33 33 31 31 30 29 29 27 24 26 28
13 12 7 5 7 6 4 5 1 1 3 7 7 8 11 14 8 8 21 22 24 27 30 34 32 31 28 30 22 22 23 25 30 33 30 28 29 29 27 25 28 29 25 22
10 11 14 11 7 3 9 6 2 5 4 11 15 15 17 9 10 17 20 25 24 27 31 34 31 28 25 23 23 26 25 27 26 27 29 27 25 27 34 32 27 24 21 22
10 9 8 11 6 6 6 3 4 7 9 16 19 20 20 19 15 15 16 23 26 30 32 32 31 27 21 19 18 19 17 24 27 30 29 30 29 29 28 27 23 20 19 20
7 7 6 7 7 3 3 3 8 10 12 15 17 20 21 17 11 11 16 19 24 30 30 29 26 24 21 14 8 10 18 20 20 21 23 22 22 23 24 22 22 24 20 21
8 9 7 5 8 10 8 2 6 9 9 11 14 15 15 13 14 15 15 18 23 33 38 30 24 19 15 9 6 8 11 14 17 18 22 24 26 24 22 21 18 17 17 20
9 7 10 12 13 12 13 2 8 10 10 12 13 13 12 14 14 16 15 16 19 24 36 26 20 14 10 7 0 7 12 15 20 24 25 25 24 23 22 20 20 18 19 17
12 11 8 8 5 1 6 9 9 13 12 13 14 14 12 12 14 14 12 13 15 12 17 20 16 10 8 5 8 8 8 13 19 23 25 26 27 27 25 25 26 21 18 16

GFSCGP_850_spd_057.txt.gz
Wind_Speed
20 15 21 25 24 22 20 18 15 13 5 8 14 16 14 17 15 14 15 16 16 16 13 14 14 13 13 14 17 18 17 16 15 21 32 32 33 35 42 38 33 34 29 30
15 22 21 22 24 23 24 24 15 14 2 7 14 16 18 14 14 15 15 18 16 15 16 17 16 16 16 17 18 19 21 21 19 22 34 33 37 42 46 45 34 38 35 34
23 19 20 22 21 22 21 22 18 17 7 9 15 18 19 14 18 13 14 15 14 16 19 19 19 18 17 18 19 23 22 24 24 24 32 30 38 38 44 43 39 43 37 28
19 23 10 20 24 18 21 18 19 16 15 13 12 15 17 19 19 15 18 18 16 16 18 21 22 21 19 19 19 22 24 25 27 27 33 35 39 44 49 49 47 44 38 33
19 10 18 23 19 20 21 15 15 16 17 15 17 9 12 13 13 15 15 20 19 17 19 22 24 23 21 20 21 21 25 27 30 31 32 34 37 39 51 49 47 43 39 39
18 17 14 14 19 18 16 11 11 13 14 15 18 15 11 12 14 10 11 13 16 16 17 20 23 23 22 21 21 22 24 29 29 32 33 36 37 40 47 54 53 47 40 40
20 21 14 13 19 18 18 14 9 11 12 14 14 13 14 4 4 6 5 8 14 12 15 19 24 26 25 25 25 24 26 27 33 35 35 37 41 44 42 49 48 58 45 41
18 15 22 12 15 18 20 18 9 14 11 14 19 8 11 7 2 4 10 12 2 8 12 16 23 27 27 28 28 27 26 27 31 38 37 36 35 41 39 46 50 55 59 54
12 21 10 14 12 15 17 21 21 18 10 7 7 10 12 3 7 6 6 7 9 10 12 14 18 26 28 29 30 29 27 27 28 32 40 40 40 37 39 40 43 49 55 59
13 10 15 14 14 19 22 12 18 11 12 12 10 11 8 9 10 5 3 8 5 3 10 14 16 22 28 29 29 29 29 29 28 29 35 40 42 42 42 43 42 46 50 53
14 11 9 11 18 19 15 18 13 15 14 9 12 9 5 10 11 6 6 7 11 9 7 8 11 16 24 28 30 30 30 30 30 30 31 32 41 41 41 42 48 44 42 47
15 6 11 18 20 20 18 21 20 10 9 12 8 2 8 8 7 6 6 2 5 6 6 6 5 10 18 25 29 31 30 32 32 33 33 34 33 37 43 46 47 48 44 44
13 8 9 15 11 9 14 19 20 20 14 12 9 6 6 5 2 2 8 11 10 10 13 11 4 6 14 21 28 31 31 32 32 33 36 39 41 41 43 45 48 48 49 47
13 11 14 12 12 13 15 7 10 10 10 13 14 13 8 3 10 10 11 14 16 15 16 16 15 9 11 17 24 30 32 31 31 33 36 39 44 45 46 46 47 48 49 48
5 6 11 9 5 5 6 14 11 12 12 10 12 10 8 6 8 12 13 15 18 18 18 20 21 17 16 16 21 26 30 32 34 36 37 43 46 46 41 42 43 46 45 48
7 3 9 8 6 6 7 9 11 13 12 12 14 14 13 14 5 9 12 16 19 22 21 20 21 21 20 20 19 23 27 32 33 36 43 43 39 40 43 43 45 43 44 44
8 7 4 4 7 8 8 14 14 13 14 13 13 9 9 6 6 10 16 18 18 18 24 25 24 23 22 22 19 19 24 26 31 37 41 39 41 41 44 44 40 43 44 41
12 10 10 5 5 4 6 5 3 12 13 11 7 4 4 5 6 10 14 10 15 18 23 26 26 25 24 23 23 23 21 25 30 33 36 37 39 42 40 40 42 42 42 42
15 11 5 5 7 10 5 3 9 7 7 3 2 3 3 6 9 10 12 13 16 18 21 24 27 28 26 24 24 25 25 24 28 32 35 36 38 39 38 39 42 41 39 37
16 12 9 5 11 11 5 3 2 3 7 11 5 4 7 10 6 6 15 15 18 21 22 25 26 25 25 24 23 23 25 26 27 31 35 35 32 35 37 37 35 35 33 34
14 12 14 11 8 6 8 9 0 11 5 10 6 8 11 8 10 13 13 14 16 20 24 25 24 23 24 27 26 23 24 26 27 26 27 29 32 33 33 30 29 38 42 40
13 10 9 13 10 13 8 3 7 8 5 8 8 10 10 12 13 11 11 16 18 21 23 24 25 25 30 31 31 28 22 21 19 23 21 28 31 33 36 41 42 37 36 35
9 10 8 11 9 3 3 8 9 7 7 10 11 11 12 15 16 15 14 17 17 19 20 22 24 26 29 30 27 23 21 25 25 22 25 30 33 31 32 32 33 33 32 30
9 9 4 1 7 9 6 7 7 9 10 11 12 14 14 14 15 14 15 16 17 18 21 24 27 28 30 32 27 22 20 19 19 17 20 23 25 26 25 25 27 29 28 26
7 3 9 8 9 7 7 8 7 10 12 14 15 16 15 16 14 15 15 15 16 17 19 20 25 25 27 25 26 20 14 12 14 15 18 22 23 23 25 25 22 22 22 21
8 6 5 4 10 9 8 9 9 13 14 15 16 16 14 13 14 14 11 13 15 17 19 19 20 20 21 22 20 17 11 5 8 14 17 22 27 24 25 29 29 21 20 20

GFSCGP_850_spd_060.txt.gz
Wind_Speed
16 13 17 21 18 20 21 22 21 16 17 15 17 15 16 16 17 15 19 17 15 19 18 19 18 15 15 13 17 18 17 15 14 12 14 16 30 39 42 43 40 32 35 36
13 20 19 18 18 21 24 23 22 22 15 3 9 13 15 15 15 18 15 19 16 17 21 21 20 18 18 15 15 19 17 17 14 14 24 34 36 38 42 38 40 34 37 37
18 14 16 18 18 20 23 23 18 22 18 14 7 16 19 18 19 19 17 13 18 20 24 26 23 21 20 19 19 23 22 19 14 15 26 29 36 39 42 39 41 38 33 34
12 20 14 19 23 20 22 22 22 20 17 14 14 12 14 16 16 14 16 15 14 13 24 29 27 24 24 22 20 21 24 24 19 19 26 34 37 39 45 49 45 39 36 37
4 9 15 23 19 23 23 18 16 15 16 16 19 12 12 13 12 19 16 22 22 21 20 29 30 26 23 23 23 22 27 26 26 25 29 34 34 37 46 46 45 45 40 39
18 14 21 20 17 22 20 16 17 14 13 14 17 16 12 13 13 11 8 11 24 24 19 23 28 26 25 22 25 23 27 29 31 30 30 35 35 39 46 51 49 45 44 44
17 20 21 18 18 17 16 14 9 7 10 10 16 14 11 16 9 4 3 3 7 22 19 21 30 29 28 27 31 25 27 33 36 34 32 33 36 39 42 50 56 54 49 47
5 11 21 15 18 15 18 15 7 8 7 13 19 10 14 18 14 5 3 5 8 15 14 17 25 29 30 31 31 27 29 29 36 36 35 35 37 38 41 41 53 59 55 47
3 8 10 16 16 15 14 14 17 15 7 5 9 18 15 6 7 5 6 9 5 10 13 12 17 27 30 32 33 30 27 27 29 37 38 39 37 36 38 39 43 55 54 53
6 6 15 15 18 17 17 15 10 5 5 6 7 5 8 9 8 9 6 7 7 7 11 18 17 23 29 30 31 32 29 28 29 29 38 42 42 41 41 39 43 45 49 55
14 11 6 14 12 16 13 15 11 13 10 5 2 4 12 12 11 7 11 16 17 14 8 5 9 19 27 30 31 32 32 29 30 32 29 38 43 41 41 40 44 43 42 50
12 6 10 18 18 14 16 14 18 7 9 12 5 1 15 6 8 8 10 13 12 8 12 6 3 2 8 26 29 31 31 32 32 33 32 30 35 43 45 45 43 42 42 42
10 6 9 9 8 13 17 19 12 14 8 6 5 5 9 11 10 8 8 15 18 19 17 18 19 2 6 12 21 27 31 32 33 33 36 37 34 36 42 44 49 47 47 46
6 8 10 9 4 6 7 16 20 16 6 5 8 4 10 13 8 5 11 15 17 20 19 23 26 28 27 4 15 22 27 32 32 34 36 39 42 40 39 40 43 46 47 48
3 5 12 15 17 16 12 15 13 9 13 9 12 13 7 6 16 5 7 13 13 13 16 18 22 25 27 24 20 11 23 29 33 34 37 43 43 43 41 41 44 45 47 50
5 3 12 11 9 9 9 10 7 17 15 5 9 7 11 21 13 11 13 12 13 13 17 15 17 20 25 27 27 24 24 25 30 35 38 41 40 41 45 45 44 43 46 48
2 3 4 3 8 9 8 11 14 16 8 5 9 5 11 5 6 9 11 12 16 16 17 19 20 21 22 24 27 28 27 21 19 31 37 40 40 41 44 46 45 47 49 47
13 9 3 4 6 5 4 2 8 12 7 11 12 4 2 8 10 8 17 16 14 16 17 19 20 22 22 20 17 20 21 22 25 26 33 37 40 43 45 44 46 49 50 49
15 12 4 4 4 8 10 4 2 3 6 11 3 6 8 9 5 11 16 13 14 17 20 22 21 19 20 22 25 26 24 21 22 22 26 31 39 42 43 44 47 47 44 45
17 14 10 7 4 3 7 3 2 1 2 10 11 9 9 10 3 6 7 8 13 15 21 23 23 20 21 27 30 31 28 23 22 24 26 22 29 41 43 44 45 43 41 40
15 12 13 11 8 6 6 3 3 6 5 15 16 14 13 7 8 14 10 12 14 17 20 23 24 25 27 29 29 29 30 28 27 25 27 29 27 27 39 39 39 39 39 42
13 10 8 10 9 12 3 4 5 12 18 13 11 11 13 13 15 17 19 18 19 18 19 20 21 22 26 32 34 32 31 32 31 30 28 27 26 25 29 33 38 39 41 43
3 9 7 9 8 6 7 18 16 17 17 10 10 12 11 10 12 13 16 16 17 17 16 18 19 21 25 28 29 31 33 33 33 29 25 28 28 25 23 30 37 40 39 37
4 15 10 2 8 8 16 13 18 14 14 11 11 12 11 10 11 11 12 13 15 15 18 19 21 21 25 26 27 26 27 28 26 24 21 19 15 17 21 20 23 26 28 31
4 4 4 7 3 11 19 9 18 17 14 13 12 13 12 10 10 11 12 13 13 15 18 18 19 20 23 24 24 23 23 22 21 17 12 9 4 1 6 11 13 19 20 23
4 3 2 4 9 17 11 17 16 15 13 13 12 12 12 12 11 10 9 10 12 14 16 17 18 19 21 21 21 20 20 17 13 12 8 11 15 21 25 25 27 22 19 18

GFSCGP_850_spd_063.txt.gz
Wind_Speed
11 4 6 6 9 12 14 14 16 20 19 12 12 22 15 12 12 16 24 23 25 35 29 27 24 19 17 15 13 14 17 19 22 22 24 26 27 30 43 40 42 38 42 37
4 10 9 9 13 16 17 17 19 19 16 9 11 9 6 6 7 23 27 31 27 35 34 33 28 24 21 17 13 18 16 18 18 18 20 21 23 29 28 42 43 44 39 36
10 11 10 11 20 17 17 17 15 17 19 18 15 8 5 8 12 16 27 38 34 40 39 37 32 28 22 19 17 18 18 19 17 15 13 16 23 31 39 41 43 51 39 31
7 16 14 15 17 13 17 13 17 18 17 12 3 5 7 8 16 16 17 26 36 39 43 40 37 31 24 21 17 17 21 19 18 19 16 21 30 34 36 41 40 47 46 34
4 1 8 16 16 12 14 10 13 18 23 9 11 4 6 8 7 19 12 29 33 43 45 41 38 32 24 22 21 18 21 22 21 20 25 26 29 34 41 46 39 39 40 38
11 11 6 14 13 16 13 13 17 19 9 10 9 4 5 8 11 5 13 26 34 33 45 41 36 31 25 21 21 20 20 25 24 22 25 29 30 38 43 43 44 40 39 36
13 16 11 10 12 20 14 12 4 5 6 5 7 8 12 11 13 9 6 19 36 33 46 42 38 33 28 24 23 22 20 28 27 27 27 31 35 38 38 39 46 45 41 37
6 4 13 14 14 9 7 15 5 3 2 4 13 6 7 16 19 19 4 8 23 33 42 42 38 33 31 26 23 22 24 25 31 32 32 31 35 38 36 39 46 47 50 46
2 4 5 8 7 8 8 16 11 8 8 4 3 5 13 10 7 8 5 21 29 29 37 39 40 34 30 29 26 22 24 22 30 33 35 34 32 35 35 38 46 51 51 49
4 4 6 11 15 14 13 9 5 1 3 3 4 5 4 8 5 7 6 11 14 24 27 37 37 35 31 27 27 25 23 22 22 33 36 37 37 37 39 39 43 49 52 51
3 5 6 6 5 15 7 8 3 3 6 2 0 3 4 8 7 10 11 19 21 19 20 17 34 33 30 30 31 31 27 23 23 23 34 38 39 41 41 42 41 43 46 49
4 4 5 14 16 12 10 13 10 2 2 3 2 4 7 6 7 10 15 23 29 36 35 39 44 11 29 33 33 31 30 26 24 22 25 31 37 41 42 44 44 43 45 44
4 4 3 7 5 5 2 5 12 14 6 4 3 3 12 17 17 13 16 27 26 33 35 31 32 34 22 7 24 30 29 29 27 26 25 27 31 35 44 46 46 44 45 46
4 1 5 4 9 1 4 9 11 13 5 5 7 4 2 12 11 13 20 26 28 29 30 33 31 27 26 23 19 3 22 30 26 30 29 31 32 33 35 40 45 46 46 47
3 3 4 11 14 6 9 13 13 9 11 8 4 12 9 8 15 14 19 24 27 27 29 30 28 26 25 24 21 17 14 19 36 33 29 35 34 34 35 36 39 44 48 51
2 3 5 4 9 12 7 17 14 10 6 15 5 8 10 7 12 22 16 25 22 26 25 23 21 22 23 22 22 22 20 12 13 23 42 37 37 39 39 39 40 40 44 47
1 2 3 3 11 12 6 3 7 4 5 6 8 10 20 16 12 9 22 25 24 25 28 23 19 18 20 24 25 24 24 21 16 8 11 31 43 44 43 44 44 43 45 45
5 5 2 3 5 3 7 17 12 14 16 20 12 11 4 18 22 25 27 28 26 28 24 20 17 15 18 22 23 22 22 22 20 18 15 9 9 30 45 48 49 50 49 49
10 5 2 2 2 9 9 9 4 8 4 8 11 12 16 21 27 18 21 23 23 21 18 16 13 14 16 20 23 23 23 23 23 24 24 22 24 16 16 31 51 51 52 53
12 6 4 2 4 4 3 11 15 3 5 14 17 15 13 18 10 6 28 25 22 17 17 17 17 18 21 24 24 24 24 24 25 26 26 27 30 32 30 25 29 52 54 54
8 7 13 7 4 5 6 9 11 3 2 12 20 23 22 14 11 20 21 20 16 14 16 17 19 22 25 26 27 26 26 25 23 25 26 27 31 35 34 31 29 33 51 52
5 7 5 4 4 8 8 5 2 9 16 19 22 25 24 25 23 23 18 15 14 17 19 19 21 23 24 26 28 29 30 30 29 25 24 28 28 33 35 30 26 24 36 46
2 4 2 8 6 4 16 16 23 23 21 20 21 19 18 22 22 17 14 14 17 18 18 19 21 23 25 27 27 28 28 29 31 30 29 27 26 24 26 26 22 17 22 28
2 4 3 4 9 8 24 23 23 24 26 21 18 15 13 13 9 10 10 12 14 18 19 20 20 22 25 27 27 26 25 26 27 27 25 23 23 22 17 14 10 9 10 16
1 3 3 3 8 21 22 18 23 25 22 19 15 14 13 8 7 6 8 11 12 14 15 16 17 18 19 21 22 22 22 22 22 21 20 18 18 17 15 12 12 9 6 2
4 3 2 3 8 17 16 16 17 15 10 17 15 11 12 8 9 6 9 8 9 11 11 13 14 15 16 17 18 20 19 18 16 17 18 18 19 22 26 25 25 27 26 23

GFSCGP_850_spd_066.txt.gz
Wind_Speed
1 3 11 10 7 6 7 9 9 13 8 9 15 18 10 16 16 15 19 23 37 44 38 32 26 25 25 21 16 13 21 26 25 27 27 25 25 28 33 36 41 44 43 40
1 9 9 9 9 10 9 9 14 16 10 6 16 10 14 14 13 22 26 27 35 33 35 34 31 30 29 23 18 14 22 27 30 28 29 30 28 27 29 38 46 45 44 41
5 3 6 12 12 11 8 10 12 14 15 13 11 9 15 11 7 14 27 35 33 42 42 39 38 35 32 27 21 17 18 26 29 29 28 29 29 32 29 40 49 51 42 41
5 3 7 8 10 7 9 12 16 19 11 5 3 6 19 12 9 5 10 22 27 39 45 44 42 38 34 28 21 17 17 24 27 27 28 27 30 31 33 34 42 49 42 42
4 2 5 9 14 10 12 7 5 5 5 3 6 6 13 6 8 11 8 18 32 42 48 48 47 39 35 28 23 19 17 22 25 24 22 22 22 22 21 30 30 43 42 42
7 5 4 8 11 8 10 7 5 5 4 4 9 6 8 5 11 5 7 9 23 38 48 50 46 40 34 29 24 22 19 22 25 26 26 22 25 22 27 31 35 42 42 33
3 14 6 4 4 9 8 2 1 3 3 5 5 7 13 13 11 11 11 23 21 43 44 44 44 42 35 32 28 25 22 22 25 27 26 27 25 27 28 31 35 42 51 44
4 6 11 9 8 9 11 6 4 5 1 2 12 6 5 10 13 20 25 26 22 36 44 50 47 41 36 32 29 26 24 21 24 27 26 29 30 29 30 36 41 44 49 51
2 4 2 11 7 9 5 6 3 3 2 1 4 5 7 11 12 8 10 6 28 33 41 48 44 39 35 32 28 26 23 22 21 25 28 27 30 32 34 40 42 39 41 44
3 4 5 6 7 5 7 4 3 3 3 4 4 2 2 16 13 10 8 7 11 30 39 42 41 37 33 30 27 25 22 19 18 21 25 29 29 32 35 38 39 39 41 44
3 3 6 4 8 11 4 4 3 1 2 1 1 2 11 13 15 15 17 26 25 16 14 21 27 29 29 29 28 25 23 20 20 19 23 26 32 33 34 38 39 39 40 46
1 1 4 6 9 4 8 8 7 2 5 4 2 3 9 9 13 13 18 24 29 37 33 19 14 9 10 16 20 24 24 23 20 18 20 24 25 32 36 37 38 38 39 42
2 2 3 6 3 3 4 9 13 5 2 5 2 2 1 12 14 22 14 19 27 32 36 41 36 24 18 10 2 8 17 22 23 24 23 23 26 28 32 35 39 39 40 42
4 1 2 3 3 3 6 6 8 9 3 2 5 3 7 5 14 12 12 17 24 30 32 35 35 32 29 26 24 16 7 3 20 28 28 30 29 29 30 30 32 36 39 42
3 1 2 7 12 12 12 8 12 16 12 6 4 11 5 6 5 11 18 19 22 24 33 32 29 27 24 20 16 12 8 9 5 15 27 31 32 32 33 34 35 35 36 39
4 1 3 3 5 8 7 13 12 13 16 14 13 10 3 10 3 7 9 20 21 25 33 29 25 25 24 23 20 16 12 10 5 5 4 14 26 30 36 38 39 39 40 42
2 1 2 3 7 9 5 3 10 8 7 11 5 4 9 5 6 6 6 18 25 26 25 23 22 23 24 22 20 19 18 14 10 7 7 4 8 12 24 34 34 42 46 46
3 2 2 3 5 3 4 13 11 13 9 8 7 6 12 11 16 6 15 27 24 21 22 20 17 17 18 16 16 19 19 18 17 15 12 11 13 13 15 14 24 38 42 43
9 4 2 3 3 6 10 4 5 4 3 7 8 10 24 17 31 22 20 24 23 20 17 14 13 14 15 15 16 15 15 17 19 21 21 20 18 17 19 21 22 22 31 39
6 3 3 2 2 4 3 6 19 6 2 10 7 18 21 24 8 7 13 18 20 18 15 13 14 14 13 16 17 17 17 17 18 19 21 23 25 25 24 23 24 28 31 33
3 2 10 4 3 6 6 2 9 2 2 6 21 17 13 7 12 20 14 17 17 16 16 13 15 17 19 19 19 20 21 21 21 20 20 21 23 25 25 26 27 27 28 33
5 4 3 3 3 8 14 9 5 5 6 17 20 25 28 29 22 17 15 17 16 16 16 16 16 18 20 22 21 21 22 22 22 23 21 20 20 22 23 25 25 24 26 25
3 4 2 6 4 7 22 17 20 21 19 15 18 21 24 22 18 15 15 14 14 14 14 15 16 17 19 21 22 21 21 21 21 20 21 23 23 24 21 20 19 19 18 16
4 2 3 3 6 9 19 27 28 23 25 22 20 19 16 19 14 15 13 12 12 13 16 16 16 18 20 21 21 21 20 19 19 20 20 21 23 25 24 23 23 19 15 12
2 1 3 2 11 14 15 19 19 16 19 19 17 16 14 13 15 12 14 12 12 12 12 14 16 18 19 19 19 20 20 19 20 20 20 21 21 24 29 29 33 31 25 17
5 3 2 2 7 13 11 11 10 9 13 13 10 10 12 10 9 7 9 9 10 10 10 12 14 15 17 17 18 20 20 19 18 19 20 20 20 21 24 29 32 34 34 34

GFSCGP_850_spd_069.txt.gz
Wind_Speed
1 2 8 8 6 4 7 5 7 4 5 4 8 11 12 12 12 12 27 21 32 41 43 38 34 30 27 24 19 14 15 18 19 19 20 20 22 20 22 25 31 31 29 34
2 6 8 5 6 7 8 11 12 11 11 4 9 13 14 14 13 16 20 24 31 37 36 37 36 33 32 26 21 16 16 19 23 20 21 23 23 23 23 25 33 34 33 38
5 4 2 6 8 9 11 10 9 10 5 8 11 13 8 13 6 15 16 24 29 35 40 40 39 37 34 31 24 19 17 20 23 24 26 24 22 21 24 29 32 36 35 37
5 4 4 6 5 7 12 7 10 8 6 4 1 5 6 11 8 4 13 15 25 32 36 42 42 39 38 33 26 20 18 22 24 26 28 29 29 29 28 29 33 39 38 39
6 4 4 5 6 7 7 5 6 3 3 3 4 3 7 2 7 8 7 15 21 32 40 44 47 43 40 34 28 23 20 21 23 26 30 30 29 31 32 34 32 36 45 42
6 4 4 7 5 6 5 9 10 5 3 6 8 6 5 6 6 5 6 15 15 18 37 45 43 43 39 33 29 26 23 21 23 24 27 28 28 28 28 27 32 32 37 46
4 11 5 4 3 6 9 4 3 5 4 6 7 8 11 9 9 8 11 20 20 15 28 38 44 44 40 36 32 29 26 23 23 24 24 23 19 21 22 22 26 28 32 44
3 5 9 7 12 5 13 6 3 4 3 2 5 5 3 6 7 17 24 30 33 20 29 44 49 45 42 39 35 31 27 24 22 22 21 19 19 20 21 21 23 26 29 33
3 4 2 6 5 7 4 11 2 1 4 2 3 5 2 17 17 19 14 19 24 18 34 43 45 43 42 39 35 31 27 25 22 21 20 22 20 22 19 20 24 25 26 37
2 4 2 3 6 6 4 3 4 2 3 3 4 2 3 13 16 16 15 9 4 12 21 30 38 39 39 37 33 29 25 23 20 20 20 21 21 25 22 21 22 26 29 43
3 2 6 4 5 7 3 3 2 2 2 2 1 2 1 10 12 11 12 19 20 13 15 19 20 25 30 31 29 27 24 21 20 19 19 20 22 24 24 24 25 29 32 37
1 2 3 7 7 11 10 7 4 2 4 2 1 3 4 9 13 10 15 23 30 27 24 20 18 13 9 9 15 18 19 20 19 16 18 19 20 22 25 27 28 31 37 35
3 1 3 7 4 5 3 10 9 6 1 4 3 2 5 7 12 21 18 23 28 30 34 36 32 26 20 14 11 7 6 9 14 18 19 19 19 22 23 26 29 32 36 40
3 2 2 2 3 2 6 11 7 8 2 2 4 0 3 5 10 14 21 18 26 29 31 34 36 34 28 23 19 16 12 7 10 15 17 19 19 20 22 24 27 28 30 35
3 2 1 6 7 8 11 12 11 8 6 4 3 8 9 10 6 8 15 12 22 26 28 31 30 28 27 24 18 15 12 8 7 6 9 16 17 20 23 26 27 30 32 32
2 1 2 4 4 8 10 11 11 13 11 11 16 12 5 13 13 6 8 12 20 18 25 25 27 25 25 22 20 16 12 9 6 7 4 3 11 18 21 23 25 29 33 37
2 3 2 4 6 10 7 0 6 5 11 6 11 8 8 14 14 15 16 13 15 15 16 18 21 18 18 19 18 18 15 11 7 5 2 2 5 9 12 16 24 26 31 31
4 4 3 3 4 3 5 12 8 5 5 8 9 9 8 7 21 15 23 20 17 14 11 14 17 13 14 14 14 14 12 11 10 8 8 7 6 7 10 13 16 19 25 29
7 4 2 2 3 6 11 3 3 8 8 2 6 6 9 25 30 20 16 19 17 14 13 12 11 10 8 11 12 10 9 9 11 13 13 13 12 12 12 12 12 16 21 25
5 3 3 1 2 3 4 8 4 6 6 3 5 6 17 22 8 4 11 14 14 13 12 10 10 10 10 10 9 7 9 10 12 13 14 16 18 18 17 15 15 16 17 21
3 2 8 6 3 6 5 12 12 3 5 13 10 22 28 7 7 21 15 13 12 9 9 9 9 11 11 10 10 9 10 12 13 13 13 14 15 16 18 19 19 17 16 17
5 4 3 3 4 7 15 11 3 4 17 15 21 23 30 29 27 19 15 14 12 11 9 10 10 13 13 13 12 13 13 13 11 10 11 12 14 14 15 15 15 16 15 14
1 1 2 5 2 5 10 10 13 11 20 10 22 17 30 24 19 13 13 11 13 13 13 12 12 13 14 14 14 14 15 14 12 12 13 15 16 16 17 16 16 14 13 14
2 3 1 1 8 9 12 19 23 21 24 19 16 14 15 21 16 14 11 10 12 13 12 12 12 14 15 16 15 15 14 13 13 15 16 18 20 22 23 24 25 22 20 17
3 2 3 1 9 14 12 13 18 18 20 18 15 14 14 16 14 11 10 10 11 12 12 12 14 15 16 15 15 15 14 13 13 15 16 18 20 23 26 26 28 28 26 22
5 3 2 2 6 9 8 8 10 17 17 14 12 13 12 11 12 9 12 11 12 14 13 14 15 15 16 15 16 16 14 13 14 16 17 18 19 21 22 24 25 25 24 24

GFSCGP_850_spd_072.txt.gz
Wind_Speed
2 3 7 9 7 5 4 7 11 4 7 5 8 9 11 8 14 15 24 23 28 27 27 41 42 34 30 27 24 20 18 17 19 20 20 19 15 16 15 11 11 25 43 43
1 6 7 5 5 7 8 9 11 6 9 10 9 11 11 10 9 21 23 26 28 27 29 35 40 36 33 32 27 23 19 17 20 20 19 19 18 17 14 14 16 20 20 27
5 3 4 3 4 7 9 11 7 9 10 10 5 16 15 11 10 19 19 26 24 26 32 36 36 36 37 37 31 25 20 17 19 21 19 18 18 17 15 16 22 24 28 28
5 3 3 0 4 5 8 7 11 9 7 5 4 7 7 8 9 7 16 22 21 23 28 32 34 36 41 38 33 26 21 18 18 23 20 19 18 20 20 20 21 25 31 27
5 3 3 3 4 5 6 3 6 5 5 3 2 5 4 6 7 8 8 21 18 12 16 28 34 37 41 38 33 28 22 18 19 22 22 20 21 18 18 19 21 27 28 30
6 3 5 6 4 5 5 4 6 4 2 6 7 7 4 5 7 5 4 11 13 13 13 21 28 34 38 37 33 30 25 19 18 21 23 24 22 23 22 21 22 25 26 30
3 8 4 4 3 3 2 2 2 3 3 4 4 7 10 9 9 5 10 18 19 13 13 24 32 36 40 39 35 32 26 20 18 19 21 23 23 24 23 23 25 23 24 28
2 5 6 5 10 5 6 6 3 3 3 2 1 5 3 5 6 12 13 22 14 14 17 27 32 37 41 39 36 32 27 21 17 16 17 19 19 19 18 16 17 20 22 28
3 4 2 5 3 6 1 7 4 4 3 2 3 6 4 15 16 17 19 24 22 12 17 28 33 35 39 39 36 32 26 20 16 14 15 16 16 17 14 12 12 13 17 19
3 3 2 2 6 4 2 2 2 3 3 4 5 1 3 11 13 12 14 15 18 7 2 16 24 27 30 31 32 30 23 16 13 11 11 11 13 14 15 14 13 13 15 19
2 2 3 5 5 7 4 2 1 3 3 3 2 1 4 10 13 11 13 22 24 18 12 11 15 19 21 24 25 24 20 16 14 10 10 10 10 12 13 16 14 14 15 18
4 2 3 8 4 7 3 5 5 3 2 3 1 3 3 8 13 13 16 22 26 30 26 21 16 16 17 17 16 15 14 13 11 9 8 9 8 10 11 15 15 15 15 16
7 3 2 2 3 6 4 1 2 3 1 3 2 2 2 9 13 20 18 21 25 27 28 31 31 28 24 18 13 10 10 11 11 11 11 10 10 8 10 9 13 17 18 19
4 2 2 2 3 2 4 8 6 2 2 2 3 1 3 6 9 13 19 21 25 25 26 30 30 29 27 23 18 14 10 9 10 9 10 12 12 11 11 12 13 14 15 20
3 2 2 3 3 1 4 8 11 8 9 4 3 5 6 10 4 4 16 17 20 21 24 28 29 27 26 23 19 15 10 6 4 13 16 15 16 13 13 13 14 17 20 22
4 2 0 3 2 6 5 10 9 11 12 10 13 12 9 10 15 8 11 17 13 18 17 21 24 25 24 20 17 15 11 7 9 9 8 9 10 14 15 16 19 19 20 19
1 4 2 2 4 7 6 4 5 5 5 6 6 2 8 11 14 18 20 11 15 13 14 17 20 22 18 19 18 15 13 10 8 6 6 7 6 7 9 13 16 18 21 24
2 3 2 2 3 1 5 10 4 1 4 10 7 3 7 11 9 17 18 18 14 11 12 14 15 17 14 15 13 12 10 10 9 9 7 6 3 2 7 11 13 15 17 20
4 3 2 2 2 5 8 3 4 3 9 3 3 5 15 22 17 12 14 17 18 14 12 12 11 11 11 11 13 11 10 10 9 10 10 10 8 6 4 3 5 8 11 15
5 4 2 1 2 4 5 4 14 5 5 7 6 5 14 13 5 3 8 12 14 12 12 10 9 9 7 12 9 8 10 10 10 13 13 12 9 8 8 9 9 7 7 8
3 2 5 4 3 6 4 9 9 1 4 9 14 12 23 3 8 19 14 15 10 7 7 8 7 7 9 9 9 10 11 12 14 13 14 13 13 12 12 10 8 8 8 8
4 4 3 3 4 7 13 7 0 1 8 16 24 17 28 29 26 20 15 14 9 7 6 8 8 10 10 10 10 11 11 12 11 12 13 14 14 14 14 13 12 12 11 9
1 3 3 5 2 5 9 6 10 11 11 13 22 20 18 25 24 19 15 13 10 8 8 8 9 10 11 11 10 10 12 10 10 10 12 15 16 17 18 17 16 17 18 18
4 2 3 1 5 8 12 12 13 17 21 17 19 20 21 20 21 19 14 11 8 7 8 9 10 13 14 13 12 13 12 11 11 12 14 14 16 18 19 20 21 21 23 23
2 6 5 2 5 13 16 13 13 16 19 19 20 18 19 16 17 14 13 11 8 8 9 10 11 13 15 14 14 13 13 12 13 14 16 17 18 19 20 23 24 25 25 23
5 3 2 2 7 7 10 11 12 17 18 16 18 18 16 13 15 11 12 11 11 12 11 13 14 15 17 17 16 15 14 12 13 15 16 16 16 17 17 18 18 19 18 17

GFSCGP_850_spd_075.txt.gz
Wind_Speed
5 7 12 11 9 12 12 13 17 15 12 17 22 21 18 18 16 14 18 20 23 27 25 25 25 31 33 29 28 26 23 20 18 19 20 19 18 16 17 18 17 14 28 40
2 10 11 6 6 9 11 14 17 12 13 13 19 23 18 16 18 20 22 24 24 26 24 26 29 28 35 33 31 29 25 21 20 19 21 21 19 15 18 15 12 17 21 33
6 2 5 7 6 6 9 11 13 12 15 18 20 24 23 20 20 19 23 23 24 24 23 26 30 31 34 36 34 33 26 22 19 19 20 18 16 16 17 14 15 10 15 32
6 4 6 6 5 4 3 5 10 12 9 5 1 8 11 12 15 14 20 18 24 24 25 27 31 34 35 37 36 33 27 22 19 21 22 19 19 19 18 18 18 16 16 19
3 3 4 8 7 7 4 4 7 10 11 11 11 8 3 7 7 10 11 19 21 21 20 24 31 32 31 35 36 35 28 23 19 20 22 19 17 17 17 16 18 18 22 22
5 2 3 5 4 6 2 5 11 8 6 6 14 13 3 5 3 5 5 10 11 12 16 20 23 26 28 32 36 34 29 24 19 18 21 19 17 18 15 17 18 19 19 22
3 5 4 5 5 4 5 4 3 2 4 5 3 9 14 13 8 6 10 15 16 12 11 16 22 28 31 32 36 35 31 26 20 18 21 20 17 16 16 15 14 17 18 22
2 1 5 4 10 3 7 6 3 3 3 3 0 6 2 8 9 10 11 13 14 14 11 21 23 24 27 30 34 37 34 27 20 17 17 20 19 19 18 17 18 20 21 20
4 3 2 3 3 7 4 5 1 3 5 5 5 6 9 12 13 14 17 18 19 14 10 17 19 19 21 25 29 34 33 25 18 14 15 16 18 18 18 16 14 14 15 17
2 3 0 2 4 4 1 5 2 3 3 5 6 6 4 12 14 14 16 18 19 13 8 9 13 15 18 22 26 31 29 22 16 14 13 13 12 13 14 10 10 10 10 13
1 3 1 5 5 8 4 2 2 2 4 3 4 1 4 8 9 10 11 16 18 20 10 7 11 14 17 19 24 27 25 22 16 12 11 10 10 11 11 11 11 9 8 12
2 1 5 8 3 7 4 2 4 3 2 4 3 3 2 11 12 11 13 15 16 18 19 14 16 17 18 19 22 22 21 18 15 12 10 10 9 9 9 10 10 11 11 11
3 1 2 7 4 4 3 3 3 3 2 5 3 1 4 10 13 17 16 16 17 17 20 24 27 25 23 21 22 21 19 16 12 9 7 7 7 6 7 7 7 9 10 10
6 4 5 2 4 3 2 4 3 5 3 5 6 6 3 8 6 10 15 14 19 20 20 24 29 26 25 23 21 19 17 14 11 9 7 7 7 5 4 6 7 7 8 10
2 3 7 6 4 4 2 6 8 8 9 5 5 6 9 6 8 5 7 12 18 18 21 24 25 25 23 22 20 19 18 13 12 12 10 10 10 10 9 8 9 9 10 11
3 3 5 3 6 1 4 9 5 6 9 13 15 16 9 14 12 17 9 12 14 16 18 20 22 23 22 19 18 18 18 18 12 10 9 7 7 9 12 12 12 12 12 13
3 1 2 1 3 7 4 5 6 5 6 9 9 7 2 6 13 19 22 18 13 15 16 20 22 22 20 19 16 15 15 13 10 6 0 4 5 6 8 10 12 13 15 16
3 5 1 1 2 3 2 8 3 3 4 9 11 4 9 13 18 21 15 16 15 16 15 17 18 17 16 15 16 14 15 13 8 5 6 4 4 5 6 7 9 9 10 13
12 4 1 1 2 6 3 4 4 3 5 10 8 5 9 16 16 15 15 14 16 20 18 17 15 14 13 14 13 12 11 10 11 10 8 6 5 4 3 3 3 5 7 10
7 2 1 1 2 4 0 2 10 4 6 11 13 10 9 12 5 3 14 15 17 17 14 14 13 12 11 10 10 10 11 10 13 12 11 9 9 7 6 5 4 5 3 3
5 3 8 6 4 6 5 13 6 4 3 13 15 17 13 5 10 21 19 19 18 16 13 12 11 12 12 10 8 9 11 14 14 12 11 11 10 10 9 9 9 8 8 8
2 5 3 5 5 6 12 4 2 6 6 9 14 20 22 21 25 25 20 18 18 16 13 13 13 14 13 11 10 12 14 13 12 14 14 15 15 15 13 12 11 10 10 9
1 2 1 4 1 6 9 8 7 11 9 9 11 13 21 20 21 22 20 19 18 16 14 14 13 14 14 14 13 14 15 13 12 14 18 18 18 20 19 19 19 18 17 18
2 7 2 4 5 10 11 12 11 11 15 13 13 17 20 23 19 20 18 17 17 14 14 13 13 14 16 15 15 17 14 14 14 16 19 21 22 23 23 23 23 23 24 24
4 6 5 0 8 13 19 16 12 15 17 18 16 16 17 16 16 15 16 15 14 13 12 12 14 15 16 15 15 15 14 13 14 17 19 20 21 21 22 22 22 22 22 19
5 4 2 2 6 11 9 10 11 16 16 15 16 17 15 14 16 13 15 14 14 14 14 15 16 17 18 16 16 15 14 13 13 15 17 18 18 18 17 17 17 17 16 14

GFSCGP_850_spd_078.txt.gz
Wind_Speed
15 11 15 16 16 17 14 13 17 16 16 19 21 22 20 19 22 19 21 22 21 22 20 17 13 16 19 24 26 27 27 25 22 20 20 20 19 18 18 18 21 19 25 32
7 15 14 12 13 16 16 15 16 16 12 12 19 22 18 17 19 27 25 23 24 21 21 20 15 18 22 26 27 29 29 27 23 21 19 19 19 16 16 17 18 20 18 25
14 5 3 12 13 13 14 14 12 13 14 19 21 23 17 17 28 30 27 28 26 25 22 23 18 19 21 26 29 30 29 26 24 18 17 17 17 19 18 20 18 17 21 22
10 10 11 9 12 10 10 3 6 9 9 9 6 7 12 10 12 18 24 25 25 26 24 23 19 20 24 25 25 27 25 26 22 20 17 19 20 21 18 18 17 16 14 12
2 5 6 13 17 10 9 3 7 10 12 14 13 8 3 7 7 13 16 23 25 24 24 23 21 20 22 25 27 27 26 26 22 20 17 16 18 18 17 19 17 16 12 8
13 5 6 9 5 9 3 8 12 12 9 8 12 11 4 3 7 5 7 4 7 11 13 16 17 18 22 25 27 28 28 27 24 20 18 20 19 17 14 19 19 17 17 14
4 13 11 10 10 8 10 8 5 7 5 6 1 6 12 11 11 12 9 12 10 9 8 10 16 19 24 27 30 32 29 28 26 21 18 20 17 18 16 14 17 18 17 20
6 5 8 9 13 3 10 11 6 6 4 6 3 7 2 5 4 6 8 12 13 10 8 8 11 17 21 24 28 33 29 28 26 21 20 21 19 18 17 16 15 15 18 19
4 5 4 8 4 9 6 7 4 6 13 7 8 9 6 3 6 9 12 14 17 18 14 5 10 15 20 23 27 31 31 29 25 21 19 20 20 19 19 18 18 18 18 18
3 8 5 3 6 6 7 2 3 5 4 5 4 7 1 11 12 12 12 15 17 18 14 4 8 13 17 20 23 28 28 26 25 21 21 17 18 19 18 17 17 15 15 15
7 8 5 6 10 8 7 7 3 2 5 4 5 2 6 7 9 11 12 15 16 17 15 6 7 10 16 17 21 28 23 23 22 21 20 17 15 16 18 15 14 15 14 14
3 5 11 16 8 8 10 8 8 4 4 2 3 2 7 8 10 10 12 14 14 13 14 15 13 11 15 15 19 23 19 19 17 21 21 19 17 15 13 14 14 13 12 12
7 5 7 8 7 10 11 7 5 3 2 3 4 2 8 5 10 10 11 12 14 14 14 18 20 20 22 22 21 23 19 19 19 17 19 17 15 14 14 14 13 12 10 10
9 7 11 9 2 2 9 11 10 5 3 4 6 12 5 7 5 4 9 11 13 15 15 17 22 22 22 22 24 24 24 22 19 17 19 18 14 10 9 8 9 10 11 10
3 7 12 5 2 13 4 7 8 11 10 6 9 11 13 12 4 6 10 9 14 16 15 18 21 21 20 22 21 21 23 21 19 17 17 15 13 12 10 10 12 11 10 10
1 4 10 7 8 16 9 10 8 8 5 9 11 12 4 9 6 13 15 13 10 14 13 16 17 19 20 20 21 19 20 20 17 16 15 13 12 10 10 10 10 11 12 12
3 5 10 5 8 8 10 11 5 4 4 4 8 12 9 9 4 15 15 15 15 12 12 14 17 20 19 18 18 19 18 17 17 15 14 12 10 8 7 9 10 11 12 12
3 11 4 3 3 6 7 3 1 3 2 8 8 11 7 9 18 19 13 13 14 11 13 16 15 16 19 18 19 18 17 15 15 13 10 9 11 5 4 5 6 8 9 8
12 4 3 2 3 6 3 6 5 6 4 10 11 11 9 10 12 16 8 10 15 12 16 16 15 17 18 18 17 17 18 16 15 15 13 11 7 2 3 5 6 8 10 9
7 12 7 3 1 1 7 3 9 7 4 11 14 13 12 13 4 3 7 12 13 13 15 16 16 16 16 17 15 13 14 13 13 12 10 7 3 6 6 5 6 6 6 6
5 7 10 6 3 2 6 10 7 6 4 14 13 14 14 2 6 19 15 16 14 13 14 14 14 17 17 14 12 11 11 13 11 9 9 9 9 9 9 8 9 9 10 10
6 6 4 3 3 3 15 2 4 7 6 8 10 11 18 19 20 21 18 17 15 16 16 15 15 14 14 14 13 14 15 15 14 12 13 14 14 13 12 11 11 12 13 14
2 5 3 5 4 6 11 10 6 8 8 6 8 10 15 18 20 19 18 17 17 17 16 15 16 16 16 15 14 14 14 13 13 13 15 16 16 16 15 15 13 15 16 17
4 9 3 5 9 9 10 9 10 12 12 10 11 13 16 19 17 18 17 16 17 17 16 15 15 16 16 15 16 15 14 13 13 15 17 17 17 17 18 17 17 18 18 17
4 8 6 3 6 9 11 11 11 13 13 15 15 14 14 15 15 14 15 15 16 17 17 16 16 16 15 15 15 15 13 12 14 15 15 15 17 20 20 20 20 20 19 17
6 4 3 2 5 8 7 9 10 13 13 12 12 13 13 13 14 15 16 15 16 17 16 16 16 16 16 15 16 15 14 12 12 14 14 14 13 12 12 14 16 16 15 12

GFSCGP_850_spd_081.txt.gz
Wind_Speed
15 12 16 18 17 20 19 19 21 18 17 19 21 23 22 24 29 24 25 24 24 21 19 22 26 17 21 25 27 28 25 24 22 20 19 18 21 17 19 20 20 23 21 22
10 15 17 13 15 16 17 19 20 20 17 15 22 23 20 22 23 29 29 28 28 24 23 25 24 20 22 26 28 27 26 26 23 20 17 17 19 14 16 17 16 18 21 20
15 15 2 9 15 16 18 18 18 19 17 19 22 24 24 23 29 33 31 31 30 25 25 25 27 22 23 26 28 28 26 25 24 19 17 16 13 17 16 16 15 17 17 16
15 15 17 16 18 16 17 17 12 13 14 13 18 15 19 17 14 15 21 29 25 26 24 24 26 27 25 26 26 27 26 25 23 22 17 16 18 18 15 14 15 18 18 18
14 10 10 14 16 14 14 8 11 16 16 18 21 13 15 7 12 9 9 14 25 26 25 27 27 28 26 25 27 28 26 24 23 23 17 17 15 15 13 12 15 17 18 15
16 16 9 14 9 10 14 8 17 20 15 14 21 17 12 5 9 10 8 7 11 19 24 25 25 29 25 25 27 28 28 27 24 23 19 17 17 16 15 14 17 17 16 12
18 17 17 7 13 9 9 10 7 9 10 11 7 4 12 3 9 4 6 8 11 10 11 12 16 19 19 27 30 29 29 28 26 23 19 17 16 16 14 13 16 15 15 14
14 10 12 10 16 11 12 13 8 7 6 12 7 6 4 11 5 3 5 10 12 16 17 10 19 20 23 27 29 29 30 29 27 23 19 17 15 15 14 12 11 14 16 14
13 13 9 9 7 12 6 10 16 15 18 12 10 15 14 13 11 11 12 13 14 14 16 18 8 14 20 24 28 29 28 30 27 22 18 19 19 16 14 14 11 11 12 14
17 17 14 14 8 12 14 4 5 6 5 9 12 14 7 11 13 14 14 15 17 19 20 22 4 9 16 21 22 30 25 29 24 21 19 19 17 14 14 14 16 16 12 14
17 15 18 11 12 16 10 12 8 5 6 4 6 4 6 11 12 12 12 15 16 19 20 21 14 2 14 16 16 27 25 25 24 23 17 17 18 15 15 14 13 11 11 13
10 8 14 21 17 16 9 13 13 6 7 5 5 1 7 8 6 8 12 13 14 15 17 15 11 11 9 11 16 25 19 21 22 20 19 17 15 15 14 13 10 12 11 10
6 6 10 17 14 14 12 17 10 6 2 11 6 1 8 6 6 1 7 11 12 14 16 16 13 11 13 17 20 24 18 19 21 21 21 20 17 12 10 11 10 10 9 8
1 5 14 15 6 3 9 20 11 13 5 7 9 11 10 9 6 2 8 11 10 13 15 16 14 13 14 17 19 21 24 25 22 23 22 20 17 15 13 13 7 6 7 5
5 9 14 20 25 7 1 15 16 16 11 7 11 13 12 8 8 7 10 10 12 13 14 16 16 14 13 15 20 23 24 23 24 24 22 21 20 18 16 15 16 15 13 11
4 9 11 19 22 12 8 14 12 8 9 10 10 10 10 15 10 9 10 10 13 12 14 14 15 13 12 15 15 19 21 22 21 23 23 21 20 19 18 18 18 17 16 16
6 5 6 11 18 8 4 17 17 8 5 6 7 13 17 15 11 13 13 12 12 11 12 15 15 14 14 13 16 18 20 19 19 20 19 18 18 17 15 16 15 16 16 18
9 10 3 12 15 11 7 4 0 3 1 8 9 12 8 12 16 18 14 13 12 11 12 14 12 12 14 16 18 17 18 18 19 19 17 16 15 15 13 11 12 10 10 11
13 7 4 6 10 7 12 6 3 5 6 11 9 11 6 11 12 13 9 9 10 11 12 11 15 12 14 15 15 18 19 18 17 20 18 15 14 12 10 10 9 6 5 7
11 12 4 9 3 5 9 8 4 7 4 11 13 12 15 8 5 4 8 10 11 10 11 12 12 14 13 16 16 18 20 19 20 19 17 13 17 16 13 11 10 8 6 6
8 8 12 7 3 8 13 9 8 7 5 13 12 13 15 5 5 15 13 12 10 10 11 11 13 13 15 15 14 17 17 19 19 18 16 17 16 14 14 12 10 11 10 9
6 4 4 5 3 3 23 5 6 7 5 10 11 10 12 14 14 16 15 15 13 12 12 10 15 17 16 14 13 15 16 15 14 13 13 14 15 15 16 15 14 13 13 14
2 4 3 6 4 12 16 12 10 10 10 11 9 10 11 12 13 13 13 13 15 13 12 11 13 16 17 16 15 17 16 15 15 15 15 14 14 14 15 17 17 17 15 15
3 14 4 3 7 10 13 11 11 11 12 11 11 11 10 13 12 13 11 11 13 15 13 12 14 16 18 18 18 17 16 15 17 19 19 18 19 18 17 17 18 19 17 15
6 8 8 4 5 5 12 11 9 11 13 14 14 12 11 12 13 11 11 12 14 14 15 14 15 16 17 16 18 16 15 14 16 17 17 18 20 21 20 20 20 19 16 14
7 4 4 3 7 6 8 8 7 11 12 12 13 13 11 9 10 10 11 10 11 12 13 14 15 15 15 15 15 16 16 13 13 14 13 14 13 13 14 16 17 17 15 11

GFSCGP_850_spd_084.txt.gz
Wind_Speed
17 11 15 18 19 19 17 19 20 22 20 19 20 22 22 22 25 22 27 29 23 26 25 30 29 32 33 27 33 35 36 35 27 31 24 21 19 19 18 20 20 21 21 20
14 15 16 16 16 15 16 19 20 19 21 20 22 24 21 20 23 27 26 27 28 23 29 23 21 23 26 24 32 34 35 31 31 31 22 20 16 13 16 17 19 20 21 21
17 17 12 8 13 15 17 18 18 22 20 21 20 26 24 23 30 36 31 27 29 24 28 27 25 23 27 23 34 35 34 30 32 24 21 21 19 17 15 15 14 17 18 22
14 17 17 16 18 14 17 17 19 17 16 14 16 16 21 20 18 13 20 30 28 28 33 29 26 29 29 30 29 33 32 31 31 26 24 24 20 22 19 16 15 16 17 17
11 11 12 14 16 16 18 17 15 13 16 19 20 14 16 21 20 18 10 16 20 28 23 22 26 27 30 32 31 33 34 31 32 28 26 24 18 15 12 11 15 16 17 18
18 19 15 13 13 15 9 13 16 15 14 13 22 17 17 15 7 12 13 18 18 6 17 19 24 26 29 33 33 35 35 30 28 30 25 18 12 16 14 17 19 20 20 18
17 19 19 17 11 12 10 11 8 11 10 13 14 10 17 11 3 4 9 20 21 26 29 25 19 30 29 38 37 36 33 30 29 27 25 19 19 19 14 17 18 18 17 18
16 16 16 18 14 10 14 13 8 9 7 11 6 7 1 13 16 27 29 25 22 25 27 27 31 21 16 37 36 36 32 30 30 26 26 20 19 17 17 16 14 16 13 15
11 17 8 3 9 10 10 12 14 18 17 14 11 15 7 22 18 17 19 20 22 25 25 27 28 21 7 32 34 32 31 31 28 28 24 21 19 14 15 14 13 12 13 13
11 14 19 15 13 14 15 7 5 3 4 8 8 6 6 12 13 11 12 14 15 19 20 22 25 28 7 20 25 26 28 33 27 24 22 19 21 17 17 16 13 11 9 10
13 8 13 22 10 15 13 13 12 5 8 3 4 3 1 4 3 8 8 11 9 12 16 18 20 21 17 5 17 23 19 28 30 21 23 22 18 16 14 14 14 14 10 9
8 4 13 20 20 21 20 15 16 8 7 6 9 3 7 7 5 3 8 11 9 10 14 15 15 17 13 12 8 11 15 23 31 16 21 19 18 17 14 13 12 13 12 10
1 5 8 15 16 16 8 11 20 18 3 9 5 4 7 8 5 8 9 12 10 11 15 14 14 16 13 11 8 14 16 21 25 18 16 17 15 16 12 12 12 13 10 9
7 9 11 14 10 14 14 17 17 12 6 5 7 9 11 10 6 9 12 12 11 12 16 14 14 15 13 11 12 11 17 21 25 23 24 22 20 18 17 17 14 13 10 9
11 16 17 21 24 16 16 22 10 17 15 8 9 9 14 11 7 15 12 11 12 14 17 17 15 14 13 12 12 15 18 24 21 23 22 22 21 20 19 18 17 16 15 13
10 12 17 20 20 19 25 20 6 9 10 7 19 3 14 18 16 15 12 11 12 15 15 16 15 12 14 13 12 12 14 17 22 22 21 20 19 17 16 17 17 16 15 14
11 4 8 14 14 14 12 18 10 11 19 10 3 8 12 12 14 16 13 12 12 13 14 19 16 14 13 13 11 12 14 16 20 23 21 20 20 20 21 21 19 19 18 15
15 11 7 7 9 7 12 12 13 6 17 12 10 14 11 12 13 15 13 11 12 11 14 16 15 17 15 13 12 11 12 15 20 22 21 19 19 18 17 18 19 18 18 19
16 10 5 4 5 15 17 7 8 6 9 16 16 16 13 11 9 12 10 9 11 12 13 14 15 15 18 19 15 14 17 17 18 19 19 18 18 17 15 16 17 17 15 15
15 10 3 3 2 4 7 17 5 3 6 14 15 12 12 5 3 3 6 8 9 9 10 14 15 15 15 16 16 17 18 17 20 20 21 19 16 18 20 18 16 16 14 15
8 4 9 9 6 3 17 18 8 1 5 14 13 11 14 5 6 9 8 10 11 13 12 14 16 18 16 14 14 17 19 19 14 17 19 21 16 17 14 17 15 15 15 13
7 6 5 7 6 5 29 13 7 6 15 12 13 12 15 15 13 13 13 13 13 15 15 16 19 19 16 15 14 17 19 14 16 17 16 15 18 19 21 16 18 17 17 17
2 4 3 6 3 8 17 15 12 12 13 13 13 12 11 14 14 12 12 14 16 15 14 15 18 18 19 17 17 17 15 15 16 18 19 18 16 17 16 16 19 19 18 18
10 17 4 3 8 12 16 15 15 15 15 13 12 12 11 14 13 13 12 13 14 15 15 14 16 17 20 18 16 16 13 13 13 14 14 13 13 15 16 16 17 17 18 16
7 8 9 4 5 7 16 15 12 13 13 14 13 13 12 14 14 13 13 14 13 14 15 14 14 13 14 15 17 15 10 10 15 18 21 22 21 20 18 19 19 18 17 14
8 5 4 3 10 5 9 10 11 14 14 12 12 14 13 12 13 12 13 11 11 12 12 13 14 14 14 13 13 14 15 12 11 15 17 16 16 17 19 19 19 19 16 14

GFSCGP_850_spd_087.txt.gz
Wind_Speed
13 4 8 9 11 16 16 16 15 12 12 10 15 15 15 18 26 24 29 36 33 37 37 29 21 38 39 39 37 41 48 44 36 32 32 29 27 25 22 20 19 18 21 24
5 9 13 13 16 16 17 13 8 8 9 12 15 14 11 13 18 21 28 35 34 35 36 32 29 25 33 35 29 42 48 45 38 33 30 28 27 23 17 18 19 20 23 26
9 10 16 17 16 10 9 6 8 13 13 14 12 21 10 14 18 28 31 39 35 33 33 33 29 28 23 38 35 45 48 43 37 31 25 27 22 17 18 21 21 20 22 24
10 12 13 12 11 7 11 8 14 14 12 9 3 16 15 17 20 21 20 31 32 33 33 31 28 27 20 29 40 44 43 39 33 29 29 32 29 27 22 17 14 17 20 21
7 9 8 7 8 5 13 9 8 7 13 9 13 10 13 16 20 17 13 37 11 27 17 21 25 28 21 34 41 40 39 37 31 28 30 31 28 23 19 16 15 17 18 18
12 17 7 8 8 4 6 5 7 8 7 9 19 5 8 8 8 5 11 21 25 26 11 8 7 7 13 34 42 41 37 33 31 28 30 29 27 25 21 19 16 19 19 21
14 16 19 16 10 3 4 2 3 3 3 8 5 6 2 22 16 16 15 21 23 29 24 19 19 13 1 20 45 43 41 36 32 30 31 28 22 22 17 18 19 20 22 22
8 14 9 14 17 9 7 8 4 4 3 10 17 4 2 6 21 22 16 15 23 30 28 24 23 20 8 21 42 43 38 36 33 30 31 26 21 21 18 15 18 17 18 19
6 6 12 11 4 9 4 6 14 11 10 8 6 7 10 9 10 13 21 24 27 31 30 27 26 25 15 15 43 43 38 33 33 28 25 24 22 24 18 19 17 11 13 15
6 8 7 10 10 6 8 4 3 2 4 5 5 2 2 11 7 9 11 16 22 27 28 25 25 25 19 7 19 33 32 29 29 25 26 25 24 21 18 15 15 12 13 15
7 1 9 11 3 6 5 6 4 4 5 3 4 2 3 7 8 5 8 16 21 22 23 23 23 21 21 15 12 8 16 24 25 27 27 24 20 20 20 17 15 12 13 12
3 3 6 16 21 18 17 10 5 7 6 5 0 1 5 10 7 6 11 12 18 20 21 22 21 19 19 16 9 13 21 19 28 27 22 21 24 21 18 16 16 14 11 10
5 3 5 10 7 7 8 8 11 15 0 8 6 3 10 11 5 15 13 13 15 20 21 22 20 19 18 16 12 9 11 14 15 19 22 24 20 18 18 17 15 14 12 11
2 3 6 8 13 11 11 20 17 6 4 4 5 6 1 1 13 12 13 11 13 18 20 20 20 19 16 15 12 6 10 14 13 19 23 21 22 21 18 18 18 16 14 15
2 5 8 13 18 19 17 21 17 14 16 5 9 11 9 13 14 12 13 10 16 18 20 19 20 18 15 12 12 8 11 14 17 19 21 21 20 19 20 20 19 18 17 16
3 3 5 11 17 18 21 19 16 14 15 8 2 7 12 18 18 17 13 12 15 16 16 17 18 17 15 13 12 10 11 15 18 22 21 21 20 21 20 20 20 20 19 17
7 3 2 8 13 12 10 13 16 10 7 1 0 5 4 9 13 15 12 12 14 14 15 17 18 17 16 14 12 12 12 12 17 20 21 20 21 19 19 21 25 25 23 20
12 5 3 6 10 5 3 14 9 18 11 12 14 11 8 13 16 17 14 12 14 14 14 14 15 15 17 16 13 10 11 12 14 19 18 17 19 19 20 20 19 21 23 22
16 7 2 3 3 8 5 9 8 0 9 16 12 11 9 15 15 18 13 11 12 12 14 14 13 14 14 18 19 17 16 14 14 15 16 17 17 18 19 22 23 21 21 21
10 12 6 2 3 4 10 17 32 20 6 13 12 9 7 8 0 3 8 10 11 11 11 13 13 14 13 15 16 22 22 19 21 20 18 18 17 17 19 18 19 17 15 18
4 4 9 6 2 3 9 27 34 3 4 13 12 12 16 6 8 10 12 13 15 14 14 13 14 17 17 16 14 19 19 21 19 16 16 18 17 17 19 15 17 14 16 18
3 2 3 4 4 1 27 10 7 6 14 13 14 12 18 19 17 15 15 15 14 15 14 15 17 17 16 15 16 21 22 16 15 14 15 15 15 18 17 16 17 18 15 15
3 4 2 5 3 7 12 13 15 14 14 12 13 11 14 17 16 15 16 16 16 14 13 16 18 18 19 18 18 18 15 13 11 10 12 13 13 15 15 15 18 18 18 16
10 19 3 4 5 11 15 16 17 16 15 12 12 11 13 17 15 14 13 13 13 13 13 10 12 15 17 17 20 19 17 15 10 10 12 11 11 13 14 14 16 18 18 18
4 7 6 5 9 11 14 14 11 13 14 16 14 13 15 16 14 13 13 11 11 10 9 8 9 11 14 13 15 17 14 14 19 20 19 17 15 13 15 16 17 17 17 15
7 4 3 3 7 9 7 8 8 15 16 14 14 15 14 12 12 10 12 10 9 9 8 9 11 10 10 11 14 14 12 11 14 15 16 18 18 17 17 15 19 20 17 15

GFSCGP_850_spd_090.txt.gz
Wind_Speed
5 3 8 10 9 6 8 9 14 15 11 5 8 13 17 16 20 19 24 31 35 39 42 42 38 35 30 39 44 43 37 41 42 40 36 36 36 35 31 29 27 25 23 22
1 10 14 11 10 10 10 13 17 16 13 6 15 21 20 12 11 24 28 29 34 41 44 45 44 34 33 26 40 43 42 37 42 46 45 39 35 34 31 32 30 27 24 24
9 11 11 13 13 11 10 9 6 11 8 7 5 17 16 7 12 24 28 20 21 26 34 42 40 37 33 31 26 39 43 38 48 49 45 37 31 30 28 28 30 29 28 26
8 14 14 13 9 14 12 8 7 7 5 10 4 11 7 8 16 17 17 19 25 30 27 18 24 30 31 33 27 36 42 43 49 52 47 38 35 36 33 29 29 27 28 28
7 4 4 5 4 4 7 6 5 5 5 6 16 5 4 9 10 19 20 23 25 32 27 24 15 14 18 19 24 38 45 45 49 49 45 38 34 35 29 24 24 25 28 26
8 5 4 6 6 5 1 2 4 3 0 9 18 7 2 2 6 16 18 28 23 32 32 27 22 9 4 13 22 41 47 45 50 46 42 36 34 31 26 24 24 22 22 23
5 6 4 6 8 3 4 5 3 4 0 6 4 4 5 4 12 11 13 21 26 28 30 30 32 20 4 15 26 33 42 44 41 42 36 33 31 28 24 23 21 21 22 21
3 5 5 9 4 10 8 8 5 6 4 10 8 6 2 5 10 12 10 13 30 35 29 27 26 23 12 6 29 27 32 39 42 39 35 29 25 23 21 21 20 18 17 19
4 4 11 6 8 2 4 5 9 5 7 6 4 2 2 5 5 5 11 14 16 18 26 26 26 25 19 6 22 32 38 44 39 36 32 27 25 23 24 18 16 15 15 19
4 5 3 8 8 6 5 1 1 2 3 5 4 4 2 6 8 9 7 11 12 16 21 27 28 24 21 11 11 21 34 37 34 32 28 25 23 21 21 16 17 16 15 18
4 1 3 6 5 7 9 6 5 4 4 4 4 4 4 7 6 6 5 11 18 21 25 27 27 25 21 16 13 10 15 24 25 25 25 24 23 21 20 16 17 15 15 18
3 3 4 4 11 13 9 5 3 3 5 4 4 9 6 8 5 10 11 12 15 21 23 25 26 25 24 23 20 6 2 5 12 20 24 25 20 21 19 18 17 16 15 15
1 3 4 10 4 6 5 7 9 9 8 4 3 5 4 4 10 12 12 16 19 22 25 28 28 27 26 22 19 16 13 26 23 21 28 26 23 21 20 18 15 16 14 13
1 3 4 4 9 9 14 15 10 5 4 8 9 12 11 10 9 7 12 14 17 21 25 27 28 26 25 22 16 13 9 20 24 24 32 28 27 22 21 19 19 17 16 15
3 2 1 6 11 14 16 15 15 13 13 8 10 16 8 7 10 10 11 11 16 21 25 27 26 26 24 23 20 14 11 10 18 23 31 31 28 24 22 19 17 16 17 16
4 3 3 14 12 14 16 16 17 15 15 15 17 11 4 15 15 14 12 13 16 18 21 23 24 24 25 24 22 18 13 10 15 21 19 25 25 23 22 20 20 18 17 16
5 3 2 8 6 12 11 9 15 13 7 9 10 3 8 7 12 16 13 14 15 16 17 21 22 23 21 20 20 20 16 9 10 16 19 22 24 23 25 26 27 21 20 19
5 6 4 4 7 4 1 16 10 11 8 3 10 5 9 13 16 13 13 12 14 16 16 17 18 20 18 17 17 15 15 12 10 10 13 17 20 21 23 24 24 24 23 23
14 6 3 2 3 11 8 7 5 2 6 7 8 3 11 16 13 15 11 11 11 12 14 17 16 17 17 17 16 17 17 16 14 15 14 12 8 11 17 22 22 22 24 23
5 10 6 2 3 3 3 12 14 3 3 7 5 4 0 13 1 2 7 9 11 12 12 14 17 18 17 17 14 16 20 21 22 20 18 17 15 13 14 12 14 17 18 21
3 4 7 5 4 3 12 20 17 3 3 8 10 14 10 5 7 9 9 13 13 13 13 13 16 18 19 18 14 15 17 19 17 16 16 17 19 18 19 18 15 14 15 15
2 3 3 4 1 2 24 7 6 4 11 11 15 13 17 18 16 15 14 13 12 13 14 14 15 16 16 15 16 17 17 13 12 11 12 15 15 15 15 18 18 17 17 14
4 5 2 5 3 5 11 11 12 12 13 12 14 10 13 17 16 15 16 14 14 11 13 12 14 14 15 17 18 14 13 11 10 10 14 14 13 14 13 15 17 15 16 19
7 12 2 2 4 9 15 13 14 13 14 14 13 14 15 18 14 14 13 12 11 11 11 10 11 14 15 15 16 19 17 10 8 9 12 13 13 13 13 14 15 15 18 19
4 9 5 3 6 8 13 13 10 12 14 15 15 15 14 13 12 11 12 11 10 9 9 7 9 12 13 11 11 12 12 14 16 14 13 13 13 14 15 15 15 15 16 14
6 3 3 1 7 7 6 6 10 12 13 12 14 14 12 11 12 9 11 10 10 11 10 10 10 10 11 10 9 10 9 9 9 13 15 16 14 14 14 13 15 15 15 14

GFSCGP_850_spd_093.txt.gz
Wind_Speed
6 3 10 11 7 3 4 4 6 7 10 4 13 21 19 14 12 17 24 27 31 31 32 32 37 39 38 35 32 28 32 42 45 44 42 38 36 38 35 34 30 28 27 25
2 9 11 6 5 6 6 7 11 7 13 6 10 18 14 7 9 18 22 19 23 32 33 34 33 32 37 37 33 30 28 35 46 46 45 42 40 41 37 36 33 31 28 26
6 9 4 7 5 5 7 6 10 12 5 6 5 14 12 7 3 14 16 18 22 25 35 36 34 23 22 29 32 31 28 33 40 47 49 45 42 34 33 34 35 33 30 28
6 11 12 7 8 8 7 9 13 7 4 5 4 8 20 4 4 3 7 15 22 28 30 34 34 27 17 16 22 24 28 28 42 50 48 48 47 39 43 47 39 34 32 30
7 2 4 8 8 8 8 9 7 3 4 7 5 1 9 6 4 7 10 15 18 25 25 32 31 30 19 12 14 19 27 29 43 44 47 49 49 42 41 40 39 36 33 30
7 4 3 6 6 6 3 2 3 3 2 5 12 7 5 3 3 9 9 12 18 27 28 27 27 27 19 13 13 17 25 32 39 50 51 51 50 42 38 39 37 36 33 30
2 4 3 1 3 2 4 4 2 3 1 6 4 2 6 5 9 9 9 13 19 29 26 27 28 29 25 18 8 16 25 31 40 48 50 48 47 41 33 34 35 34 31 30
3 2 3 4 2 3 5 7 5 6 4 6 2 5 5 6 8 4 9 12 28 33 27 29 27 27 26 21 9 14 24 28 36 41 40 42 38 35 31 31 32 30 25 21
2 4 3 5 2 1 2 1 4 5 2 3 4 5 6 5 5 1 9 17 24 27 27 28 27 26 26 18 10 8 22 23 28 30 33 36 34 31 30 29 27 23 18 16
1 2 3 4 1 7 6 4 3 3 3 4 4 4 4 3 6 4 9 14 18 25 29 30 28 29 26 18 10 2 16 22 28 21 21 30 26 26 24 25 24 20 17 16
1 3 3 4 4 2 4 2 3 3 4 3 3 4 4 4 5 6 6 13 14 22 28 29 29 28 26 20 11 8 3 12 24 19 25 26 23 25 24 24 20 18 16 13
3 2 1 1 8 5 3 2 4 1 3 3 3 5 7 7 7 7 10 14 12 17 23 24 26 25 26 25 19 13 15 13 11 17 21 21 24 21 22 20 17 17 14 12
1 1 2 1 4 5 4 4 3 3 6 7 5 4 10 5 5 11 11 15 14 17 23 27 28 27 27 26 24 20 7 9 7 7 13 17 23 24 24 21 20 19 15 13
4 1 3 4 5 1 6 9 8 6 3 5 7 12 11 13 8 10 13 13 16 20 24 27 29 27 26 25 24 22 13 2 6 12 16 21 30 29 26 24 22 19 18 15
3 2 2 5 5 5 9 13 14 14 13 11 13 16 11 3 5 9 12 14 16 19 21 24 28 28 27 25 23 22 19 7 3 9 16 19 33 31 28 24 20 19 16 14
3 1 1 6 5 8 13 16 16 17 17 15 17 20 6 5 5 10 11 14 17 17 20 23 24 26 27 25 23 21 20 17 7 9 19 20 21 28 28 24 23 20 18 17
3 3 2 5 2 8 11 8 11 16 16 10 13 7 10 5 10 11 10 12 15 16 18 21 23 24 24 23 21 21 20 17 13 12 8 15 19 23 27 27 24 22 18 17
5 5 3 3 3 4 2 7 9 5 7 5 2 8 9 13 13 10 12 11 14 14 19 20 20 21 22 22 21 17 17 18 17 17 17 14 7 16 22 23 24 22 20 17
12 5 2 2 3 8 7 5 6 5 3 7 5 9 13 15 9 13 11 12 12 11 13 18 19 19 19 21 21 20 20 20 20 21 21 18 14 12 7 15 20 21 20 19
7 5 4 4 3 4 1 13 14 5 1 9 8 7 3 7 1 2 9 11 12 12 13 16 15 19 19 19 18 19 22 23 26 23 21 18 17 14 14 12 8 9 13 17
4 3 8 4 3 5 10 17 18 2 3 9 13 12 8 5 7 8 9 12 12 10 11 13 15 18 19 18 16 19 20 24 21 18 17 18 17 18 16 16 14 12 9 9
3 2 3 5 5 3 22 7 5 3 9 8 13 13 16 17 15 12 11 10 9 10 13 15 17 19 21 19 15 19 21 17 16 17 18 18 17 15 14 14 16 16 16 17
2 3 2 4 2 5 9 9 10 10 8 8 11 8 12 16 13 11 11 9 10 11 12 13 15 16 19 21 24 21 17 14 15 14 16 16 15 15 14 13 14 13 12 14
4 9 2 2 4 6 11 10 12 11 12 10 8 9 11 14 11 10 8 8 9 9 10 11 11 14 17 18 19 23 21 15 13 14 14 13 14 14 13 14 15 14 15 17
3 4 4 3 5 4 11 11 9 12 12 11 11 11 10 9 10 9 9 9 9 8 8 9 12 13 15 15 16 16 17 18 17 15 15 13 12 12 12 14 13 13 14 13
3 2 2 1 4 5 5 6 8 12 11 9 9 10 9 8 9 8 10 10 10 12 11 10 12 12 14 13 13 13 14 14 14 15 15 14 12 12 12 12 13 13 12 11

GFSCGP_850_spd_096.txt.gz
Wind_Speed
9 4 7 18 5 4 2 3 5 5 9 4 10 14 10 14 11 13 11 10 14 20 23 25 28 33 29 25 29 26 24 28 33 43 48 47 46 37 39 39 37 34 31 28
2 8 13 6 5 5 5 4 6 6 7 5 10 18 10 8 5 3 5 9 14 22 26 29 29 30 27 26 26 26 24 27 31 39 43 48 43 41 42 41 38 34 33 31
7 6 9 7 4 5 5 5 5 7 5 5 5 9 2 3 4 2 5 12 16 21 29 34 33 30 29 25 23 24 23 24 32 35 43 45 48 45 42 39 35 36 34 33
6 8 7 5 6 8 4 9 9 7 3 4 2 7 2 3 4 2 10 17 17 28 33 34 31 30 30 28 24 22 25 27 31 37 41 46 50 48 46 41 32 28 32 35
7 5 6 4 10 7 8 7 7 5 5 4 3 1 4 3 3 3 7 14 20 26 31 32 29 29 28 30 26 21 23 28 33 36 39 44 46 47 48 40 35 25 45 36
7 1 4 7 6 7 3 2 2 3 2 2 9 7 4 2 4 2 3 7 14 21 25 27 27 28 28 27 23 19 20 22 30 34 36 40 44 49 48 41 45 34 41 42
2 4 1 2 3 1 3 4 2 2 1 4 5 3 7 4 4 3 3 4 13 20 23 29 33 32 32 28 25 16 12 15 24 31 35 36 44 47 47 46 31 44 46 40
5 2 4 5 2 2 4 6 4 5 3 4 3 5 5 4 3 1 5 11 17 24 23 30 32 33 34 28 24 18 11 12 21 27 31 33 41 44 40 44 43 39 34 35
3 2 3 5 3 1 3 3 2 2 1 2 3 5 5 3 4 7 10 16 19 22 27 29 31 35 34 29 24 21 12 12 20 25 29 31 32 33 35 38 35 28 27 30
1 2 3 2 1 6 5 2 2 3 2 5 2 2 3 6 6 5 9 13 20 24 29 30 31 32 32 29 23 20 11 5 14 19 23 24 26 26 21 19 28 27 26 24
2 2 3 2 3 1 4 2 4 2 2 3 2 4 5 4 4 6 8 14 17 23 27 30 30 30 30 28 23 21 16 8 9 15 12 12 15 13 13 23 30 25 21 20
1 3 2 2 7 2 1 4 4 3 2 2 2 4 1 4 8 10 10 14 17 22 29 31 31 31 31 32 29 25 19 15 9 8 8 11 16 14 20 29 25 23 21 21
3 1 3 2 2 3 4 4 4 0 2 5 2 4 3 7 8 10 9 10 17 21 31 32 34 33 34 33 32 29 23 16 9 6 5 6 9 18 18 26 24 23 22 21
4 2 3 3 2 2 1 3 2 4 2 3 10 14 19 6 7 8 8 9 12 18 25 30 34 35 33 32 31 30 25 19 13 1 5 4 11 12 23 30 26 24 22 20
3 2 2 4 1 2 4 9 10 7 10 5 16 14 12 2 2 8 8 10 13 16 22 26 30 33 33 32 31 29 26 21 16 9 3 11 18 20 27 30 28 23 21 18
4 2 2 2 6 7 8 11 10 13 14 16 19 21 6 8 10 10 10 11 14 16 19 22 26 29 32 32 30 29 27 25 21 15 7 2 14 12 22 23 25 24 22 21
1 3 2 2 0 4 6 1 0 6 9 12 15 15 9 6 8 7 8 10 13 15 19 22 23 25 27 28 27 27 25 22 21 21 17 16 9 8 18 28 31 30 25 19
4 4 2 2 2 1 1 5 1 8 7 11 8 5 9 14 14 12 10 11 13 14 17 19 20 21 23 23 24 25 26 26 25 23 23 22 16 9 5 6 26 26 23 19
5 3 1 2 1 5 4 5 5 4 4 7 8 4 13 20 21 16 12 14 13 11 13 15 17 18 19 21 22 23 25 28 29 29 25 23 21 17 13 12 11 15 18 19
6 3 2 2 2 4 2 11 13 8 4 9 9 5 6 12 2 3 9 13 13 11 12 15 14 16 18 21 19 22 26 27 29 27 25 22 21 20 16 15 15 14 11 11
4 3 4 3 2 3 8 14 13 3 4 10 10 9 9 5 10 14 11 13 12 13 13 14 18 21 20 17 18 21 24 28 24 22 22 22 21 22 20 17 16 15 15 14
2 1 2 3 4 4 18 4 5 6 7 9 10 11 21 22 19 15 13 12 12 13 14 15 17 19 22 23 19 21 24 21 20 20 21 22 22 21 19 19 18 17 17 16
2 0 1 2 2 4 7 8 9 9 8 9 11 14 18 19 16 14 13 12 12 13 13 14 16 18 20 23 26 24 22 19 19 19 22 22 20 20 20 20 20 19 18 18
4 6 2 3 2 4 8 10 12 12 12 12 13 14 13 16 13 13 11 12 12 12 13 14 14 17 19 20 20 23 22 20 19 20 20 20 19 19 19 20 21 22 22 22
2 4 2 3 4 6 10 8 6 9 10 12 12 12 13 10 11 10 12 13 13 13 13 13 15 17 17 17 17 18 19 19 19 19 18 18 19 19 18 18 19 19 20 18
3 2 1 2 1 6 5 6 7 9 10 9 10 11 11 10 10 9 12 12 13 14 13 14 15 15 16 16 16 16 17 16 15 16 17 17 17 16 16 16 16 16 15 13

GFSCGP_850_spd_099.txt.gz
Wind_Speed
8 8 16 17 14 9 3 3 7 7 9 4 10 10 13 17 9 14 5 1 5 9 15 19 22 26 29 27 24 27 29 28 31 31 34 39 46 48 48 44 43 42 35 35
6 19 14 11 11 10 10 10 11 10 10 7 10 13 14 12 6 4 4 1 5 11 20 26 29 31 32 31 31 24 29 30 30 31 34 36 43 47 51 48 46 42 37 38
16 3 17 16 11 10 8 10 7 9 4 6 6 6 2 2 5 7 5 1 4 11 18 25 31 32 33 32 30 33 25 31 29 33 28 31 30 37 39 45 47 44 40 40
10 11 10 14 15 11 13 13 14 9 3 3 3 5 3 4 2 5 1 4 10 15 20 22 23 25 31 32 30 31 27 27 31 30 30 35 38 39 47 48 49 44 41 37
10 6 13 13 12 13 8 9 11 7 5 2 3 5 1 3 4 4 3 7 11 16 21 24 25 25 28 32 31 31 29 26 29 30 36 39 41 41 37 48 50 47 41 36
11 3 6 7 9 17 5 6 4 2 3 6 12 10 4 4 4 2 2 7 12 19 24 26 25 29 33 31 27 28 26 26 24 28 36 39 40 39 41 48 48 45 37 31
3 11 2 2 4 6 11 6 4 4 4 5 4 8 9 7 4 2 4 10 15 19 23 25 28 34 34 33 29 26 25 23 16 19 28 34 38 37 42 46 49 42 38 34
8 4 1 3 1 4 9 7 4 5 5 2 3 6 2 7 12 13 11 10 14 20 23 25 28 28 33 34 32 27 25 19 12 16 21 30 33 36 38 37 40 41 45 37
4 3 3 7 4 1 4 4 1 2 1 3 5 3 5 11 9 8 11 13 16 19 21 24 27 28 33 34 32 29 26 17 10 13 19 26 27 31 34 35 35 38 44 42
2 4 2 3 1 5 2 3 3 1 4 7 4 4 2 9 8 8 11 14 15 16 20 22 25 28 30 32 32 26 23 17 8 5 13 19 22 23 26 30 31 31 37 19
2 2 1 1 5 2 3 2 4 2 1 3 4 2 2 2 4 4 6 9 12 16 20 21 26 29 31 31 32 27 24 18 8 4 6 8 15 15 20 22 21 22 18 22
1 2 3 3 4 3 1 2 2 2 4 1 3 4 3 5 3 3 4 7 10 14 18 20 29 32 33 33 32 31 26 22 21 10 5 2 7 11 13 17 20 19 24 19
2 1 3 2 1 2 5 4 5 3 2 4 4 1 6 6 3 4 4 6 10 14 18 20 32 33 33 33 32 30 27 23 20 12 5 5 8 8 13 15 14 14 18 19
4 2 1 4 2 3 4 4 3 3 3 3 10 15 15 15 8 3 6 6 9 14 17 21 29 32 32 32 31 31 29 26 19 14 5 2 6 9 11 14 21 21 22 25
2 2 1 1 3 2 3 8 7 7 8 7 8 16 19 16 13 5 2 6 11 14 18 21 26 29 31 33 32 31 29 27 23 16 11 7 4 4 17 17 22 24 27 29
3 3 2 3 6 6 9 12 10 9 10 13 16 21 19 14 9 8 6 6 9 12 15 20 22 25 28 30 31 30 30 28 24 21 15 12 5 4 8 22 20 29 29 31
2 4 3 2 1 3 8 8 9 2 5 9 12 16 12 5 8 6 6 5 7 11 13 18 20 22 25 26 27 29 29 28 27 26 20 17 17 12 7 5 15 25 30 31
4 4 2 1 2 3 4 6 2 4 9 3 11 11 8 12 15 10 8 6 9 10 14 15 19 20 22 23 24 25 28 30 30 29 28 25 24 20 18 9 12 18 23 29
3 3 2 1 2 4 4 4 3 4 3 8 10 7 11 19 19 15 10 9 9 12 14 15 16 16 19 21 22 25 27 29 31 31 29 27 25 24 22 21 17 15 8 19
6 2 1 3 2 2 1 11 10 7 3 10 11 8 11 7 1 4 7 9 13 14 16 19 21 19 19 21 21 24 27 29 31 30 28 26 25 24 24 23 21 18 16 15
4 3 3 3 2 1 6 14 11 3 5 10 12 14 6 5 9 11 8 12 13 14 16 17 19 24 23 20 21 24 26 29 26 25 25 26 26 26 24 21 20 19 18 15
1 2 2 2 3 2 15 2 3 6 6 9 12 14 20 20 15 13 13 14 14 16 17 18 20 22 23 24 24 26 27 24 23 24 25 27 26 25 24 23 22 20 19 20
1 1 1 2 2 4 7 7 5 6 9 9 12 11 15 15 14 15 15 14 14 15 16 17 18 20 22 24 25 26 25 24 24 24 26 26 26 26 26 27 26 24 23 25
2 4 2 4 3 5 8 9 10 11 13 12 12 13 13 16 15 15 14 14 14 15 16 16 16 19 21 22 22 23 23 23 22 24 25 24 24 24 25 25 26 26 26 25
1 2 2 3 6 8 9 9 8 11 12 13 13 13 14 14 15 15 16 16 15 15 16 16 18 19 20 20 20 20 20 19 20 21 21 22 22 22 21 22 23 23 21 19
1 2 2 2 3 6 6 7 8 11 11 10 12 14 14 14 16 14 16 15 14 15 15 16 17 18 19 19 19 19 20 20 18 19 20 19 18 18 18 18 18 17 16 14

GFSCGP_850_spd_102.txt.gz
Wind_Speed
22 12 24 24 22 21 10 15 14 8 8 6 15 17 16 16 16 15 13 8 4 2 6 9 11 13 15 17 20 21 23 26 28 26 21 26 30 34 40 38 38 42 41 41
14 25 25 18 18 20 22 19 19 15 16 11 14 16 13 15 16 10 9 9 4 2 7 12 16 18 19 19 20 21 22 24 25 24 23 24 29 30 33 34 37 48 44 42
20 19 10 21 18 19 21 21 16 15 5 12 13 18 14 6 8 9 9 5 2 3 8 12 16 18 21 23 24 23 24 23 26 26 25 27 27 30 30 32 39 48 46 44
11 20 19 15 23 22 22 16 15 12 9 10 6 4 12 8 11 10 9 5 2 5 9 12 15 17 20 21 23 26 28 28 29 27 23 24 28 34 35 33 41 44 46 48
16 21 24 19 16 16 19 7 14 15 13 13 15 7 6 13 10 12 9 5 3 7 11 14 17 18 19 22 25 28 29 28 28 28 27 26 30 34 34 30 34 40 44 49
14 2 5 15 17 16 9 6 10 10 11 13 16 12 10 13 11 11 9 5 6 11 14 16 17 19 20 22 26 28 28 28 26 25 25 28 30 34 34 32 34 35 42 49
13 19 18 14 15 14 21 12 6 8 8 12 2 10 4 10 6 5 6 5 9 12 15 18 21 24 24 25 29 32 30 29 26 22 22 26 31 36 37 32 32 34 40 44
9 7 19 9 15 10 22 19 9 10 11 10 6 8 6 10 13 11 8 6 9 13 16 19 21 23 24 26 29 33 31 30 26 21 20 23 23 31 35 33 32 33 36 39
13 8 4 4 5 6 15 19 17 9 5 6 8 7 8 9 8 6 6 7 10 13 16 20 22 23 25 27 30 33 30 28 25 20 16 16 19 26 31 32 31 32 27 26
1 5 4 5 5 4 6 8 7 8 12 15 12 10 3 8 5 5 6 7 8 12 16 20 22 24 24 26 28 29 27 28 25 19 7 9 16 24 29 30 30 30 28 31
7 6 5 3 2 2 4 6 4 4 5 7 11 2 4 8 5 5 7 9 12 14 16 18 21 23 24 24 27 30 29 29 24 17 5 4 10 16 21 24 28 33 34 33
5 2 4 2 3 2 3 2 3 5 8 4 6 6 4 5 5 7 8 9 10 12 15 16 20 23 25 26 29 29 30 29 24 20 12 2 6 10 14 19 19 25 31 31
2 2 3 3 1 1 2 1 2 2 1 9 9 3 5 3 2 1 7 9 9 10 14 16 19 22 23 26 30 28 28 29 25 22 14 8 1 8 12 14 18 24 26 31
1 3 5 5 3 4 4 7 4 2 3 4 9 13 4 8 15 16 1 5 7 9 13 15 17 19 22 24 29 30 28 26 23 21 19 13 9 2 4 10 10 16 24 27
1 3 2 4 4 2 2 6 7 10 10 6 9 11 14 16 18 10 1 4 5 9 12 14 16 19 21 24 28 30 28 29 28 22 20 18 10 7 5 7 12 19 21 24
2 3 1 2 3 4 8 9 10 11 12 14 15 16 11 20 6 2 2 5 6 9 11 14 15 17 19 24 26 28 28 29 28 26 23 19 13 8 6 3 13 21 27 30
3 4 3 2 2 1 7 5 10 9 7 7 11 12 17 15 3 4 5 8 7 9 11 13 15 16 17 23 24 25 27 28 28 28 26 24 20 20 17 13 7 9 23 32
6 6 3 3 3 4 6 5 7 3 9 5 8 12 10 10 12 12 11 10 9 11 12 13 13 15 18 19 21 22 24 26 29 29 29 27 26 23 20 17 13 5 7 15
4 3 3 3 5 4 4 3 3 3 2 6 9 10 2 9 12 14 11 10 10 11 11 13 12 14 18 20 20 23 25 27 28 30 29 27 25 24 23 24 23 20 13 11
6 2 3 3 3 4 5 7 4 1 6 6 7 8 8 12 5 5 8 9 10 11 10 12 14 16 20 21 22 24 27 28 30 29 27 26 26 24 24 23 22 22 20 20
5 2 5 5 3 5 1 10 3 5 5 7 8 10 10 4 7 9 7 9 10 10 12 13 15 19 20 21 23 26 27 29 27 26 26 25 26 26 25 23 23 24 24 22
4 5 4 3 3 2 13 1 4 5 6 6 9 11 17 16 12 11 10 10 10 11 13 14 16 18 18 19 20 24 27 24 24 24 27 28 27 27 26 27 27 26 26 27
3 3 2 4 4 5 8 6 4 4 7 8 9 9 11 12 12 10 10 10 11 13 14 15 15 16 18 20 20 20 21 22 22 23 24 25 25 26 27 27 28 29 29 30
4 5 2 5 5 7 6 7 8 8 9 9 9 10 11 13 10 10 10 11 13 14 15 14 15 17 19 19 19 20 18 17 18 19 20 21 23 24 23 25 26 25 25 24
3 5 6 5 8 9 7 6 7 9 10 11 11 11 11 11 11 10 11 12 14 14 16 16 16 17 18 18 19 19 19 17 16 17 17 17 18 19 21 24 24 24 23 21
1 3 3 2 9 8 9 8 8 10 10 11 11 12 11 11 11 11 12 12 12 15 15 16 18 18 18 19 20 21 21 19 17 16 17 17 15 15 14 14 17 19 18 15

GFSCGP_850_spd_108.txt.gz
Wind_Speed
20 15 18 20 21 25 27 27 30 28 27 29 24 23 21 19 25 16 21 22 18 16 18 14 9 6 2 4 5 7 10 12 14 15 15 16 19 19 22 28 33 31 36 38
18 24 22 23 23 23 24 26 25 25 26 24 20 19 28 19 21 23 24 24 20 16 16 13 8 4 3 6 9 11 12 14 15 16 18 24 28 30 29 28 28 34 40 38
22 23 22 23 21 22 25 22 22 24 23 26 19 17 24 29 24 27 27 26 26 21 18 12 7 4 5 7 11 13 15 17 17 17 20 21 24 30 29 34 38 34 39 46
20 23 21 25 22 15 18 20 23 21 14 11 10 8 21 26 21 23 23 17 24 20 14 11 6 5 8 10 11 13 16 18 18 20 22 24 28 30 30 27 28 33 34 42
24 16 13 20 22 17 18 12 13 16 18 14 22 10 15 25 25 19 12 21 23 19 13 9 6 8 9 11 13 16 18 18 20 21 24 26 29 32 35 33 40 34 33 45
16 15 9 14 14 19 7 5 10 12 11 9 23 15 12 13 12 16 17 27 21 16 14 8 9 11 13 14 15 19 21 22 21 22 24 27 30 32 36 36 37 45 40 36
16 21 20 13 15 4 11 1 4 6 7 11 8 12 17 9 19 15 22 22 19 17 15 9 12 14 15 17 19 23 25 26 24 25 25 26 29 30 32 35 38 39 47 40
9 9 20 16 19 11 18 11 5 5 4 6 4 4 4 5 16 31 26 10 18 19 14 11 13 15 16 19 21 26 27 28 27 27 27 25 26 27 27 30 34 38 48 40
6 9 3 13 18 14 5 10 20 14 12 5 6 5 4 6 20 17 16 12 15 19 15 13 13 15 17 19 21 25 28 29 28 27 28 26 24 26 24 24 26 34 37 43
4 6 2 15 15 19 15 7 5 6 4 4 5 11 1 12 15 15 16 14 14 13 15 14 14 15 16 18 19 22 27 31 30 28 27 28 25 25 25 23 19 21 25 27
7 6 3 5 12 16 15 15 4 4 7 4 4 2 12 12 15 9 11 14 17 17 14 14 15 16 18 20 21 25 27 32 33 30 28 27 27 23 25 23 20 19 22 27
20 4 6 12 11 4 6 8 5 4 2 2 2 2 9 6 7 5 9 13 14 16 17 17 17 18 20 21 24 26 29 30 33 32 30 29 26 24 23 22 21 16 16 24
9 6 7 3 8 9 10 11 10 8 7 6 3 2 9 11 8 17 20 17 17 15 15 16 18 19 20 22 22 26 29 30 32 30 30 29 26 23 24 19 16 17 15 26
4 8 9 6 5 6 12 12 8 6 1 6 6 7 7 2 11 15 16 14 15 14 15 16 17 18 19 21 21 25 27 28 30 30 30 30 29 26 24 21 16 16 14 14
3 5 9 8 2 3 3 5 6 8 9 8 9 8 13 13 13 13 12 12 13 14 15 16 16 18 18 19 23 23 25 27 27 29 30 31 29 27 25 24 18 11 14 14
4 2 7 10 9 6 8 7 8 9 10 11 10 5 14 15 16 15 17 15 13 12 13 13 14 16 17 20 22 22 24 25 26 28 30 30 30 30 29 27 26 20 13 14
7 4 3 9 7 3 7 6 8 7 6 8 6 11 8 12 11 13 10 10 10 9 11 12 13 16 18 20 19 21 22 23 26 28 30 31 32 31 31 30 27 26 23 15
4 5 3 1 5 4 9 8 4 4 11 11 9 10 10 11 12 10 11 8 8 8 11 12 13 16 21 19 18 20 21 24 26 28 30 32 33 33 32 32 32 30 28 26
6 5 3 3 7 6 8 6 3 2 5 8 6 6 10 14 15 12 9 9 10 10 11 13 13 14 20 23 22 23 24 26 28 30 30 31 30 31 32 34 36 36 34 33
7 7 4 5 5 6 6 5 8 5 4 7 7 5 6 9 4 5 6 9 10 11 12 12 13 14 18 22 27 29 29 29 30 30 30 27 27 29 31 32 33 34 36 37
6 7 8 7 6 4 1 4 1 3 4 8 5 8 2 3 9 12 9 10 11 12 12 12 14 18 18 19 22 24 29 29 28 28 28 28 27 28 28 29 31 32 34 35
7 5 6 6 8 5 8 3 3 5 8 10 8 11 16 17 14 13 11 11 13 14 14 15 17 19 19 19 20 25 25 25 25 26 26 29 31 30 30 29 29 30 32 34
2 2 2 5 3 5 9 12 7 6 11 9 10 10 11 13 13 12 12 10 10 14 15 15 15 14 15 17 19 22 23 21 21 23 25 26 26 29 31 31 31 31 31 32
4 6 3 6 6 6 8 10 10 11 12 12 11 12 12 13 12 12 11 11 11 12 13 12 12 14 16 17 19 21 19 19 19 21 21 24 27 27 28 30 32 32 33 30
2 7 9 5 8 10 7 9 12 14 13 14 13 12 13 14 12 11 11 11 11 11 10 10 11 13 15 16 17 18 19 17 18 20 21 20 20 21 25 27 29 31 33 31
4 3 4 1 18 3 16 13 13 14 14 14 15 14 12 12 12 11 11 9 8 9 9 11 13 13 15 17 18 19 20 18 18 18 19 20 19 19 19 19 22 25 27 27

GFSCGP_850_spd_111.txt.gz
Wind_Speed
13 6 8 14 13 16 18 18 19 21 16 12 18 19 10 25 32 26 24 9 9 23 31 27 20 15 9 5 5 7 10 11 12 12 13 16 21 24 26 28 36 34 28 30
7 15 13 15 16 17 18 17 19 22 18 11 16 21 18 21 22 31 23 19 15 36 29 24 17 11 6 3 5 8 10 12 13 14 15 16 19 22 25 30 31 32 34 35
14 7 10 15 15 13 18 9 17 19 16 14 12 20 18 26 24 30 29 30 31 45 38 30 22 15 9 4 8 12 15 16 16 17 19 20 21 22 25 25 28 36 38 37
13 16 16 16 16 6 17 7 3 12 9 9 10 12 24 18 20 14 24 24 36 40 37 31 25 18 11 8 10 15 16 16 17 19 20 21 24 27 28 30 30 30 36 46
13 9 7 2 2 5 3 7 5 3 7 11 13 7 21 2 14 10 11 19 33 34 35 29 23 14 8 7 12 16 16 16 17 18 19 21 24 26 29 32 36 34 34 40
16 4 4 2 3 2 4 4 3 3 1 9 15 14 18 12 7 6 8 15 37 36 31 26 20 11 12 9 12 19 21 21 21 20 20 21 24 25 29 31 34 37 35 35
2 8 3 5 4 5 5 5 3 3 4 6 6 7 13 10 11 6 15 21 33 35 30 24 21 16 15 15 19 23 24 23 24 23 22 23 23 25 28 28 30 35 36 35
5 5 11 10 13 5 6 8 4 5 2 4 5 5 5 9 22 24 29 38 33 32 30 24 20 17 17 17 20 23 26 26 27 25 23 23 23 25 27 26 27 30 31 33
5 6 5 8 6 10 3 6 2 6 5 4 5 4 7 13 8 22 25 30 30 30 26 23 20 18 17 19 21 24 27 27 28 27 26 24 23 24 26 26 25 27 27 31
2 2 4 5 8 9 7 6 2 2 3 4 4 1 5 15 12 16 16 21 27 25 23 20 21 17 17 19 21 23 26 27 29 28 27 27 26 24 25 27 26 27 27 28
7 4 1 2 5 11 7 9 1 3 3 2 3 3 1 8 9 12 14 21 24 26 22 19 15 14 16 18 20 25 27 28 30 30 28 28 28 25 23 24 23 24 25 25
4 1 5 8 3 7 9 17 14 3 2 2 4 2 4 7 1 10 19 24 24 22 15 14 14 15 18 21 23 25 27 27 27 28 28 27 27 26 25 24 23 22 23 21
7 3 3 1 3 3 5 4 5 6 3 4 2 2 4 9 6 19 20 20 18 17 18 18 19 21 22 22 23 23 24 26 25 26 27 27 27 27 27 26 25 23 21 20
4 2 4 5 3 1 3 10 10 6 3 1 3 5 3 10 11 15 18 20 21 22 23 22 22 22 20 20 22 22 24 24 26 26 26 26 28 28 27 26 25 23 21 18
2 3 3 3 6 6 8 3 5 8 5 5 4 8 9 12 11 15 18 16 18 23 21 20 20 19 19 20 21 22 23 24 25 26 26 27 28 28 28 28 26 24 21 18
1 3 0 3 8 4 5 6 5 4 5 1 14 10 10 14 15 17 14 15 15 13 12 12 13 18 20 21 21 21 22 23 23 25 27 28 29 30 32 32 31 28 27 24
6 3 3 3 7 3 3 2 3 9 13 4 4 8 11 10 11 12 11 12 11 11 12 14 16 22 22 21 21 21 21 22 24 25 27 28 28 32 34 34 35 36 35 31
1 5 2 1 5 4 4 6 9 12 10 10 11 10 12 13 14 12 12 11 12 13 16 15 16 20 24 22 23 23 24 25 25 26 26 28 30 31 32 35 36 37 37 39
8 3 2 3 3 6 6 3 2 4 4 6 6 11 17 19 20 14 11 12 11 11 11 14 12 15 17 21 25 26 27 27 28 29 27 28 29 31 32 34 36 37 38 40
5 3 3 1 3 5 3 7 9 3 2 6 8 4 5 11 2 2 7 8 10 11 11 12 12 12 15 19 19 26 26 26 27 31 30 29 29 30 32 32 34 34 36 38
3 1 3 2 2 2 1 7 5 4 3 10 4 3 7 4 6 17 10 11 10 10 10 10 13 16 15 17 21 20 26 23 24 24 25 27 29 31 30 30 31 31 34 35
4 5 3 3 1 4 7 1 3 8 11 13 10 13 23 24 20 17 14 14 13 12 12 10 11 13 14 14 17 20 19 19 16 22 26 27 28 30 30 29 29 30 31 33
1 4 4 2 2 6 8 12 10 12 17 14 14 15 19 20 17 15 15 13 13 14 13 11 9 9 12 14 14 16 18 18 17 17 21 24 27 29 30 31 32 33 33 33
3 6 4 4 5 7 9 12 12 13 15 15 15 15 16 19 17 16 14 13 12 12 11 7 9 13 13 12 13 15 13 14 17 20 21 22 24 26 28 31 34 35 37 34
5 6 7 5 9 13 11 12 15 17 17 17 15 17 19 19 17 15 14 13 12 10 9 9 12 15 17 15 17 16 17 16 17 20 23 23 24 25 27 29 31 33 34 33
3 5 4 3 21 6 17 17 18 19 19 18 22 21 18 16 16 14 13 12 11 11 11 12 13 14 15 15 16 18 20 23 20 22 26 26 25 25 26 26 26 27 27 30

GFSCGP_850_spd_114.txt.gz
Wind_Speed
7 4 9 16 9 8 4 9 17 14 6 8 9 23 19 19 20 27 31 25 22 11 30 32 31 26 21 15 10 5 5 8 11 13 14 17 21 21 22 25 28 29 30 29
2 12 12 8 8 12 13 15 17 20 8 6 9 22 22 23 20 26 26 24 14 26 20 27 24 20 16 14 10 6 2 4 9 13 15 16 18 21 22 23 25 29 33 34
10 6 9 10 11 14 14 16 16 15 5 5 7 14 21 13 19 20 24 27 19 33 22 21 21 20 14 12 10 8 7 7 8 11 16 17 18 19 21 22 24 25 29 35
9 19 15 14 10 9 10 3 4 3 5 7 6 11 30 9 11 7 16 6 32 21 20 28 23 20 17 15 12 10 7 8 10 12 15 18 20 23 24 25 26 26 25 29
8 1 8 14 16 5 2 2 3 1 1 4 4 3 11 18 17 10 2 24 32 30 22 24 25 20 17 15 15 13 11 11 13 13 15 19 20 22 24 26 28 27 27 26
8 2 6 7 4 4 7 3 1 2 2 3 4 7 5 6 5 5 17 16 24 29 27 25 23 18 17 15 14 16 16 17 16 17 17 18 21 22 23 25 27 28 28 27
3 5 5 6 4 3 4 5 3 3 3 6 3 2 4 12 16 14 17 22 13 19 28 28 24 22 20 20 20 20 19 16 19 20 20 19 20 22 24 25 28 30 30 29
5 6 8 5 9 7 5 7 4 6 3 4 4 3 5 15 25 30 27 24 27 15 29 27 25 22 22 23 21 20 19 19 20 20 21 21 21 22 23 23 25 27 30 30
5 5 2 6 4 8 5 4 2 2 3 1 3 3 11 11 12 17 19 21 18 23 20 25 23 22 23 22 20 20 20 20 21 22 22 23 23 24 24 23 23 24 27 31
6 6 4 3 6 3 6 7 3 2 4 4 3 4 2 1 2 9 9 15 14 12 22 20 20 22 21 17 17 20 22 23 22 23 23 24 23 23 24 25 24 24 24 27
5 5 4 6 8 10 4 4 2 3 2 2 2 2 2 4 6 7 9 13 11 18 15 18 17 16 17 18 20 22 21 22 23 24 23 23 24 23 22 23 25 25 24 26
2 4 7 12 4 9 10 11 10 3 4 2 2 2 5 7 5 14 13 11 14 14 15 18 19 20 20 20 20 21 20 21 22 23 22 22 22 23 24 23 24 25 24 24
6 3 2 2 4 1 7 8 11 10 3 5 3 2 10 8 15 12 14 15 16 15 15 16 18 20 19 18 18 18 19 20 20 19 22 22 23 24 24 24 23 23 24 23
10 4 5 4 3 4 5 8 9 9 3 3 6 7 6 14 11 12 14 16 15 14 12 11 13 13 13 15 16 17 18 20 19 20 23 25 26 26 26 26 25 24 23 21
6 5 5 7 3 4 5 2 8 12 12 7 6 9 10 8 10 13 12 11 11 11 11 12 14 14 14 17 17 19 20 19 20 22 25 27 27 27 27 27 28 26 24 24
3 2 2 2 11 3 4 3 2 2 2 8 15 10 10 14 14 11 9 9 10 12 12 13 15 15 17 19 20 20 20 21 22 25 27 27 27 28 29 31 31 29 28 29
6 4 3 3 7 5 5 2 5 5 7 6 6 6 10 9 9 9 10 9 9 9 9 11 16 19 19 21 22 22 21 21 23 25 27 28 28 29 31 32 33 36 36 32
6 5 1 2 6 4 2 5 8 14 6 6 13 12 10 13 13 12 9 8 7 6 8 9 12 13 17 17 19 21 23 26 27 28 27 27 27 28 29 31 33 34 37 38
6 4 2 3 4 3 4 4 5 4 3 3 8 12 18 20 18 11 7 8 9 7 10 9 10 12 12 17 19 22 23 24 27 29 28 27 27 26 27 29 31 32 33 35
8 4 3 3 4 6 3 3 6 4 1 5 7 13 18 17 3 4 9 9 11 10 9 10 9 10 12 14 18 22 22 23 24 25 25 25 26 27 27 27 28 28 29 31
5 3 7 2 2 0 1 4 3 4 4 11 9 7 12 6 3 19 14 13 12 11 9 8 9 12 13 14 16 22 20 19 17 17 20 22 24 26 27 26 26 26 27 28
9 6 3 3 2 5 1 0 5 7 13 15 11 6 15 19 23 19 16 16 13 11 6 7 9 11 11 12 12 15 19 14 13 15 18 21 23 25 26 27 27 28 28 30
1 5 5 2 2 3 6 10 14 11 19 13 16 18 25 27 22 19 18 15 13 10 8 9 10 10 10 9 8 11 14 13 13 15 18 20 22 24 26 28 30 32 32 32
2 3 4 4 4 5 9 12 12 14 16 15 16 19 20 23 21 19 16 14 11 8 8 8 9 11 13 12 12 12 10 13 15 17 19 20 22 24 27 30 32 35 37 33
4 5 7 4 7 11 8 12 15 16 16 18 17 18 19 23 21 18 17 14 10 8 9 10 14 14 15 14 14 13 12 14 16 18 19 20 22 23 26 28 28 31 32 29
1 5 4 4 18 8 18 19 17 18 19 20 22 23 21 20 21 18 16 13 11 13 12 12 12 12 12 11 11 13 15 15 15 16 18 19 20 21 22 22 22 23 25 26

GFSCGP_850_spd_117.txt.gz
Wind_Speed
7 4 9 17 8 5 2 4 5 5 9 8 15 23 20 10 17 25 31 24 21 8 12 22 23 19 15 13 12 13 12 10 7 9 11 12 15 14 14 18 21 24 28 30
1 8 10 4 5 7 9 12 13 6 10 7 10 23 19 6 11 24 27 20 9 16 21 19 19 18 11 10 9 8 7 4 1 4 7 8 12 16 16 15 17 20 23 26
7 6 9 8 6 8 11 9 10 14 2 5 5 13 7 14 10 17 21 24 15 21 23 18 16 15 10 7 8 8 7 5 3 4 7 9 10 13 17 17 17 18 21 24
6 12 10 6 5 10 9 7 6 4 5 2 3 8 15 9 11 14 19 27 23 21 19 16 17 16 15 15 11 9 9 8 7 6 8 11 13 16 16 18 20 21 21 21
8 3 7 7 12 6 9 5 3 1 1 2 5 2 6 10 10 10 12 22 25 23 18 18 18 17 16 15 13 12 12 10 8 8 10 13 14 15 18 20 21 21 22 20
7 1 6 8 4 4 6 3 3 4 3 2 6 7 3 7 8 12 10 19 21 23 19 18 18 16 17 14 16 14 14 14 12 12 12 12 15 17 18 20 22 23 23 23
3 15 6 6 4 3 3 4 2 3 1 5 1 2 3 6 10 19 17 21 22 21 24 23 25 26 20 16 20 19 20 18 18 17 16 15 16 17 18 19 22 23 24 24
5 4 8 6 12 7 7 7 4 5 3 3 4 4 2 4 11 19 19 18 18 19 18 21 22 24 22 20 18 19 20 19 18 18 18 17 17 16 17 18 20 22 23 24
4 4 3 5 4 10 4 4 2 3 2 1 4 4 5 5 5 8 10 12 16 14 15 18 19 22 23 24 25 22 20 19 20 20 19 18 18 18 18 17 17 19 21 22
5 5 5 4 5 4 6 8 3 1 3 5 4 4 5 7 4 4 4 6 8 10 10 12 14 15 17 20 19 19 19 21 19 19 18 18 17 17 18 18 18 19 21 22
6 6 3 5 6 9 3 3 1 4 4 4 2 4 5 9 9 9 7 7 6 7 9 9 11 13 15 15 16 18 18 20 20 20 20 20 20 20 20 20 20 20 20 21
4 2 4 12 1 5 11 10 7 5 5 3 3 5 7 10 11 12 10 10 8 6 8 10 12 11 11 14 17 17 17 18 19 19 20 21 20 20 21 22 21 21 20 20
7 3 2 3 4 3 7 9 12 5 2 6 5 3 7 9 14 11 12 11 9 7 8 10 10 9 10 15 16 17 18 18 18 20 21 22 23 23 24 24 24 22 21 21
8 4 6 8 3 1 4 13 14 10 4 5 7 8 13 11 14 13 12 10 8 7 7 10 11 14 17 17 16 16 15 16 17 19 22 23 25 26 28 27 27 26 26 23
4 6 5 5 5 2 4 13 14 15 12 8 6 10 15 15 14 16 15 10 7 6 6 9 10 12 13 11 13 14 15 17 19 21 23 23 24 25 27 28 30 29 27 27
2 1 2 4 10 9 10 14 8 13 15 13 6 7 11 18 19 14 11 9 6 5 5 6 7 8 11 13 15 16 16 17 19 20 22 22 24 25 24 27 30 31 32 33
6 6 4 7 4 7 7 10 11 3 1 6 7 7 16 14 14 14 12 9 9 8 7 6 5 7 9 12 14 17 18 18 21 22 22 22 23 23 26 27 28 31 33 34
6 6 3 1 3 7 1 3 4 6 2 3 8 16 15 14 15 14 11 10 9 8 7 5 6 7 9 10 11 13 16 19 22 23 22 22 22 23 23 24 26 28 30 33
5 4 3 3 4 2 2 4 5 4 4 0 11 14 19 20 18 7 7 8 8 7 8 7 6 6 7 9 11 13 17 18 20 21 23 24 24 22 22 24 26 27 28 31
7 5 3 2 3 6 5 3 6 3 3 8 12 16 20 18 3 4 12 10 10 8 6 5 5 5 5 9 9 13 15 16 17 19 21 22 23 24 24 25 26 26 27 29
5 2 6 5 4 4 2 6 4 5 5 11 20 22 23 4 3 21 16 13 10 9 6 5 5 5 7 8 10 12 13 16 15 15 17 19 20 22 23 25 24 25 27 28
8 7 4 4 3 6 3 3 6 4 10 16 17 19 19 14 22 22 19 16 15 11 7 5 6 6 8 6 7 11 15 12 12 14 16 19 21 22 24 26 27 27 28 30
2 6 4 3 4 1 2 1 9 13 20 14 15 16 23 26 26 24 22 20 15 10 9 8 7 7 6 5 6 9 13 12 12 14 17 19 21 23 25 29 30 31 33 34
1 2 4 3 3 3 8 13 11 15 15 14 15 22 28 31 28 27 23 18 14 10 9 9 9 9 10 9 9 11 11 12 13 15 17 19 21 23 26 28 31 33 33 32
2 6 7 3 5 8 6 12 17 18 18 19 18 22 26 28 27 24 21 17 13 10 11 11 11 12 13 12 11 10 10 10 14 15 16 18 19 21 23 25 27 28 27 26
3 5 4 5 16 5 14 21 20 20 20 20 23 23 22 25 25 22 19 15 13 13 12 12 11 11 11 9 10 11 11 11 12 14 16 17 18 19 19 20 21 22 23 24

GFSCGP_850_spd_120.txt.gz
Wind_Speed
7 4 8 13 7 4 4 3 3 4 10 7 11 13 9 18 20 23 27 23 13 4 6 6 9 8 6 5 5 5 7 7 7 10 11 12 12 13 14 15 17 19 20 22
4 5 10 4 5 5 6 2 6 6 7 6 10 10 9 6 9 17 22 23 11 15 13 13 13 10 9 7 5 2 1 2 2 3 5 7 9 10 9 9 12 15 17 20
6 4 5 7 4 6 5 5 4 7 5 5 8 5 5 5 22 24 29 30 25 18 16 15 16 17 14 13 12 11 8 4 3 1 2 4 6 7 8 10 11 11 14 17
5 6 4 3 5 6 3 6 6 5 1 3 3 6 4 3 12 14 20 24 25 23 20 19 18 19 18 18 15 14 14 15 16 10 8 4 4 6 8 11 15 15 13 15
6 3 4 6 11 5 7 4 4 4 3 2 2 2 3 6 10 12 18 20 22 23 21 21 19 20 21 21 17 16 16 9 19 20 16 13 11 10 11 12 13 16 15 15
7 1 6 7 2 6 5 4 3 3 3 4 8 8 4 4 3 9 13 17 17 19 20 22 24 23 23 22 19 18 17 14 12 18 19 18 17 13 14 15 15 16 17 15
1 8 4 3 3 3 3 5 3 3 1 5 1 2 2 3 4 8 10 10 12 12 12 14 18 21 24 25 23 21 21 22 19 18 17 17 16 15 16 17 18 19 19 17
6 3 7 5 16 7 6 8 5 5 3 3 2 5 2 6 8 6 7 7 8 11 12 14 14 14 14 17 19 13 12 15 19 20 19 18 16 15 16 17 17 19 20 19
5 4 2 4 3 9 4 6 2 1 1 1 4 1 3 8 7 6 7 5 6 5 8 10 11 12 13 13 14 15 16 16 17 16 17 18 18 17 18 17 18 18 19 19
5 1 5 4 6 4 6 7 3 1 3 5 4 4 5 14 12 11 10 8 3 3 6 9 11 12 13 13 12 13 13 16 16 17 18 19 19 18 17 16 16 17 19 19
5 5 2 6 6 9 3 3 2 3 3 4 2 5 4 17 16 14 12 10 7 2 4 8 11 11 11 12 13 13 14 14 14 16 16 17 20 19 20 20 20 20 19 19
6 5 9 13 3 5 3 5 6 4 4 4 3 5 4 10 12 15 12 10 7 2 3 8 11 11 11 13 12 13 14 15 15 16 16 18 17 19 21 22 22 21 20 21
6 1 1 5 3 2 6 7 10 4 2 15 5 4 7 13 13 16 16 12 8 4 2 8 8 11 11 12 11 12 14 13 14 15 16 19 21 21 23 22 22 22 23 22
7 5 6 8 4 3 3 7 10 12 5 4 11 7 12 13 14 16 18 17 10 5 3 7 7 9 10 11 12 13 13 15 15 17 19 20 22 24 25 24 24 25 25 25
4 8 5 5 5 5 5 6 7 16 17 9 6 10 15 16 16 18 22 17 10 5 3 6 6 8 9 11 12 12 12 12 13 15 18 22 22 22 22 22 24 26 27 30
2 3 4 4 7 10 9 11 9 12 10 7 7 6 3 18 19 19 18 16 11 7 4 5 6 7 10 12 12 13 12 13 14 16 19 19 18 19 20 21 24 25 27 29
5 5 4 6 4 2 8 17 13 6 4 5 13 7 12 13 16 18 18 14 11 8 6 4 5 6 7 9 9 12 13 13 15 18 18 17 16 18 20 21 22 24 28 29
6 5 3 2 3 10 1 4 5 8 4 4 3 14 16 16 17 19 16 15 13 11 9 6 5 4 5 5 8 10 13 13 17 16 16 17 18 18 19 20 22 25 27 29
7 5 3 3 4 4 3 4 5 7 6 5 11 12 19 24 18 9 12 10 11 11 11 8 5 5 4 3 4 6 8 12 13 15 17 17 19 19 19 21 23 24 27 29
5 4 5 3 4 6 5 1 3 2 6 9 15 16 19 20 7 4 17 15 14 12 9 8 6 4 2 2 2 4 7 9 13 14 15 16 18 19 20 21 22 24 28 30
4 3 8 4 4 6 4 5 6 5 5 16 24 25 24 7 4 22 22 18 15 12 10 9 8 6 5 5 4 4 7 10 11 11 13 15 18 20 22 23 23 25 27 29
8 7 4 3 3 7 6 4 6 3 5 19 22 25 23 14 20 27 24 22 17 14 11 10 9 8 7 5 3 5 10 9 8 11 14 17 18 20 23 24 26 28 30 33
4 6 5 7 5 1 2 1 4 9 17 18 25 26 27 23 28 27 25 21 17 13 11 10 10 9 8 6 5 6 10 8 9 11 15 17 19 21 24 26 29 31 33 35
1 2 3 3 2 3 4 8 11 10 15 18 20 25 26 28 27 27 25 23 17 12 12 12 11 10 10 9 7 8 8 9 9 12 15 16 18 20 23 26 29 31 34 34
3 7 5 1 2 5 7 10 15 14 14 16 18 23 27 28 29 28 25 20 16 14 14 13 13 12 11 10 8 8 7 8 11 13 14 15 16 18 21 24 26 27 28 28
4 5 5 5 13 5 8 22 19 18 18 19 23 26 26 26 30 27 24 19 16 16 15 15 13 11 11 10 10 9 9 9 10 11 13 13 15 17 18 20 21 22 22 23

GFSCGP_850_spd_123.txt.gz
Wind_Speed
4 5 12 13 9 3 3 2 6 6 9 6 5 12 13 9 15 18 19 15 15 15 13 13 14 11 9 7 6 5 5 3 3 8 10 9 8 8 10 12 13 15 18 19
4 10 12 6 8 8 6 7 12 7 5 6 8 15 5 12 11 12 14 15 13 12 13 13 13 12 13 12 12 11 11 9 9 7 3 6 8 8 10 9 10 12 13 16
6 1 7 11 7 7 4 10 7 8 6 4 6 1 4 8 11 12 15 14 14 13 11 11 13 16 14 13 13 13 13 13 13 13 12 7 3 5 9 12 11 12 12 14
6 3 6 8 5 7 5 10 9 7 5 4 5 5 7 3 8 11 11 11 9 9 9 11 12 14 17 18 17 14 13 13 12 12 13 15 18 12 16 15 13 12 13 14
4 5 5 7 8 7 4 5 5 1 3 4 4 5 4 1 1 4 3 5 6 9 11 13 14 15 15 17 20 19 19 19 16 15 16 15 21 21 19 17 16 14 13 14
2 1 4 4 3 7 6 4 4 3 0 6 7 8 6 5 4 4 5 4 4 5 6 8 9 9 10 8 8 16 20 18 18 16 13 17 17 22 21 18 18 18 18 17
1 6 2 4 4 2 6 5 2 2 3 5 3 5 10 10 7 7 8 6 2 1 3 6 8 9 10 12 12 9 10 17 20 19 16 8 11 17 21 22 22 21 20 19
8 4 12 8 16 7 9 10 5 6 4 1 1 6 2 6 9 8 8 7 4 3 3 7 11 13 15 16 16 16 12 8 9 10 13 16 16 16 18 20 20 20 21 21
6 4 2 3 4 13 6 6 8 6 3 4 5 5 4 10 9 11 11 10 6 2 2 5 8 10 12 13 15 15 15 15 15 12 12 12 13 14 14 14 16 17 18 19
5 2 5 5 6 3 5 10 3 3 5 6 6 7 8 14 13 13 14 14 9 5 2 5 8 10 11 13 12 12 14 14 13 14 14 13 13 14 14 14 13 14 16 17
5 3 3 8 9 13 5 5 2 2 2 4 6 6 5 17 19 19 18 15 13 8 3 5 8 10 10 10 11 12 13 13 13 12 12 12 13 14 14 15 15 15 15 15
7 3 8 15 2 8 7 10 12 5 5 3 2 10 1 12 17 21 19 17 13 7 3 3 7 8 9 10 10 11 12 12 13 12 13 15 16 18 19 20 19 18 17 16
6 3 5 5 1 2 7 8 9 6 3 14 6 9 4 8 15 19 20 18 14 9 3 3 4 6 8 9 9 10 10 11 12 13 15 16 19 21 23 23 23 22 21 20
5 6 8 10 3 4 5 11 14 14 6 9 16 21 9 11 12 17 20 18 15 10 4 2 4 6 6 8 9 10 10 10 12 13 15 17 19 20 21 21 21 22 23 24
6 11 7 13 10 7 8 12 13 15 17 11 22 16 14 18 17 22 21 18 15 11 6 5 4 5 6 8 10 10 10 11 12 13 15 18 18 17 19 20 21 21 20 24
4 10 6 14 9 13 14 15 14 16 18 16 18 21 8 19 18 22 24 23 19 14 9 7 6 5 6 7 9 11 11 11 12 14 15 15 15 15 18 18 20 20 21 23
3 5 6 12 6 7 10 19 18 14 17 15 16 19 10 11 20 28 27 23 19 16 12 10 7 6 6 5 7 11 12 12 13 13 14 15 15 17 18 18 18 19 21 23
7 5 3 7 5 12 5 2 6 14 17 15 11 7 18 17 14 18 21 23 19 16 14 11 9 7 7 5 6 7 9 10 11 12 14 15 15 16 16 16 18 20 21 24
16 12 9 7 8 6 7 6 7 7 8 12 12 12 16 21 18 8 17 19 19 16 16 14 10 9 7 4 4 4 5 8 10 13 15 16 16 16 16 17 19 21 22 24
14 16 14 5 8 8 3 2 6 4 9 14 17 18 21 23 9 7 19 19 20 16 16 14 12 9 6 5 4 4 6 8 11 13 14 15 15 16 17 17 19 23 23 25
5 4 9 4 3 5 5 7 6 5 4 10 18 23 26 11 3 23 26 21 18 17 17 15 12 9 7 7 5 5 8 10 11 10 11 13 15 17 18 19 21 22 23 24
9 7 4 3 6 10 11 8 8 1 2 10 17 21 20 12 18 29 28 25 23 21 18 15 12 10 9 7 5 7 8 10 8 8 10 12 15 17 18 19 21 23 24 26
6 5 6 8 4 1 3 2 4 6 7 15 19 22 23 22 27 30 28 25 21 19 18 15 13 11 9 6 6 7 8 8 7 7 9 12 14 16 18 20 21 22 23 26
3 2 3 3 4 3 6 8 6 6 10 17 21 23 25 27 30 29 28 26 23 19 17 15 14 12 10 9 8 7 8 6 5 6 8 10 12 15 18 18 19 19 20 20
3 8 5 2 1 1 9 14 14 12 13 17 20 22 26 27 29 28 29 26 20 19 18 16 14 14 13 11 9 8 6 5 5 6 8 9 11 14 15 17 16 16 18 20
6 5 5 5 8 4 3 21 18 17 18 20 24 25 24 26 28 30 29 24 21 20 19 18 16 15 14 12 10 9 7 5 5 5 7 9 10 11 13 13 15 16 17 16

GFSCGP_850_spd_126.txt.gz
Wind_Speed
15 8 13 11 12 8 6 8 11 10 6 8 8 11 11 6 3 3 6 8 8 9 10 12 13 12 12 12 10 10 10 9 11 10 7 10 9 5 5 6 9 11 14 16
7 14 13 1 5 8 9 11 13 8 2 7 10 14 3 2 3 4 5 6 5 6 9 10 12 13 14 13 13 12 11 9 8 6 6 5 7 10 8 8 8 9 11 13
13 3 4 12 9 11 9 11 10 10 9 13 9 18 9 8 6 5 4 3 4 5 7 10 12 14 14 16 18 17 16 13 10 8 8 7 7 7 8 10 12 13 13 13
9 7 8 12 13 10 11 4 7 7 6 5 3 6 11 12 7 6 2 1 3 4 6 7 9 11 12 12 12 13 14 14 14 15 14 11 8 8 12 11 15 14 13 15
5 10 13 12 10 10 4 3 4 5 8 8 12 6 2 11 14 10 5 2 0 2 4 5 8 9 11 11 10 8 10 11 12 13 16 17 14 14 12 13 17 20 17 14
5 2 6 4 4 10 7 6 4 5 5 7 12 12 5 10 14 10 7 6 5 3 1 3 5 7 9 11 12 12 11 12 11 11 13 15 15 17 18 18 18 22 23 19
13 13 6 10 9 7 11 7 3 5 5 6 2 8 14 9 8 8 10 10 8 4 1 2 6 7 9 11 12 12 13 13 14 14 13 13 12 12 14 17 23 22 24 20
10 7 19 15 18 7 15 12 6 6 7 7 3 8 1 4 9 8 9 12 10 6 3 1 4 6 9 11 12 12 12 12 13 13 14 14 15 15 14 13 12 13 18 19
7 5 8 4 6 12 7 9 13 15 12 9 12 14 7 9 8 12 15 15 13 9 6 1 3 5 7 8 10 12 12 12 13 13 12 13 13 13 13 12 12 11 12 15
4 5 9 7 9 11 10 10 4 5 7 14 11 14 11 12 14 15 17 18 15 12 7 2 2 4 5 7 9 9 10 11 11 11 12 13 13 13 13 13 11 10 11 11
7 7 8 9 12 15 9 11 8 5 9 10 14 10 5 11 15 18 21 19 17 13 8 3 1 2 4 5 7 8 9 10 11 11 12 12 13 14 14 14 14 14 12 12
12 6 13 17 12 13 18 17 18 11 12 7 9 16 2 3 9 15 19 19 17 14 9 5 2 1 3 4 5 7 8 10 11 11 12 13 13 14 13 14 16 16 15 16
8 7 11 16 7 10 14 20 18 19 15 16 9 7 3 4 8 13 17 18 18 13 10 6 3 1 2 3 5 6 8 9 10 10 11 12 13 14 13 14 14 14 15 17
0 8 11 13 5 2 4 10 14 17 10 15 19 19 15 9 10 15 19 22 21 17 13 8 5 3 3 4 5 6 7 8 8 8 10 11 12 13 14 13 14 14 15 17
6 14 15 19 18 17 17 18 18 21 21 18 21 21 23 16 12 20 23 23 21 20 16 11 8 5 5 5 6 6 7 7 7 7 8 10 11 11 12 13 14 14 15 16
5 11 13 21 19 19 21 24 25 24 25 24 23 29 20 23 11 19 26 26 24 21 15 12 10 9 7 6 7 7 7 7 7 8 8 9 9 11 12 13 14 13 14 16
7 7 10 18 16 17 16 25 25 27 23 22 23 26 20 12 13 25 29 27 26 23 18 15 13 11 9 8 9 8 7 7 7 7 8 9 9 10 12 12 12 13 15 15
13 11 9 12 7 15 15 6 11 17 20 23 23 22 16 15 18 20 23 26 25 22 20 17 15 13 11 9 8 8 7 7 7 8 10 10 10 10 11 11 13 14 15 18
18 16 7 9 14 19 21 9 5 9 18 16 18 18 12 6 13 7 17 22 22 22 21 18 15 14 13 10 9 7 7 8 7 9 10 11 11 10 10 12 14 15 15 17
18 19 14 15 17 20 17 15 8 5 12 12 18 14 15 20 9 8 22 22 25 25 21 20 18 16 13 11 9 8 8 8 9 9 10 10 11 11 12 13 15 15 16 17
4 7 17 16 17 13 9 6 11 8 5 1 9 13 21 14 3 27 28 25 26 22 21 21 18 15 13 12 10 9 9 9 9 9 9 9 10 11 12 13 14 15 16 17
11 7 7 13 10 11 11 11 8 0 1 4 8 17 20 12 19 28 30 27 25 24 24 21 19 16 14 12 10 10 10 9 8 7 7 9 10 11 12 13 14 15 15 16
9 11 8 8 3 3 20 2 7 3 3 7 13 16 20 22 23 26 27 27 26 25 22 18 17 16 13 12 10 11 9 8 7 6 7 8 9 10 12 13 14 14 15 15
9 8 6 1 7 7 13 10 6 6 5 10 14 18 21 24 26 26 27 27 25 23 20 18 17 16 14 12 12 11 10 8 7 7 7 7 8 10 11 11 13 14 14 14
5 7 9 9 5 5 13 16 13 10 10 13 15 18 20 25 26 27 26 25 24 22 20 18 17 16 15 13 12 11 9 8 7 6 6 6 7 7 9 12 12 11 14 14
8 7 9 7 3 7 2 13 14 13 14 17 20 19 20 23 26 25 24 22 22 21 19 18 17 17 16 14 13 11 9 8 7 6 5 6 6 6 7 6 7 12 11 12